[[{"header":{"parameterUnit":"m.s-1","parameterCategory":1,"la1":30.6,"la2":29.2853,"lo1":-89.7004,"lo2":-87.6739,"dy":0.0162,"dx":0.0183,"nx":112,"ny":82,"refTime":"2024-07-19T06:00:00:Z","depth":0,"parameterNumber":2,"parameterNumberName":"U-component_of_WINDS"},"data":[0.0,0.0,0.0,0.0,0.0,0.0,0.0,0.0,0.0,0.0,0.0,0.0,0.0,0.0,0.0,0.0,0.0,0.0,0.0,0.0,0.0,0.0,0.0,0.0,0.0,0.0,0.0,0.0,0.0,0.0,0.0,0.0,0.0,0.0,0.0,0.0,0.0,0.0,0.0,0.0,0.0,0.0,0.0,0.0,0.0,0.0,0.0,0.0,0.0,0.0,0.0,0.0,0.0,0.0,0.0,0.0,0.0,0.0,0.0,0.0,0.0,0.0,0.0,0.0,0.0,0.0,0.0,0.0,0.0,0.0,0.0,0.0,0.0,0.0,0.0,0.0,0.0,0.0,0.0,0.0,0.0,0.0,0.0,0.0,0.0,0.0,0.0,0.0,0.0,0.0,-2.9307,-2.9563,-3.0339,-3.084,-3.0909,-3.0844,-3.0078,-2.842,0.0,0.0,0.0,0.0,0.0,0.0,0.0,0.0,0.0,0.0,0.0,0.0,0.0,0.0,0.0,0.0,0.0,0.0,0.0,0.0,0.0,0.0,0.0,0.0,0.0,0.0,0.0,0.0,0.0,0.0,0.0,0.0,0.0,0.0,0.0,0.0,0.0,0.0,0.0,0.0,0.0,0.0,0.0,0.0,0.0,0.0,0.0,0.0,0.0,0.0,0.0,0.0,0.0,0.0,0.0,0.0,0.0,0.0,0.0,0.0,0.0,0.0,0.0,0.0,0.0,0.0,0.0,0.0,0.0,0.0,0.0,0.0,0.0,0.0,0.0,0.0,0.0,0.0,0.0,0.0,0.0,0.0,0.0,0.0,0.0,0.0,0.0,0.0,0.0,0.0,0.0,0.0,0.0,0.0,0.0,0.0,0.0,0.0,0.0,0.0,0.0,0.0,0.0,0.0,-2.8863,-3.0349,-3.0737,-3.0894,-3.0908,-3.0844,-3.0078,-2.842,0.0,0.0,0.0,0.0,0.0,0.0,0.0,0.0,0.0,0.0,0.0,0.0,0.0,0.0,0.0,0.0,0.0,0.0,0.0,0.0,0.0,0.0,0.0,0.0,0.0,0.0,0.0,0.0,0.0,0.0,0.0,0.0,0.0,0.0,0.0,0.0,0.0,0.0,0.0,0.0,0.0,0.0,0.0,0.0,0.0,0.0,0.0,0.0,0.0,0.0,0.0,0.0,0.0,0.0,0.0,0.0,0.0,0.0,0.0,0.0,0.0,0.0,0.0,0.0,0.0,0.0,0.0,0.0,0.0,0.0,0.0,0.0,0.0,0.0,0.0,0.0,0.0,0.0,0.0,0.0,0.0,0.0,0.0,0.0,0.0,0.0,0.0,0.0,0.0,0.0,0.0,0.0,0.0,0.0,0.0,0.0,0.0,0.0,0.0,0.0,0.0,0.0,0.0,-2.8333,-2.9312,-3.0608,-3.0814,-3.0859,-3.0892,-3.0846,-3.0078,-2.842,-2.6663,0.0,0.0,0.0,0.0,0.0,0.0,0.0,0.0,0.0,0.0,0.0,0.0,0.0,0.0,0.0,0.0,0.0,0.0,0.0,0.0,0.0,0.0,0.0,0.0,0.0,0.0,0.0,0.0,0.0,0.0,0.0,0.0,0.0,0.0,0.0,0.0,0.0,0.0,0.0,0.0,0.0,0.0,0.0,0.0,0.0,0.0,0.0,0.0,0.0,0.0,0.0,0.0,0.0,0.0,0.0,0.0,0.0,0.0,0.0,0.0,0.0,0.0,0.0,0.0,0.0,0.0,0.0,0.0,0.0,0.0,0.0,0.0,0.0,0.0,0.0,0.0,0.0,0.0,0.0,0.0,0.0,0.0,0.0,0.0,0.0,0.0,0.0,0.0,0.0,0.0,0.0,0.0,0.0,0.0,0.0,0.0,0.0,0.0,0.0,0.0,0.0,0.0,-2.9457,-2.9983,-3.072,-3.0814,-3.084,-3.0896,-3.0653,-2.9885,-2.8383,-2.6468,0.0,0.0,0.0,0.0,0.0,0.0,0.0,0.0,0.0,0.0,0.0,0.0,0.0,0.0,0.0,0.0,0.0,0.0,0.0,0.0,0.0,0.0,0.0,0.0,0.0,0.0,0.0,0.0,0.0,0.0,0.0,0.0,0.0,0.0,0.0,0.0,0.0,0.0,0.0,0.0,0.0,0.0,0.0,0.0,0.0,0.0,0.0,0.0,0.0,0.0,0.0,0.0,0.0,0.0,0.0,0.0,0.0,0.0,0.0,0.0,0.0,0.0,0.0,0.0,0.0,0.0,0.0,0.0,0.0,0.0,0.0,0.0,0.0,0.0,0.0,0.0,0.0,0.0,0.0,0.0,0.0,0.0,0.0,0.0,0.0,0.0,0.0,0.0,0.0,0.0,0.0,0.0,0.0,0.0,0.0,0.0,0.0,0.0,0.0,0.0,0.0,0.0,-2.9635,-3.0667,-3.0798,-3.0858,-3.0897,-3.0897,-3.015,-2.9286,-2.837,-2.5905,0.0,0.0,0.0,0.0,0.0,0.0,0.0,0.0,0.0,0.0,0.0,0.0,0.0,0.0,0.0,0.0,0.0,0.0,0.0,0.0,0.0,0.0,0.0,0.0,0.0,0.0,0.0,0.0,0.0,0.0,0.0,0.0,0.0,0.0,0.0,0.0,0.0,0.0,0.0,0.0,0.0,0.0,0.0,0.0,0.0,0.0,0.0,0.0,0.0,0.0,0.0,0.0,0.0,0.0,0.0,0.0,0.0,0.0,0.0,0.0,0.0,0.0,0.0,0.0,0.0,0.0,0.0,0.0,0.0,0.0,0.0,0.0,0.0,0.0,0.0,0.0,0.0,0.0,0.0,0.0,0.0,0.0,0.0,0.0,0.0,0.0,0.0,0.0,0.0,0.0,0.0,0.0,0.0,0.0,0.0,0.0,0.0,0.0,0.0,0.0,0.0,0.0,-2.9224,-3.019,-3.0797,-3.0879,-3.0682,-3.0135,-2.9781,-2.8997,-2.7589,0.0,0.0,0.0,0.0,0.0,0.0,0.0,0.0,0.0,0.0,0.0,0.0,0.0,0.0,0.0,0.0,0.0,0.0,0.0,0.0,0.0,0.0,0.0,0.0,0.0,0.0,0.0,0.0,0.0,0.0,0.0,0.0,0.0,0.0,0.0,0.0,0.0,0.0,0.0,0.0,0.0,0.0,0.0,0.0,0.0,0.0,0.0,0.0,0.0,0.0,0.0,0.0,0.0,0.0,0.0,0.0,0.0,0.0,0.0,0.0,0.0,0.0,0.0,0.0,0.0,0.0,0.0,0.0,0.0,0.0,0.0,0.0,0.0,0.0,0.0,0.0,0.0,0.0,0.0,0.0,0.0,0.0,0.0,0.0,0.0,0.0,0.0,0.0,0.0,0.0,0.0,0.0,0.0,0.0,0.0,0.0,0.0,0.0,0.0,0.0,0.0,0.0,-2.7982,-2.9162,-3.0037,-3.0407,-3.0469,-3.0136,-2.9257,-2.8924,-2.8141,-2.6673,0.0,0.0,0.0,0.0,0.0,0.0,0.0,0.0,0.0,0.0,0.0,0.0,0.0,0.0,0.0,0.0,0.0,0.0,0.0,0.0,0.0,0.0,0.0,0.0,0.0,0.0,0.0,0.0,0.0,0.0,0.0,0.0,0.0,0.0,0.0,0.0,0.0,0.0,0.0,0.0,0.0,0.0,0.0,0.0,0.0,0.0,0.0,0.0,0.0,0.0,0.0,0.0,0.0,0.0,0.0,0.0,0.0,0.0,0.0,0.0,0.0,0.0,0.0,0.0,0.0,0.0,0.0,0.0,0.0,0.0,0.0,0.0,0.0,0.0,0.0,0.0,0.0,0.0,0.0,0.0,0.0,0.0,0.0,0.0,0.0,0.0,0.0,0.0,0.0,0.0,0.0,0.0,0.0,0.0,0.0,0.0,0.0,0.0,0.0,0.0,0.0,0.0,-2.7993,-2.9627,-3.0392,-2.9586,-2.9567,-2.9238,-2.8359,-2.75,-2.662,0.0,0.0,0.0,0.0,0.0,0.0,0.0,0.0,0.0,0.0,0.0,0.0,0.0,0.0,0.0,0.0,0.0,0.0,0.0,0.0,0.0,0.0,0.0,0.0,0.0,0.0,0.0,0.0,0.0,0.0,0.0,0.0,0.0,0.0,0.0,0.0,0.0,0.0,0.0,0.0,0.0,0.0,0.0,0.0,0.0,0.0,0.0,0.0,0.0,0.0,0.0,0.0,0.0,0.0,0.0,0.0,0.0,0.0,0.0,0.0,0.0,0.0,0.0,0.0,0.0,0.0,0.0,0.0,0.0,0.0,0.0,0.0,0.0,0.0,0.0,0.0,0.0,0.0,0.0,0.0,0.0,0.0,0.0,0.0,0.0,0.0,0.0,0.0,0.0,0.0,0.0,0.0,0.0,0.0,0.0,0.0,0.0,0.0,0.0,0.0,0.0,0.0,0.0,-2.799,-2.9587,-3.0333,-2.9584,-2.9517,-2.8959,-2.7519,-2.7148,-2.6367,-2.488,0.0,0.0,0.0,0.0,0.0,0.0,0.0,0.0,0.0,0.0,0.0,0.0,0.0,0.0,0.0,0.0,0.0,0.0,0.0,0.0,0.0,0.0,0.0,0.0,0.0,0.0,0.0,0.0,0.0,0.0,0.0,0.0,0.0,0.0,0.0,0.0,0.0,0.0,0.0,0.0,0.0,0.0,0.0,0.0,0.0,0.0,0.0,0.0,0.0,0.0,0.0,0.0,0.0,0.0,0.0,0.0,0.0,0.0,0.0,0.0,0.0,0.0,0.0,0.0,0.0,0.0,0.0,0.0,0.0,0.0,0.0,0.0,0.0,0.0,0.0,0.0,0.0,0.0,0.0,0.0,0.0,0.0,0.0,0.0,0.0,0.0,0.0,0.0,0.0,0.0,0.0,0.0,0.0,0.0,0.0,0.0,0.0,0.0,0.0,0.0,0.0,0.0,-2.7945,-2.9279,-2.9822,-2.9039,-2.8674,-2.7945,-2.6601,-2.6484,-2.5898,-2.449,0.0,0.0,0.0,0.0,0.0,0.0,0.0,0.0,0.0,0.0,0.0,0.0,0.0,0.0,0.0,0.0,0.0,0.0,0.0,0.0,0.0,0.0,0.0,0.0,0.0,0.0,0.0,0.0,0.0,0.0,0.0,0.0,0.0,0.0,0.0,0.0,0.0,0.0,0.0,0.0,0.0,0.0,0.0,0.0,0.0,0.0,0.0,0.0,0.0,0.0,0.0,0.0,0.0,0.0,0.0,0.0,0.0,0.0,0.0,0.0,0.0,0.0,0.0,0.0,0.0,0.0,0.0,0.0,0.0,0.0,0.0,0.0,0.0,0.0,0.0,0.0,0.0,0.0,0.0,0.0,0.0,0.0,0.0,0.0,0.0,0.0,0.0,0.0,0.0,0.0,0.0,0.0,0.0,0.0,0.0,0.0,0.0,0.0,0.0,0.0,0.0,0.0,-2.788,-2.8868,-2.9053,-2.8196,-2.7424,-2.664,-2.5762,-2.5703,-2.5332,-2.4452,0.0,0.0,0.0,0.0,0.0,0.0,0.0,0.0,0.0,0.0,0.0,0.0,0.0,0.0,0.0,0.0,0.0,0.0,0.0,0.0,0.0,0.0,0.0,0.0,0.0,0.0,0.0,0.0,0.0,0.0,0.0,0.0,0.0,0.0,0.0,0.0,0.0,0.0,0.0,0.0,0.0,0.0,0.0,0.0,0.0,0.0,0.0,0.0,0.0,0.0,0.0,0.0,0.0,0.0,0.0,0.0,0.0,0.0,0.0,0.0,-2.5013,-2.4724,0.0,0.0,0.0,0.0,0.0,0.0,0.0,0.0,0.0,0.0,0.0,0.0,0.0,0.0,0.0,0.0,0.0,0.0,0.0,0.0,0.0,0.0,0.0,0.0,0.0,0.0,0.0,0.0,0.0,0.0,0.0,0.0,0.0,0.0,0.0,0.0,0.0,0.0,0.0,0.0,-2.7964,-2.8803,-2.9012,-2.8194,-2.7383,-2.6588,-2.577,-2.5702,-2.5332,-2.4452,-2.3573,0.0,0.0,0.0,0.0,0.0,0.0,0.0,0.0,0.0,0.0,0.0,0.0,0.0,0.0,0.0,0.0,0.0,0.0,0.0,0.0,0.0,0.0,0.0,0.0,0.0,0.0,0.0,0.0,0.0,0.0,0.0,0.0,0.0,0.0,0.0,0.0,0.0,0.0,0.0,0.0,0.0,0.0,0.0,0.0,0.0,0.0,0.0,0.0,0.0,0.0,0.0,0.0,0.0,0.0,0.0,0.0,0.0,0.0,0.0,-2.6521,-2.6411,0.0,0.0,0.0,0.0,0.0,0.0,0.0,0.0,0.0,0.0,0.0,0.0,0.0,0.0,0.0,0.0,0.0,0.0,0.0,0.0,0.0,0.0,0.0,0.0,0.0,0.0,0.0,0.0,0.0,0.0,0.0,0.0,0.0,0.0,0.0,0.0,0.0,0.0,0.0,0.0,-2.7421,-2.8205,-2.8407,-2.7553,-2.6756,-2.6121,-2.5724,-2.5696,-2.5506,-2.5058,-2.4218,0.0,0.0,0.0,0.0,0.0,0.0,0.0,0.0,0.0,0.0,0.0,0.0,0.0,0.0,0.0,0.0,0.0,0.0,0.0,0.0,0.0,0.0,0.0,0.0,0.0,0.0,0.0,0.0,0.0,0.0,0.0,0.0,0.0,0.0,0.0,0.0,0.0,0.0,0.0,0.0,0.0,0.0,0.0,0.0,0.0,0.0,0.0,0.0,0.0,0.0,0.0,0.0,0.0,-2.76,-2.7696,-2.8313,-2.7658,-2.8091,-2.9333,-2.7952,-2.8177,-2.9444,-2.8636,0.0,0.0,0.0,0.0,0.0,0.0,0.0,0.0,0.0,0.0,0.0,0.0,0.0,0.0,0.0,0.0,0.0,0.0,0.0,0.0,0.0,0.0,-2.8455,-2.8455,-2.8997,-2.8954,-2.6845,0.0,0.0,0.0,0.0,0.0,0.0,0.0,0.0,0.0,0.0,0.0,-2.7048,-2.7644,-2.7754,-2.6877,-2.6062,-2.5603,-2.5653,-2.5679,-2.5611,-2.5467,-2.4784,-2.4335,0.0,0.0,0.0,0.0,0.0,0.0,0.0,0.0,0.0,0.0,0.0,0.0,0.0,0.0,0.0,0.0,0.0,0.0,0.0,0.0,0.0,0.0,0.0,0.0,0.0,0.0,0.0,0.0,0.0,0.0,0.0,0.0,-2.1752,-2.3555,0.0,0.0,0.0,0.0,0.0,0.0,0.0,0.0,0.0,0.0,0.0,0.0,0.0,-2.7904,-2.7899,-2.8655,-2.903,-2.903,-2.9638,-2.9973,-3.0069,-2.9954,-3.0025,-3.0237,-3.0007,0.0,-3.0279,-2.9465,0.0,0.0,0.0,0.0,0.0,0.0,0.0,0.0,0.0,0.0,0.0,0.0,0.0,0.0,0.0,0.0,0.0,0.0,0.0,0.0,0.0,0.0,-3.025,-3.025,-3.0346,-3.0346,-2.9998,-2.8818,-2.7538,-2.6569,-2.6372,-2.6333,0.0,0.0,0.0,0.0,0.0,0.0,-2.8023,-2.797,-2.7675,-2.6819,-2.5997,-2.5518,-2.5526,-2.5587,-2.5281,-2.4531,-2.4432,-2.4051,-2.3293,-2.3055,0.0,0.0,0.0,0.0,0.0,0.0,0.0,0.0,0.0,0.0,0.0,0.0,0.0,0.0,0.0,0.0,0.0,0.0,0.0,0.0,0.0,0.0,0.0,0.0,0.0,0.0,0.0,0.0,0.0,-2.117,-2.3445,-2.463,-2.563,-2.6241,0.0,0.0,0.0,0.0,0.0,0.0,0.0,0.0,0.0,-2.8616,-2.9079,-2.93,-2.9303,-2.9677,-2.9869,-2.9888,-3.0237,-3.0404,-3.0404,-3.0404,-3.0404,-3.0404,-3.0402,-3.0425,-3.0425,-3.0095,-2.9722,-2.9314,0.0,0.0,0.0,0.0,-2.9155,-2.9537,-2.952,-2.9487,-2.9321,-2.8431,0.0,0.0,0.0,0.0,0.0,0.0,0.0,-2.9399,-2.9901,-3.0308,-3.0598,-3.0598,-3.0598,-3.0598,-3.0598,-2.9998,-2.9201,-2.8323,-2.8159,-2.8009,-2.7526,-2.7446,0.0,0.0,0.0,-2.8842,-2.7486,-2.7713,-2.7488,-2.6165,-2.5716,-2.5499,-2.5498,-2.5526,-2.5398,-2.5056,-2.5051,-2.4903,-2.4516,-2.4039,-2.3611,0.0,0.0,0.0,0.0,0.0,0.0,0.0,0.0,0.0,0.0,0.0,0.0,0.0,0.0,0.0,0.0,0.0,0.0,0.0,0.0,0.0,0.0,0.0,0.0,0.0,0.0,0.0,0.0,-2.3278,-2.5125,-2.6154,-2.7425,-2.8205,0.0,0.0,0.0,0.0,0.0,0.0,-2.8867,-2.9682,-3.0158,-3.0155,-3.0733,-3.1049,-3.1038,-3.1038,-3.1044,-3.105,-3.0621,-3.041,-3.0408,-2.9954,-2.9756,-2.9767,-2.9761,-2.9894,-3.01,-3.0364,-3.0133,-2.9641,-2.9694,-2.9712,-2.9725,-2.9719,-3.0085,-3.0602,-3.0595,-3.0598,-3.0482,-2.9843,-2.9476,-2.9229,-2.8784,0.0,0.0,0.0,0.0,-2.9785,-3.0424,-3.0598,-3.0598,-3.0598,-3.0598,-3.0598,-3.0598,-3.0598,-3.0395,-2.9743,-2.9603,-2.9405,-2.8719,-2.8603,0.0,-2.8642,-2.919,-2.8975,-2.7237,-2.7574,-2.7336,-2.565,-2.5476,-2.5461,-2.5479,-2.5467,-2.5414,-2.5248,-2.5459,-2.5488,-2.5273,-2.4849,-2.4513,-2.4293,0.0,0.0,0.0,0.0,0.0,0.0,0.0,0.0,0.0,0.0,0.0,0.0,0.0,0.0,0.0,0.0,0.0,0.0,0.0,0.0,0.0,0.0,0.0,0.0,0.0,0.0,0.0,0.0,0.0,-2.8703,-2.8992,0.0,0.0,0.0,0.0,-2.8978,-2.9813,-3.0641,-3.1468,-3.2282,-3.2705,-3.2699,-3.2756,-3.2776,-3.2776,-3.2776,-3.2814,-3.2844,-3.1191,-3.0439,-3.0441,-2.8788,-2.8032,-2.8029,-2.8028,-2.8501,-2.9322,-3.0086,-3.0458,-3.0521,-3.0545,-3.0584,-3.0626,-3.0562,-3.0574,-3.0602,-3.0595,-3.0598,-3.0598,-3.0559,-2.9959,-2.9457,-3.023,-2.9882,0.0,0.0,-3.052,-3.054,-3.0598,-3.0598,-3.0598,-3.0598,-3.0598,-3.0598,-3.0598,-3.0598,-3.0564,-3.0456,-3.0446,-3.0416,-3.0307,0.0,-3.0298,-3.0364,-3.0413,-2.9814,-2.8054,-2.788,-2.7263,-2.5588,-2.5415,-2.5415,-2.5419,-2.5417,-2.5085,-2.4316,-2.5059,-2.516,-2.4408,-2.5068,-2.5082,-2.4311,-2.4092,0.0,0.0,0.0,0.0,0.0,0.0,0.0,0.0,0.0,0.0,0.0,0.0,0.0,0.0,0.0,0.0,0.0,0.0,0.0,0.0,0.0,0.0,0.0,0.0,0.0,0.0,0.0,0.0,-2.8973,-2.9602,0.0,-2.9948,-3.0179,-3.0467,-3.0756,-3.1545,-3.2141,-3.2468,-3.2737,-3.2891,-3.2891,-3.2891,-3.2891,-3.2891,-3.2891,-3.2647,-3.2159,-3.1531,-3.0954,-3.04,-2.9781,-2.9511,-2.9509,-2.9501,-2.969,-3.0009,-3.0328,-3.0491,-3.0534,-3.0572,-3.0602,-3.0556,-2.9986,-2.976,-2.9756,-2.976,-2.9766,-2.9863,-3.0424,-3.0385,-3.0192,-3.0501,-3.0385,-3.0192,-3.0501,-3.0598,-3.0598,-3.0598,-3.0598,-3.0598,-3.0598,-3.0598,-3.0598,-3.0598,-3.0598,-3.0583,-3.0514,-3.0504,-3.0474,-3.0403,-3.0394,-3.0414,-3.0428,-3.0433,-3.0029,-2.8872,-2.8251,-2.7475,-2.6356,-2.5738,-2.541,-2.541,-2.5395,-2.5284,-2.4999,-2.5263,-2.5302,-2.5016,-2.5286,-2.5306,-2.5,-2.4407,-2.3529,0.0,0.0,0.0,0.0,0.0,0.0,0.0,0.0,0.0,0.0,0.0,0.0,0.0,0.0,0.0,0.0,0.0,0.0,0.0,0.0,0.0,0.0,0.0,0.0,0.0,-2.7409,-2.8607,-2.9448,-3.0314,-3.0846,-3.0846,-3.1621,-3.2102,-3.2102,-3.2872,-3.3333,-3.3333,-3.3622,-3.3776,-3.3776,-3.3776,-3.3776,-3.3776,-3.3776,-3.3359,-3.2544,-3.1974,-3.1268,-3.0419,-2.9819,-2.9569,-2.9567,-2.955,-2.972,-2.999,-3.007,-3.0259,-3.0496,-3.0554,-3.0588,-3.052,-2.994,-2.9747,-2.9747,-2.9747,-2.9747,-2.9824,-3.0404,-3.0598,-3.0598,-3.0598,-3.0598,-3.0598,-3.0598,-3.0598,-3.0598,-3.0598,-3.0598,-3.0598,-3.0598,-3.0598,-3.0598,-3.0598,-3.0598,-3.0583,-3.0514,-3.0504,-3.0469,-3.0406,-3.0396,-3.039,-3.0394,-3.04,-3.0092,-2.9264,-2.8438,-2.7581,-2.6752,-2.5885,-2.5364,-2.5364,-2.5393,-2.5397,-2.5397,-2.5406,-2.541,-2.541,-2.5407,-2.5398,-2.5398,-2.4812,-2.4375,-2.4082,0.0,0.0,0.0,0.0,0.0,0.0,0.0,0.0,0.0,0.0,0.0,0.0,0.0,0.0,0.0,0.0,0.0,0.0,0.0,0.0,0.0,0.0,0.0,-2.7934,-2.8626,-2.9467,-3.0346,-3.1192,-3.1718,-3.1737,-3.2468,-3.2949,-3.2949,-3.3744,-3.4244,-3.4244,-3.5045,-3.55,-3.55,-3.55,-3.55,-3.55,-3.5462,-3.502,-3.4135,-3.2486,-3.1286,-3.0441,-2.875,-2.7974,-2.7976,-2.7986,-2.8454,-2.9231,-2.9303,-2.9805,-3.0496,-3.0496,-3.0535,-3.0598,-3.0578,-3.0559,-3.0559,-3.0559,-3.0578,-3.0598,-3.0598,-3.0598,-3.0598,-3.0598,-3.0598,-3.0598,-3.0598,-3.0598,-3.0598,-3.0598,-3.0598,-3.0598,-3.0598,-3.0598,-3.0598,-3.0598,-3.0598,-3.0583,-3.0514,-3.0504,-3.0483,-3.0416,-3.0404,-3.0404,-3.0404,-3.0404,0.0,-2.9242,-2.8434,-2.7601,-2.6736,-2.5865,-2.5327,-2.5308,-2.5356,-2.5394,-2.5394,-2.5397,-2.5406,-2.5444,-2.5446,-2.5452,-2.5471,-2.538,-2.5769,-2.6601,0.0,0.0,0.0,0.0,0.0,0.0,0.0,0.0,0.0,0.0,0.0,0.0,0.0,0.0,0.0,0.0,0.0,0.0,0.0,0.0,0.0,-2.8088,-2.878,-2.878,-2.9506,-3.0365,-3.1231,-3.1545,-3.1929,-3.2506,-3.3333,-3.384,-3.384,-3.4641,-3.5135,-3.5135,-3.5365,-3.55,-3.55,-3.55,-3.55,-3.55,-3.4872,-3.4129,-3.3231,-3.2205,-3.1243,-3.0414,-2.9935,-2.9698,-2.9715,-2.9704,-2.985,-3.0086,-3.0142,-3.0298,-3.0496,-3.0559,-3.0569,-3.052,-2.9882,-2.965,-2.965,-2.965,-3.0075,-3.0598,-3.0598,-3.0598,-3.0598,-3.0598,-3.0598,-3.0598,-3.0598,-3.0598,-3.0598,-3.0598,-3.0598,-3.0598,-3.0598,-3.0598,-3.0593,-3.053,-3.0525,-3.051,-3.0439,-3.0428,-3.0417,-3.039,-3.0404,-3.0404,-3.0404,-3.0404,-3.0308,-3.0077,-2.9294,-2.8453,-2.7621,-2.6755,-2.5981,-2.5346,-2.5317,-2.5322,-2.5322,-2.5327,-2.5601,-2.6237,-2.627,-2.6578,-2.7194,-2.6568,-2.6365,0.0,0.0,0.0,0.0,0.0,0.0,0.0,0.0,0.0,0.0,0.0,0.0,0.0,0.0,0.0,0.0,0.0,0.0,0.0,0.0,0.0,0.0,-2.9102,-2.964,-2.964,-3.0077,-3.0712,-3.1602,-3.2006,-3.2526,-3.3353,-3.4237,-3.4584,-3.4225,-3.5007,-3.5346,-3.4968,-3.5308,-3.55,-3.55,-3.5154,-3.4968,-3.4968,-3.4083,-3.3237,-3.2391,-3.1929,-3.1231,-3.0404,-3.0404,-3.0404,-3.0404,-3.04,-3.0406,-3.0419,-3.0463,-3.0485,-3.0465,0.0,0.0,0.0,0.0,-2.9843,-2.9843,-2.9843,-3.0172,-3.0598,-3.0598,-3.0598,-3.0598,-3.0598,-3.0598,-3.0598,-3.0598,-3.0598,-3.0598,-3.0598,-3.0598,-3.0598,-3.0598,-3.0598,-3.0569,-3.0501,-3.0496,-3.0481,-3.0409,-3.0398,0.0,-3.041,-3.0404,-3.0404,-3.0404,-3.0404,-3.0404,-3.0404,-2.964,-2.8915,-2.8453,-2.7313,-2.6544,-2.6409,-2.6058,0.0,0.0,0.0,-2.6621,-2.7121,-2.714,0.0,0.0,0.0,0.0,0.0,-2.7673,0.0,0.0,-2.7621,-2.7467,0.0,0.0,0.0,0.0,0.0,0.0,0.0,0.0,0.0,0.0,0.0,0.0,0.0,0.0,0.0,0.0,-2.9813,-3.025,-3.025,-3.0173,-3.05,-3.1564,-3.2237,-3.3006,-3.3955,-3.4757,-3.4891,-3.4109,-3.4776,-3.4872,-3.409,-3.4795,0.0,0.0,0.0,-3.4052,-3.4052,-3.3199,-3.241,-3.1698,-3.1602,-3.1154,-3.0404,-3.0404,-3.0404,-3.0404,-3.0394,-3.0394,-3.041,-3.0466,-3.0458,-3.0403,-3.0476,-3.0535,-3.0598,-3.0598,-3.0598,-3.0598,-3.0598,0.0,0.0,-3.0598,-3.0598,-3.0598,-3.0598,-3.0598,-3.0598,-3.0598,-3.0598,-3.0598,-3.0598,-3.0598,-3.0598,-3.0598,-3.052,-3.0434,-3.0361,-3.0356,-3.0335,-3.0268,-3.0334,-3.04,-3.041,-3.0404,-3.0404,-3.0404,-3.0404,-3.0404,-3.0404,-2.9717,-2.9204,-2.9107,-2.7698,0.0,-2.7698,-2.6948,-2.6832,-2.7698,-2.7934,-2.8049,-2.8049,-2.8126,-2.853,-2.9223,-2.9242,-2.9621,-3.0404,-3.0404,-3.0404,-3.0346,-2.8077,-2.7832,0.0,0.0,0.0,0.0,0.0,0.0,0.0,0.0,0.0,0.0,0.0,0.0,0.0,0.0,0.0,-3.0,-2.9698,-2.9357,-2.9357,-2.8794,-2.9217,-3.1448,-3.1212,-3.1481,-3.3006,-3.3295,-3.3333,-3.316,-3.3314,-3.3333,-3.316,-3.3314,-3.341,-3.341,-3.3237,-3.3141,-3.3141,-3.2333,-3.1852,-3.1698,-3.0981,0.0,-3.0404,-3.0404,-3.0404,-3.0404,-3.039,-3.041,-3.0404,-3.0416,-3.0414,-3.0403,-3.0476,-3.0535,-3.0598,-3.0598,-3.0598,-3.0598,-3.0598,-3.0598,-3.0598,-3.0598,-3.0598,-3.0598,-3.0598,-3.0598,0.0,-3.0598,-3.0598,-3.0598,-3.0598,-3.0598,-3.0598,-3.0598,-3.0066,-2.9525,-2.9472,-2.9447,-2.942,-2.9349,-2.9915,-3.039,-3.0404,-3.0404,-3.0404,-3.0404,-3.0404,-3.0404,-3.0404,-3.025,-2.989,-2.9184,-2.8222,-2.7428,-2.6909,-2.6058,-2.5923,-2.6794,-2.8126,-2.8876,-2.8876,-2.9544,-2.9981,-3.0154,-3.0154,-3.0231,-3.0404,-3.0404,-3.0404,-3.0385,-2.9885,-2.9846,0.0,0.0,0.0,0.0,0.0,0.0,0.0,0.0,0.0,0.0,0.0,-2.8102,-2.8953,0.0,-2.9756,-2.9756,-2.9371,-2.8953,-2.8569,-2.7775,-2.8198,-3.075,-3.0673,-3.1058,-3.2737,-3.2891,-3.2737,-3.2333,-3.2679,-3.2718,-3.2314,-3.2679,-3.2891,-3.2891,-3.2506,-3.2295,-3.2295,-3.1462,-3.1058,-3.1038,-3.0615,-3.0404,-3.0404,-3.0404,-3.0404,-3.0404,-3.0404,-3.0404,-3.0404,-3.0404,-3.0402,-3.0398,-3.0444,-3.0481,-3.0559,-3.0593,-3.0598,-3.0598,-3.0598,-3.0598,-3.0598,-3.0598,-3.0598,-3.0598,-3.0598,-3.0598,-3.0598,-3.0598,-3.0598,-3.0598,-3.0598,-3.0598,-3.0593,-3.0559,-3.0221,-2.9873,-2.9813,-2.9792,-2.9789,-2.9761,-3.0096,-3.0404,-3.0404,-3.0404,-3.0404,-3.0404,-3.0404,-3.0404,-3.0404,-3.0404,-3.0077,-2.9184,-2.8742,-2.8165,-2.7313,-2.6851,-2.6794,-2.7217,-2.8415,-2.9107,-2.9107,-2.9948,-3.0404,-3.0404,-3.0404,-3.0355,-3.0248,-3.0209,-3.0169,-3.0092,-3.0071,-3.0095,0.0,0.0,0.0,0.0,0.0,0.0,0.0,0.0,-2.714,-2.7294,-2.8409,-2.93,-2.9127,-2.9679,-2.9871,-2.9011,-2.8723,-2.8396,-2.7736,-2.7044,-2.7428,-2.9654,-2.9904,-3.0577,-3.2256,-3.241,-3.216,-3.1506,-3.2045,-3.2141,-3.1487,-3.2064,-3.241,-3.241,-3.1948,-3.1698,-3.1698,-3.1154,-3.0885,-3.0885,-3.0731,-3.0654,-3.0654,-3.0481,-3.0404,-3.0404,-3.0577,-3.0558,-3.0404,-3.0577,-3.0556,-3.0406,-3.0392,-3.0425,-3.0486,-3.0559,-3.0593,-3.0598,-3.0598,-3.0598,-3.0598,-3.0598,-3.0598,-3.0598,-3.0598,-3.0598,-3.0598,-3.0598,-3.0598,-3.0598,-3.0598,-3.0598,-3.0569,-3.052,-3.0375,-3.0225,-3.0177,-3.0161,-3.015,-3.014,-3.0288,-3.0404,-3.0404,-3.0404,-3.0404,-3.0404,-3.0404,-3.0404,-3.0404,-3.0404,-3.0135,-2.9429,-2.9204,-2.878,-2.7972,-2.8049,-2.8068,-2.7915,-2.8819,-2.9269,-2.9068,-2.9888,-3.0336,-3.0292,-3.0292,-3.0215,-3.0032,-2.9996,-2.9912,-2.9784,-2.9687,-2.9746,-2.5058,-2.5019,-2.5423,-2.7063,-2.6967,-2.7038,0.0,0.0,-2.9044,-2.9827,-3.0115,-3.0019,-2.9242,-2.9184,-2.8973,-2.8165,-2.7371,-2.6851,-2.6755,-2.6659,-2.6986,-2.8044,-2.8179,-2.8832,-3.0519,-3.0673,-3.0635,-3.0558,-3.0635,-3.0635,-3.0558,-3.0635,-3.0673,-3.0673,-3.1346,-3.1698,-3.1698,-3.2314,-3.2622,-3.2602,-3.191,-3.1545,-3.1525,-3.075,-3.0404,-3.0442,-3.1212,-3.1115,-3.0462,-3.1231,-3.1102,-3.039,-3.0406,-3.0398,-3.0414,-3.0481,-3.0554,-3.0598,-3.0598,-3.0598,-3.0598,-3.0598,-3.0598,-3.0598,-3.0598,-3.0598,-3.0598,-3.0598,-3.0598,-3.0598,-3.0598,-3.0598,-3.0569,-3.052,-2.9902,-2.9341,-2.9343,-2.9283,-2.9248,-2.9242,-2.9871,-3.0404,-3.0404,-3.0404,-3.0404,-3.0404,-3.0404,-3.0404,-3.0404,-3.0404,-3.0365,-3.0269,-2.9563,-2.878,-2.7972,-2.8549,-2.8665,-2.7953,-2.939,-2.9856,-2.8963,-2.9709,-3.0073,-2.9958,-2.995,-2.9926,-2.9842,-2.9834,-2.9782,-2.9705,-2.9514,-2.9542,-2.5173,-2.6038,-2.6871,-2.7082,-2.7986,-2.8962,-2.9525,-2.9756,-2.9967,-3.0327,-3.0404,-3.0288,-2.9929,-2.9429,-2.8838,-2.803,-2.7582,-2.7178,-2.6678,-2.6601,-2.6928,-2.7799,-2.7895,-2.8563,-3.0231,-3.0404,-3.0404,-3.0404,-3.0404,-3.0404,-3.0404,-3.0885,-3.1154,-3.1154,-3.1968,-3.2391,-3.2391,-3.2737,-3.2891,-3.2891,-3.2564,-3.2391,-3.2391,-3.2025,-3.1852,-3.1891,-3.2237,-3.2199,-3.1891,-3.2256,-3.2179,-3.1814,-3.1345,-3.1151,-3.1097,-3.0669,-3.052,-3.0554,-3.0593,-3.0598,-3.0598,-3.0598,-3.0598,-3.0598,-3.0598,-3.0598,-3.0593,-3.0559,-3.0535,-3.0535,-3.0535,-3.0545,-3.0535,-3.0519,-3.0185,-2.9908,-2.9894,-2.9877,-2.9871,-2.9871,-3.0154,-3.0404,-3.0404,-3.0404,-3.0404,-3.0404,-3.0404,-3.0404,-3.0404,-3.0404,-3.0404,-3.0404,-2.9198,-2.8453,-2.8588,-2.8472,-2.8261,-2.7915,-2.8911,-2.934,-2.8917,-2.9603,-2.9939,-2.9834,-2.9834,-2.9758,-2.9579,-2.9561,-2.9494,-2.9345,-2.922,-2.9209,-2.5135,-2.6212,-2.7082,-2.6697,-2.7981,-2.925,-2.8857,-2.9429,-3.0038,-3.0038,-3.0231,-3.0327,-3.0096,-2.9525,-2.8838,-2.803,-2.7895,-2.7678,-2.7044,-2.7159,-2.7525,-2.8165,-2.8429,-2.9063,-3.0288,-3.0404,-3.0404,-3.0404,-3.0615,-3.075,-3.075,-3.1564,-3.2025,-3.2025,-3.2833,-3.3256,-3.3256,-3.3506,-3.3622,-3.3603,-3.3372,-3.3256,-3.3256,-3.3006,-3.2891,-3.291,-3.3141,-3.3122,-3.291,-3.316,-3.3122,-3.2833,-3.2256,-3.2038,-3.1952,-3.14,-3.0906,-3.052,-3.0588,-3.0598,-3.0598,-3.0588,-3.0564,-3.0564,-3.0579,-3.0579,-3.0554,-3.051,-3.0505,-3.0505,-3.0505,-3.0495,-3.0499,-3.0474,-3.0433,-3.0406,-3.039,-3.0404,-3.0404,-3.0404,-3.0404,-3.0404,-3.0404,-3.0404,-3.0404,-3.0404,-3.0404,-3.0404,-3.0404,-3.0404,-3.0373,-3.0317,-2.9223,-2.8731,-2.927,-2.8791,-2.8344,-2.8114,-2.8765,-2.9043,-2.8745,-2.9415,-2.9741,-2.9672,-2.9635,-2.9533,-2.9326,-2.9322,-2.9225,-2.9074,-2.9028,-2.9005,-2.5288,-2.5346,-2.5577,-2.6409,-2.6659,-2.6928,-2.7755,-2.8569,-2.9146,-2.9146,-2.9813,-3.0135,-2.93,-2.9127,-2.8838,-2.803,-2.7895,-2.7895,-2.7857,-2.853,-2.903,-2.9069,-2.9813,-3.0346,-3.0404,-3.0404,-3.0404,-3.0404,-3.1173,-3.166,-3.166,-3.2429,-3.2852,-3.2852,-3.3705,-3.4167,-3.4167,-3.5007,-3.5423,-3.5404,-3.4564,-3.4167,-3.4129,-3.3295,-3.2891,-3.2949,-3.3801,-3.368,-3.2968,-3.3821,-3.366,-3.2891,-3.2872,-3.2852,-3.2878,-3.2915,-3.1901,-3.052,-3.0588,-3.0598,-3.0593,-3.0525,-3.0496,-3.0491,-3.0495,-3.0504,-3.0504,-3.0504,-3.0504,-3.0504,-3.0504,-3.0504,-3.0474,-3.0422,-3.0398,-3.0406,-3.039,-3.0404,-3.0404,-3.0404,-3.0404,-3.0404,-3.0404,-3.0404,-3.0404,-3.0404,-3.0404,-3.0404,-3.0404,-3.0404,-3.0336,-3.0129,-3.0058,-2.9982,-2.9888,-2.9853,-2.9485,-2.8635,-2.9382,-2.9395,-2.8369,-2.9092,-2.9455,-2.9323,-2.9243,-2.9178,-2.91,-2.91,-2.9067,-2.9005,-2.9005,-2.9005,-2.5154,-2.5712,-2.6096,-2.5808,-2.6621,-2.739,-2.7101,-2.7678,-2.8299,-2.8299,-2.8948,-2.9448,-2.9146,-2.9107,-2.9011,-2.8742,-2.8703,-2.8703,-2.8703,-2.8934,-2.9107,-2.9107,-2.9357,-2.9756,-3.0346,-3.0404,-3.0635,-3.1212,-3.1525,-3.1929,-3.2468,-3.3295,-3.3763,-3.3763,-3.4603,-3.5064,-3.5064,-3.5346,-3.55,-3.55,-3.5192,-3.5064,-3.5045,-3.475,-3.4635,-3.4635,-3.4949,-3.4911,-3.4654,-3.4949,-3.4885,-3.4558,-3.3987,-3.3763,-3.3705,-3.3185,-3.2642,-3.2155,-3.2174,-3.1848,-3.138,-3.1325,-3.0934,-3.0495,-3.0504,-3.0504,-3.0499,-3.0458,-3.0433,-3.0433,-3.0433,-3.0436,-3.0419,-3.0411,-3.04,-3.0396,-3.0404,-3.0404,-3.0404,-3.0404,-3.0404,-3.0404,-3.0404,-3.0404,-3.0404,-3.0404,-3.0404,-3.0404,-3.0404,-3.0404,-3.0317,-3.0122,-3.0109,-3.0052,-2.991,-2.9902,-2.9761,-2.9469,-2.9607,-2.9512,-2.9102,-2.9275,-2.9289,-2.9175,-2.9152,-2.9089,-2.904,-2.904,-2.9028,-2.9005,-2.9005,-2.9005,-2.5154,-2.5712,-2.6,-2.5442,-2.6135,-2.6813,-2.625,-2.6813,-2.7525,-2.7838,-2.8319,-2.8857,-2.9448,-2.9319,-2.9204,-2.9506,-2.9563,-2.9563,-2.9563,-2.9563,-2.9679,-2.9987,-3.0025,-3.0352,-3.1212,-3.1288,-3.1519,-3.2083,-3.2429,-3.2814,-3.3333,-3.418,-3.4661,-3.4661,-3.5212,-3.55,-3.55,-3.55,-3.55,-3.55,-3.55,-3.55,-3.55,-3.55,-3.55,-3.55,-3.55,-3.55,-3.55,-3.55,-3.55,-3.5442,-3.4872,-3.4661,-3.4609,-3.409,-3.389,-3.3805,-3.3207,-3.2676,-3.2254,-3.2191,-3.1601,-3.0926,-3.0934,-3.0703,-3.0466,-3.0406,-3.0394,-3.0394,-3.0394,-3.0402,-3.041,-3.0394,-3.0402,-3.0404,-3.0404,-3.0404,-3.0404,-3.0404,-3.0404,-3.0404,-3.0404,-3.0404,-3.0404,-3.0404,-3.0404,-3.0404,-3.0404,-3.0343,-3.0228,-3.0044,-2.9958,-2.9875,-2.9735,-2.9726,-2.9717,-2.969,-2.957,-2.9464,-2.9405,-2.9296,-2.9186,-2.9089,-2.9085,-2.9051,-2.9005,-2.9005,-2.9005,-2.9005,-2.9005,-2.9005,-2.5308,-2.5308,-2.5308,-2.5308,-2.5308,-2.5308,-2.5308,-2.5962,-2.6832,-2.7659,-2.7876,-2.839,-3.0038,-2.9698,-2.9448,-3.0327,-3.05,-3.0519,-3.0462,-3.0462,-3.075,-3.1545,-3.1679,-3.2025,-3.2814,-3.2949,-3.2987,-3.3026,-3.3757,-3.4225,-3.4263,-3.5045,-3.55,-3.55,-3.55,-3.55,-3.55,-3.55,-3.55,-3.55,-3.55,-3.55,-3.55,-3.55,-3.55,-3.55,-3.55,-3.55,-3.55,-3.55,-3.55,-3.55,-3.55,-3.55,-3.55,-3.55,-3.5489,-3.5258,-3.3677,-3.3147,-3.3145,-3.3074,-3.2478,-3.1759,-3.1762,-3.1154,-3.0462,-3.0462,-3.0423,-3.0404,-3.0404,-3.0404,-3.0404,-3.0404,-3.0404,-3.0404,-3.0404,-3.0404,-3.0404,-3.0404,-3.0404,-3.0404,-3.0404,-3.0404,-3.0404,-3.0404,-3.0398,-3.0373,-3.0373,-3.0228,-3.0052,-2.9902,-2.9706,-2.9541,-2.9417,-2.9396,-2.9376,-2.9302,-2.9302,-2.9262,-2.9189,-2.9123,-2.9089,-2.9078,-2.904,-2.9005,-2.9005,-2.9005,-2.9005,-2.9005,-2.9005,-2.9005,-2.5308,-2.5308,-2.5308,-2.5308,-2.5308,-2.5308,-2.5308,-2.5962,-2.6659,-2.689,-2.7448,-2.8203,-2.9236,-2.9775,-3.0346,-3.1237,-3.1872,-3.2045,-3.1448,-3.1371,0.0,-3.0788,0.0,-3.2025,-3.2814,-3.3487,-3.4141,-3.4788,-3.443,-3.4468,-3.5135,-3.5385,-3.55,-3.55,-3.55,-3.55,-3.55,-3.55,-3.55,-3.55,-3.55,-3.55,-3.55,-3.55,-3.55,-3.55,-3.55,-3.55,-3.55,-3.55,-3.55,-3.55,-3.55,-3.55,-3.55,-3.55,-3.5489,-3.5445,-3.5014,-3.4456,-3.3922,-3.3904,-3.3288,-3.2596,-3.2583,-3.2025,-3.1371,-3.1371,-3.0904,-3.0404,-3.0404,-3.0404,-3.0404,-3.0404,-3.0404,-3.0404,-3.0404,-3.0404,-3.0404,-3.0404,-3.0404,-3.0404,-3.0404,-3.0404,-3.0404,-3.0404,-3.0267,-3.0182,-3.0182,-3.0129,-2.9988,-2.9716,-2.9635,-2.9541,-2.9417,-2.9396,-2.9376,-2.9302,-2.9302,-2.924,-2.9123,-2.91,-2.9085,-2.9028,-2.9017,-2.9005,-2.9005,-2.9005,-2.9005,-2.9005,-2.9005,-2.9005,-2.5308,-2.5308,-2.5308,-2.5308,-2.5308,-2.5308,-2.5308,-2.5962,-2.6717,-2.7082,-2.7563,-2.8255,-2.9448,-3.0077,-3.0692,0.0,0.0,0.0,-3.1814,-3.1698,-3.166,0.0,-3.1929,0.0,-3.393,-3.4487,-3.4968,-3.5462,-3.5045,-3.4988,-3.5462,-3.55,-3.55,-3.55,-3.55,-3.55,-3.55,-3.55,-3.55,-3.55,-3.55,-3.55,-3.55,-3.55,-3.55,-3.55,-3.55,-3.55,-3.55,-3.55,-3.55,-3.55,-3.55,-3.55,-3.55,-3.55,-3.5494,-3.5495,-3.5507,-3.5187,-3.4764,-3.4763,-3.418,-3.3468,-3.3468,-3.2891,-3.2237,-3.2237,-3.1872,-3.1423,-3.1058,-3.0962,-3.0865,-3.05,-3.0404,-3.0404,-3.0404,-3.0404,-3.0404,-3.0404,-3.0404,-3.0404,-3.0404,-3.0404,-3.0367,-3.0273,-3.0176,-3.004,-2.9896,-2.988,-2.9799,-2.9626,-2.9551,-2.9481,-2.9376,-2.9355,-2.9304,-2.9218,-2.9207,-2.9163,-2.9062,-2.9062,-2.9051,-2.9005,-2.9005,-2.9005,-2.9005,-2.9005,-2.9005,-2.9005,-2.9005,-2.9005,-2.5308,-2.5308,-2.5308,-2.5308,-2.5308,-2.5308,-2.5308,-2.5962,-2.6851,-2.7722,-2.7895,-2.8409,-3.0096,-3.0404,-3.0712,-3.1698,0.0,-3.2833,-3.2122,-3.2025,-3.2256,-3.2833,-3.3006,-3.368,-3.5173,-3.5423,-3.55,-3.55,-3.55,-3.55,-3.55,-3.55,-3.55,-3.55,-3.55,-3.55,-3.55,-3.55,-3.55,-3.55,-3.55,-3.55,-3.55,-3.55,-3.55,-3.55,-3.55,-3.55,-3.55,-3.55,-3.55,-3.55,-3.55,-3.55,-3.55,-3.55,-3.55,-3.55,-3.55,-3.55,-3.55,-3.55,-3.4988,-3.4379,-3.4379,-3.3757,-3.3064,-3.3064,-3.2987,-3.2737,-3.2045,-3.1852,-3.1641,-3.0788,-3.0654,-3.0673,-3.0442,-3.0404,-3.0404,-3.0404,-3.0404,-3.0404,-3.0404,-3.0392,-3.0305,-3.0129,-3.0054,-2.9927,-2.9644,-2.9608,-2.9598,-2.9589,-2.9471,-2.9376,-2.9312,-2.9302,-2.924,-2.9119,-2.9089,-2.9074,-2.9005,-2.9005,-2.9005,-2.9005,-2.9005,-2.9005,-2.9005,-2.9005,-2.9005,-2.9005,-2.9005,-2.9005,-2.5308,-2.5308,-2.5308,-2.5308,-2.5308,-2.5308,-2.5308,-2.5962,0.0,0.0,-2.7895,-2.8409,-3.0096,-3.0404,-3.0904,-3.2449,-3.341,-3.3936,-3.3801,-3.3763,-3.3545,0.0,-3.3545,-3.409,-3.4398,-3.5084,-3.55,-3.55,-3.55,-3.55,-3.55,-3.55,-3.55,-3.55,-3.55,-3.55,-3.55,-3.55,-3.55,-3.55,-3.55,-3.55,-3.55,-3.55,-3.55,-3.55,-3.55,-3.55,-3.55,-3.55,-3.55,-3.55,-3.55,-3.55,-3.55,-3.55,-3.55,-3.55,-3.55,-3.55,-3.55,-3.55,-3.5404,-3.5269,-3.5269,-3.468,-3.3975,-3.3975,-3.3449,-3.2872,-3.2737,-3.2699,-3.2487,-3.1679,-3.1987,-3.2083,-3.0692,-3.0404,-3.0404,-3.0404,-3.0404,-3.0404,-3.0404,-3.026,-3.0136,-3.0115,-2.9864,-2.9662,-2.9617,-2.9608,-2.9561,-2.946,-2.9409,-2.9376,-2.9312,-2.9302,-2.924,-2.9119,-2.9089,-2.9074,-2.9005,-2.9005,-2.9005,-2.9005,-2.9005,-2.9005,-2.9005,-2.9005,-2.9005,-2.9005,-2.9005,-2.9005,-2.5308,-2.5308,-2.5308,-2.5308,-2.5308,-2.5308,-2.5308,0.0,0.0,0.0,-2.7895,-2.8409,-3.0096,-3.0404,0.0,-3.2064,-3.2987,-3.3526,-3.3526,-3.3526,-3.3545,-3.3564,-3.3955,-3.4379,-3.4834,-3.525,-3.55,-3.55,-3.55,-3.55,-3.55,-3.55,-3.55,-3.55,-3.55,-3.55,-3.55,-3.55,-3.55,-3.55,-3.55,-3.55,-3.55,-3.55,-3.55,-3.55,-3.55,-3.55,-3.55,-3.55,-3.55,-3.55,-3.55,-3.55,-3.55,-3.55,-3.55,-3.55,-3.55,-3.55,-3.55,-3.55,-3.55,-3.55,-3.55,-3.5212,-3.4872,-3.4872,-3.4584,-3.416,-3.368,-3.3583,-3.3353,-3.2526,-3.2622,-3.2564,-3.1346,-3.1077,-3.0942,-3.05,-3.0404,-3.0361,-3.026,-3.0157,-3.0032,-2.9864,-2.9706,-2.957,-2.9502,-2.9492,-2.9471,-2.9417,-2.9376,-2.9323,-2.9251,-2.9218,-2.9152,-2.9044,-2.9051,-2.904,-2.9005,-2.9005,-2.9005,-2.9005,-2.9005,-2.9005,-2.9005,-2.9005,-2.9005,-2.9005,-2.9005,-2.9005,-2.5308,-2.5308,-2.5308,-2.5308,-2.5308,-2.5308,-2.5308,-2.5827,0.0,-2.7678,-2.7895,-2.8409,-3.0096,-3.0404,-3.0692,0.0,-3.2372,-3.3026,-3.341,-3.3468,-3.3776,-3.4622,-3.4584,0.0,-3.5423,-3.55,-3.55,-3.55,-3.55,-3.55,-3.55,-3.5654,-3.575,-3.575,-3.5942,-3.6038,-3.6038,-3.5846,-3.575,-3.575,-3.575,-3.5673,-3.5519,-3.5673,-3.5654,-3.55,-3.55,-3.55,-3.55,-3.55,-3.55,-3.55,-3.55,-3.55,-3.55,-3.55,-3.55,-3.55,-3.55,-3.55,-3.55,-3.55,-3.55,-3.55,-3.55,-3.55,-3.55,-3.55,-3.55,-3.5346,-3.4661,-3.4468,-3.4314,-3.3622,-3.3179,-3.2776,-3.2333,-3.1948,-3.1506,-3.0808,-3.0495,-3.0292,-3.0129,-3.0032,-2.9904,-2.9635,-2.9589,-2.9522,-2.9399,-2.9396,-2.9396,-2.9386,-2.9334,-2.9262,-2.9218,-2.9134,-2.9074,-2.9005,-2.9005,-2.9005,-2.9005,-2.9005,-2.9005,-2.9005,-2.9005,-2.9005,-2.9005,-2.9005,-2.9005,-2.9005,-2.9005,-2.9005,-2.5308,-2.5308,-2.5308,-2.5308,-2.5308,-2.5308,-2.5308,0.0,-2.5885,-2.7563,-2.7895,-2.8409,-3.0096,-3.0404,-3.0692,-3.1564,0.0,-3.3449,-3.5038,-3.525,-3.5558,-3.6365,0.0,0.0,-3.5481,-3.55,-3.55,-3.55,-3.55,-3.55,-3.55,-3.6192,-3.6596,-3.6596,-3.7353,-3.7777,-3.7777,-3.6988,-3.6596,-3.6596,-3.6596,-3.6212,-3.5519,-3.625,-3.6192,-3.55,-3.55,-3.55,-3.55,-3.55,-3.55,-3.55,-3.55,-3.55,-3.55,-3.55,-3.55,-3.55,-3.55,-3.55,-3.55,-3.55,-3.55,-3.55,-3.55,-3.55,-3.55,-3.55,-3.55,-3.5481,-3.5404,-3.5385,-3.5365,-3.5288,-3.4045,-3.3103,-3.3821,-3.2776,-3.1679,-3.1602,-3.0791,-3.0122,-3.0089,-2.984,-2.9644,-2.9608,-2.9492,-2.9409,-2.9407,-2.9396,-2.9376,-2.9323,-2.9302,-2.9262,-2.9218,-2.9134,-2.9074,-2.9005,-2.9005,-2.9005,-2.9005,-2.9005,-2.9005,-2.9005,-2.9005,-2.9005,-2.9005,-2.9005,-2.9005,-2.9005,-2.9005,-2.9005,-2.5308,-2.5308,-2.5308,-2.5308,-2.5308,-2.5308,-2.5308,0.0,-2.5788,-2.7544,-2.7486,-2.7794,-2.9981,-2.9967,-2.991,-3.0769,-3.1192,-3.1981,-3.3699,-3.4391,-3.5026,-3.5885,-3.6115,-3.6038,-3.5558,-3.55,-3.55,-3.55,-3.5942,-3.6212,-3.6212,-3.6519,-3.6692,-3.6692,-3.7546,-3.8007,-3.8007,-3.7142,-3.6962,-3.7469,-3.6462,-3.6346,-3.7007,-3.6788,-3.6519,-3.6212,-3.6212,-3.5942,-3.55,-3.55,-3.55,-3.55,-3.55,-3.55,-3.55,-3.55,-3.55,-3.55,-3.55,-3.55,-3.55,-3.55,-3.55,-3.55,-3.55,-3.55,-3.55,-3.55,-3.55,-3.55,-3.55,-3.55,-3.55,-3.55,-3.4962,-3.443,-3.4244,-3.3686,-3.2872,-3.173,-3.1171,-3.065,-2.9926,-2.9688,-2.9561,-2.9482,-2.944,-2.9396,-2.9396,-2.9365,-2.9334,-2.9302,-2.9262,-2.9218,-2.9152,-2.9085,-2.904,-2.9005,-2.9005,-2.9005,-2.9005,-2.9005,-2.9005,-2.9005,-2.9005,-2.9005,-2.9005,-2.9005,-2.9005,-2.9005,-2.9005,-2.9005,-2.5308,-2.5308,-2.5308,-2.5308,-2.5308,-2.5365,0.0,-2.5673,-2.6173,-2.789,-2.7775,-2.7967,-3.0019,-2.991,-2.9698,-3.0308,-3.0827,-3.1731,-3.343,-3.4391,-3.5353,-3.6488,-3.6673,-3.6481,-3.5904,-3.5635,-3.55,-3.55,-3.6019,-3.6442,-3.6692,-3.6942,-3.7199,-3.7469,-3.8296,-3.8738,-3.8738,-3.7892,-3.7777,-3.8373,-3.7199,-3.7103,-3.7988,-3.7623,-3.7199,-3.6692,-3.6692,-3.6231,-3.55,-3.55,-3.55,-3.55,-3.55,-3.55,-3.55,-3.55,-3.55,-3.55,-3.55,-3.55,-3.55,-3.55,-3.55,-3.55,-3.55,-3.55,-3.55,-3.55,-3.55,-3.55,-3.55,-3.55,-3.55,-3.55,-3.55,-3.5327,-3.4718,-3.4379,-3.38,-3.2407,-3.1894,-3.1407,-3.0509,-3.0282,-3.0212,-3.0124,-2.9898,-2.975,-2.9728,-2.9482,-2.9272,-2.9259,-2.9207,-2.9145,-2.9089,-2.9051,-2.9005,-2.9005,-2.9005,-2.9005,-2.9005,-2.9005,-2.9005,-2.9005,-2.9005,-2.9005,-2.9005,-2.9005,-2.9005,-2.9005,-2.9244,-2.9482,-2.5308,-2.5308,-2.5308,-2.5308,-2.5308,-2.5538,-2.639,-2.6582,-2.7063,-2.8742,-2.9088,-2.9357,-3.0231,-3.0385,-3.0385,-3.0404,-3.1795,-3.3487,-3.5231,-3.6173,-3.7315,-3.9053,-3.7757,-3.6692,-3.6692,-3.5962,-3.55,-3.55,-3.5519,-3.5865,-3.6654,-3.7526,-3.8373,-3.9246,-4.0054,-4.0477,-4.0477,-3.9688,-3.9284,-3.9284,-3.9265,-3.8815,-3.8027,-3.8873,-3.8334,-3.6692,-3.6692,-3.6231,-3.55,-3.55,-3.55,-3.55,-3.55,-3.55,-3.55,-3.55,-3.55,-3.55,-3.55,-3.55,-3.55,-3.55,-3.55,-3.55,-3.55,-3.55,-3.55,-3.55,-3.55,-3.55,-3.55,-3.55,-3.55,-3.55,-3.55,-3.55,-3.5481,-3.4814,-3.4139,-3.3922,-3.3067,-3.2316,-3.2115,-3.1918,-3.1775,-3.1775,-3.1106,-3.0564,-3.0498,-2.9783,-2.924,-2.9119,-2.9089,-2.9089,-2.9089,-2.9051,-2.9005,-2.9005,-2.9005,-2.9005,-2.9005,-2.9005,-2.9005,-2.9005,-2.9005,-2.9005,-2.9005,-2.9005,-2.9005,-2.9023,-2.9824,-3.0613,-2.5308,-2.5308,-2.5308,-2.5308,-2.575,-2.625,-2.6544,-2.6601,-2.7082,-2.8742,-2.8665,-2.8717,-3.0135,-3.0404,-3.0788,-3.1929,-3.2545,0.0,-3.6,-3.7046,0.0,-3.7526,-3.6538,-3.5885,-3.5885,-3.5654,-3.55,-3.55,-3.6,-3.6692,-3.7546,-3.7853,-3.8123,-3.8392,-3.9246,-3.9688,-3.9688,-3.8834,-3.8988,-4.0112,-3.895,-3.8873,-3.9708,-3.9419,-3.8996,-3.843,-3.7853,-3.7103,-3.6269,-3.5731,-3.55,-3.55,-3.55,-3.55,-3.55,-3.55,-3.55,-3.55,-3.55,-3.55,-3.55,-3.55,-3.55,-3.55,-3.55,-3.55,-3.55,-3.55,-3.55,-3.55,-3.55,-3.55,-3.55,-3.55,-3.55,-3.55,-3.55,-3.5172,-3.4649,-3.3855,-3.3337,-3.2784,-3.203,-3.1838,-3.1794,-3.1794,-3.1589,-3.1195,-3.0572,-3.0231,-2.9817,-2.9174,-2.9062,-2.904,-2.904,-2.9017,-2.9005,-2.9005,-2.9005,-2.9005,-2.9005,-2.9005,-2.9005,-2.9005,-2.9005,-2.9005,-2.9005,-2.9005,-2.9168,-2.9481,-3.008,-3.047,-2.5308,-2.5308,-2.5308,-2.5308,-2.5712,-2.6192,-2.6524,-2.6601,-2.7082,-2.8742,-2.8703,-2.8775,-3.0154,-3.0404,-3.0731,-3.1795,-3.2487,-3.368,-3.5923,-3.7257,-3.7796,-3.7257,-3.6462,-3.5827,-3.5538,-3.55,-3.55,-3.55,-3.5962,-3.6615,-3.7469,-3.7815,-3.8007,-3.8007,-3.8854,-3.9457,-3.9746,-3.92,-3.9477,-4.0496,-3.9438,-3.9496,-4.0477,-3.9977,-3.9592,-3.9265,-3.8719,-3.7815,0.0,-3.6154,-3.5769,-3.55,-3.55,-3.55,-3.55,-3.55,-3.55,-3.55,-3.55,-3.55,-3.55,-3.55,-3.55,-3.55,-3.55,-3.55,-3.55,-3.55,-3.55,-3.55,-3.55,-3.55,-3.55,-3.55,-3.55,-3.55,-3.55,-3.5339,-3.4988,-3.4234,-3.3939,-3.3561,-3.2832,-3.2704,-3.2704,-3.2704,-3.2462,-3.2038,-3.1446,-3.0801,-3.0293,-3.0005,-2.9395,-2.9115,-2.9427,-2.917,-2.9005,-2.9005,-2.9005,-2.9005,-2.9005,-2.9005,-2.9005,-2.9005,-2.9299,-2.9299,-2.9005,-2.9005,-2.9424,-3.0174,-2.9862,-2.9991,0.0,-2.5308,-2.5308,-2.5308,-2.5346,-2.5596,-2.6428,-2.6659,0.0,-2.878,-2.9107,-2.9396,-3.0327,-3.05,-3.0558,-3.0731,-3.2058,-3.3699,-3.5423,-3.6969,-3.7911,-3.7911,-3.7142,-3.6327,-3.5577,-3.55,-3.55,-3.55,-3.55,-3.5846,-3.6654,-3.7411,-3.7911,-3.8084,-3.8815,-3.9611,-4.0419,-4.0419,-4.0439,-4.0496,-4.0496,-4.0496,-4.0496,-4.0496,-4.0092,-3.9381,-3.9265,-3.8296,-3.6769,-3.6654,-3.6173,-3.55,-3.55,-3.55,-3.55,-3.55,-3.55,-3.55,-3.55,-3.55,-3.55,-3.55,-3.55,-3.55,-3.55,-3.55,-3.55,-3.55,-3.55,-3.55,-3.55,-3.55,-3.55,-3.55,-3.55,-3.55,-3.55,-3.5339,-3.5132,-3.4945,-3.474,-3.4517,-3.4245,-3.4197,-3.4197,-3.4197,-3.3566,-3.3017,-3.281,-3.1498,-3.0787,-3.1336,-3.0063,-2.9464,-3.0228,-2.9537,-2.906,-2.9005,-2.906,-2.906,-2.9005,-2.9005,-2.9023,-2.9078,-2.9879,-2.9886,-2.9097,-2.9129,-2.9777,-3.0971,-2.9432,-2.935,-2.5308,0.0,-2.5308,-2.5308,-2.5808,-2.6351,0.0,-2.7121,-2.7876,-2.8896,0.0,-2.9569,-3.1121,-3.1385,-3.2019,-3.3981,-3.4635,-3.5481,-3.718,-3.718,-3.7,-3.7,-3.6269,-3.5712,-3.5519,-3.55,-3.55,-3.55,-3.55,-3.5846,-3.6654,-3.6308,-3.6988,-3.8931,-3.8546,-3.8719,-3.9573,-3.9573,-3.99,-4.0496,-4.0496,-4.0496,-4.0496,-4.0496,-4.04,-4.015,-3.8854,-3.8065,-3.7603,-3.6308,-3.5673,-3.55,-3.55,-3.55,-3.55,-3.55,-3.55,-3.55,-3.55,-3.55,-3.55,-3.55,-3.55,-3.55,-3.55,-3.55,-3.55,-3.55,-3.55,-3.55,-3.55,-3.55,-3.55,-3.55,-3.55,-3.55,-3.55,-3.5339,-3.5132,-3.4945,-3.474,-3.4517,-3.4245,-3.4197,-3.4197,-3.4197,-3.3994,-3.3599,-3.2884,-3.2416,-3.1949,-3.1452,-3.1054,-3.0907,-3.1103,-3.0375,-2.9647,-2.9042,-2.9574,-2.9629,-2.9023,-2.9005,-2.9299,-2.9916,-3.0705,-3.0723,-2.9922,-3.0285,-3.0613,-3.0903,-3.0057,-3.0156,-2.5692,-2.5904,-2.5904,-2.5904,-2.625,-2.6697,-2.7101,0.0,0.0,0.0,0.0,-2.9511,-3.0871,-3.1429,-3.216,-3.3519,-3.441,-3.5488,-3.718,-3.7,-3.6692,-3.6692,-3.5981,-3.55,-3.55,-3.55,-3.55,-3.55,-3.55,-3.5692,-3.6135,-3.6096,-3.6873,-3.8642,-3.8623,-3.8988,-3.9842,-3.9842,-4.0073,-4.0496,-4.0496,-4.0496,-4.0496,-4.0496,-4.0496,-4.0439,-3.915,-3.8604,-3.845,-3.675,-3.6058,-3.6,-3.5635,-3.55,-3.55,-3.55,-3.55,-3.55,-3.55,-3.55,-3.55,-3.55,-3.55,-3.55,-3.55,-3.55,-3.55,-3.55,-3.55,-3.55,-3.55,-3.55,-3.55,-3.55,-3.55,-3.55,-3.55,-3.5339,-3.5132,-3.4945,-3.474,-3.4517,-3.4245,-3.4197,-3.4197,-3.4197,-3.4148,-3.3907,-3.342,-3.2975,-3.2654,-3.2517,-3.1843,-3.1562,-3.1916,-3.1549,-3.095,-3.0155,-3.0173,-3.0008,-2.9574,-2.9537,-3.0087,-3.1292,-3.1208,-3.1326,-3.1618,-3.0785,-3.0436,-3.0472,-2.9923,-2.9765,-2.6178,-2.6794,-2.6928,-2.6659,-2.6697,-2.6986,-2.7736,0.0,0.0,0.0,0.0,0.0,-3.0442,-3.1288,0.0,-3.2237,-3.3564,-3.5026,-3.6327,-3.6519,-3.6519,-3.6519,-3.5923,-3.55,-3.55,-3.55,-3.55,-3.55,-3.5479,-3.5446,-3.5446,-3.6058,-3.6876,-3.7855,-3.8612,-3.9437,-4.0378,-4.0454,-4.0496,-4.0496,-4.0496,-4.0496,-4.0496,-4.0496,-4.0496,-4.0458,-3.9515,-3.9111,-3.8977,-3.7238,-3.6519,-3.6462,-3.5904,-3.5615,-3.5519,-3.5635,-3.5615,-3.55,-3.55,-3.55,-3.55,-3.55,-3.55,-3.55,-3.55,-3.55,-3.55,-3.55,-3.55,-3.55,-3.55,-3.55,-3.55,-3.55,-3.55,-3.55,-3.55,-3.5339,-3.5132,-3.4945,-3.474,-3.4517,-3.4245,-3.4197,-3.4197,-3.4185,-3.4124,-3.4061,-3.3998,-3.3331,-3.3119,-3.3733,-3.2577,-3.2045,-3.2729,-3.2784,-3.2504,-3.1806,-3.0962,-3.0363,-3.007,-3.0179,-3.0892,-3.2245,-3.1569,-3.1809,-3.3033,-3.1042,-3.0127,-3.0237,-2.9656,-2.9193,-2.6332,-2.764,-2.8376,-2.6948,-2.7159,-2.7741,-2.7876,0.0,0.0,0.0,0.0,0.0,0.0,-3.2179,-3.3199,-3.4673,-3.5692,-3.6173,-3.5731,-3.5673,-3.5673,-3.5673,-3.5577,-3.55,-3.55,-3.55,-3.55,-3.55,-3.5339,-3.5242,-3.5242,-3.5204,-3.5856,-3.7357,-3.7547,-3.8345,-3.9884,-4.0311,-4.0496,-4.0496,-4.0496,-4.0496,-4.0496,-4.0496,-4.0496,-4.0419,-3.8873,-3.82,-3.8065,-3.6385,-3.5673,-3.5731,-3.6308,-3.6096,-3.5577,-3.625,-3.6077,-3.55,-3.55,-3.55,-3.55,-3.55,-3.55,-3.55,-3.55,-3.55,-3.55,-3.55,-3.55,-3.55,-3.55,-3.55,-3.55,-3.55,-3.55,-3.55,-3.55,-3.5339,-3.5132,-3.4945,-3.474,-3.4517,-3.4245,-3.4197,-3.4185,-3.4124,-3.4061,-3.3985,-3.3921,-3.3763,-3.3673,-3.3788,-3.3587,-3.3476,-3.3605,-3.3623,-3.3568,-3.344,-3.2425,-3.1092,-2.9496,-3.0087,-3.0571,-3.0819,-3.1923,-3.2288,-3.1862,-3.1505,-3.1334,-3.1315,-3.0353,-3.021,-2.5673,-2.7467,-2.8819,-2.7601,-2.7934,-2.88,-2.9737,0.0,0.0,0.0,0.0,0.0,0.0,0.0,-3.3468,-3.5212,-3.5808,-3.5923,-3.5558,-3.55,-3.55,-3.55,-3.55,-3.55,-3.55,-3.55,-3.55,-3.55,-3.5316,-3.5209,-3.5209,-3.5019,-3.5438,-3.6604,-3.7068,-3.7912,-3.9136,-3.9804,-4.012,-4.012,-4.0389,-4.0449,-4.0339,-4.0457,-4.0496,-4.0419,-3.8719,-3.8507,-3.9181,-3.7026,-3.6692,-3.7507,-3.6923,-3.6462,-3.6135,-3.6077,-3.5827,-3.55,-3.55,-3.55,-3.55,-3.55,-3.55,-3.55,-3.55,-3.55,-3.55,-3.55,-3.55,-3.55,-3.55,-3.55,-3.55,-3.55,-3.55,-3.55,-3.55,-3.5339,-3.5132,-3.4945,-3.474,-3.4517,-3.4245,-3.4197,-3.4173,-3.4111,-3.4049,-3.3972,-3.3908,-3.3829,-3.3807,-3.3807,-3.3807,-3.3807,-3.3807,-3.3807,-3.3538,-3.2917,-3.2395,-3.1459,-3.0011,-3.051,-3.0936,-3.1151,-3.2051,-3.236,-3.199,-3.1584,-3.1292,-3.111,-3.0775,-3.0745,-2.5135,-2.7159,-2.8915,-2.8107,0.0,-2.9569,-3.1295,-3.1019,0.0,0.0,0.0,0.0,0.0,-3.2526,-3.3641,-3.4981,-3.5519,-3.5712,-3.5538,-3.55,-3.55,-3.55,-3.55,-3.55,-3.55,-3.5472,-3.5432,-3.5432,-3.5209,-3.5063,-3.5063,-3.486,-3.5111,-3.5933,-3.6564,-3.7281,-3.8153,-3.882,-3.9261,-3.9524,-3.9879,-3.9884,-3.9538,-3.9691,-3.9778,-3.972,-3.8458,-3.8654,-3.9692,-3.7781,-3.7796,-3.8854,-3.7526,-3.6885,-3.6596,-3.5808,-3.55,-3.55,-3.55,-3.55,-3.55,-3.55,-3.55,-3.55,-3.55,-3.55,-3.55,-3.55,-3.55,-3.55,-3.55,-3.55,-3.55,-3.55,-3.55,-3.5493,-3.5439,-3.5266,-3.5072,-3.4879,-3.4639,-3.445,-3.4233,-3.4185,-3.4161,-3.4086,-3.4023,-3.3947,-3.3881,-3.3829,-3.3807,-3.3807,-3.3807,-3.3807,-3.3807,-3.3807,-3.3392,-3.2448,-3.2144,-3.158,-3.0601,-3.0827,-3.1143,-3.1468,-3.1949,-3.2179,-3.2179,-3.162,-3.1203,-3.0973,-3.122,-3.1203,-2.5288,-2.7159,-2.8915,-2.8107,-2.8492,0.0,-3.1295,-3.1019,0.0,-3.2487,0.0,0.0,0.0,-3.3026,-3.4148,-3.4263,-3.5603,-3.6346,-3.5615,-3.55,-3.55,-3.55,-3.55,-3.55,-3.55,-3.5331,-3.5226,-3.5226,-3.4851,-3.4636,-3.4636,-3.4397,-3.4648,-3.5516,-3.5609,-3.6006,-3.6838,-3.7084,-3.7701,-3.8691,-3.8722,-3.8334,-3.7593,-3.7613,-3.7623,-3.7633,-3.7686,-3.7793,-3.7898,-3.7909,-3.7988,-3.8084,-3.7969,-3.7411,-3.6596,-3.5808,-3.55,-3.55,-3.55,-3.55,-3.55,-3.55,-3.55,-3.55,-3.55,-3.55,-3.55,-3.55,-3.55,-3.55,-3.55,-3.55,-3.55,-3.55,-3.55,-3.5446,-3.5258,-3.5063,-3.4851,-3.4658,-3.4397,-3.4221,-3.4209,-3.4148,-3.4086,-3.4023,-3.3947,-3.3881,-3.382,-3.3788,-3.3807,-3.3807,-3.3807,-3.3807,-3.3807,-3.3807,-3.363,-3.323,-3.2293,-3.1416,-3.0716,-3.0698,-3.0732,-3.0767,-3.1458,-3.1837,-3.1837,-3.1768,-3.175,-3.1714,-3.175,-3.1732,-2.4024,-2.6755,-2.9583,-2.8236,-2.8492,0.0,0.0,-3.1833,-3.2295,-3.3468,-3.3705,0.0,0.0,-3.3853,-3.4834,-3.4282,-3.5199,-3.5846,-3.5538,-3.55,-3.55,-3.55,-3.55,-3.5446,-3.5331,-3.5242,-3.5141,-3.5028,-3.4761,-3.4612,-3.4612,-3.434,-3.4346,-3.468,-3.5231,-3.5659,-3.5956,-3.6522,-3.6764,-3.6684,-3.7486,-3.7606,-3.7165,-3.7323,-3.7403,-3.7403,-3.7443,-3.7757,-3.8261,-3.8328,-3.8661,-3.9023,-3.81,-3.7007,-3.5923,-3.5615,-3.55,-3.55,-3.55,-3.55,-3.55,-3.55,-3.55,-3.55,-3.55,-3.55,-3.55,-3.55,-3.55,-3.55,-3.55,-3.55,-3.55,-3.55,-3.55,-3.5439,-3.5242,-3.5046,-3.485,-3.4636,-3.4374,-3.4185,-3.4148,-3.4124,-3.4061,-3.3947,-3.3908,-3.3868,-3.382,-3.3807,-3.3807,-3.3807,-3.3807,-3.3807,-3.3807,-3.3807,-3.3666,-3.3321,-3.2913,-3.2186,-3.1062,-3.1446,-3.1394,-3.0714,-3.142,-3.18,-3.18,-3.18,-3.18,-3.18,-3.18,-3.18,-2.3908,-2.6717,-2.9717,-2.8569,0.0,0.0,-3.1371,-3.191,-3.2506,-3.3917,-3.3975,-3.368,-3.3372,-3.4064,-3.4564,-3.4244,-3.493,-3.55,-3.55,-3.55,-3.5486,-3.5417,-3.541,-3.5331,-3.5124,-3.5054,-3.4945,-3.4821,-3.4604,-3.4473,-3.4473,-3.4293,-3.4197,-3.4197,-3.4773,-3.5101,-3.5101,-3.5627,-3.5627,-3.5101,-3.5965,-3.6287,-3.6117,-3.6316,-3.6392,-3.6421,-3.669,-3.7308,-3.8113,-3.8469,-3.8755,-3.889,-3.768,-3.6471,-3.5417,-3.5486,-3.55,-3.55,-3.55,-3.55,-3.55,-3.55,-3.55,-3.55,-3.55,-3.55,-3.55,-3.55,-3.55,-3.55,-3.55,-3.55,-3.55,-3.55,-3.5446,-3.5346,-3.5141,-3.4955,-3.4751,-3.4528,-3.4328,-3.4185,-3.4136,-3.4099,-3.4036,-3.3947,-3.3895,-3.3842,-3.382,-3.3807,-3.3807,-3.3807,-3.3807,-3.3807,-3.3807,-3.3807,-3.3707,-3.3465,-3.3451,-3.2934,-3.1744,-3.2088,-3.1934,-3.122,-3.1614,-3.18,-3.18,-3.18,-3.18,-3.18,-3.1763,-3.1746,-2.5288,-2.7159,-2.9107,0.0,0.0,0.0,-3.1487,-3.1019,-3.1135,-3.3686,-3.3506,-3.3179,-3.4052,-3.3506,-3.3199,-3.4071,-3.493,-3.55,-3.55,-3.55,-3.5424,-3.5226,-3.5209,-3.5115,-3.4927,-3.472,-3.4602,-3.4602,-3.434,-3.4197,-3.4197,-3.4197,-3.4197,-3.4197,-3.4197,-3.4197,-3.4197,-3.4197,-3.4197,-3.4197,-3.4197,-3.4197,-3.4197,-3.4197,-3.4197,-3.4258,-3.5342,-3.6269,-3.7088,-3.8161,-3.8083,-3.724,-3.664,-3.5916,-3.5226,-3.5424,-3.55,-3.55,-3.55,-3.55,-3.55,-3.55,-3.55,-3.55,-3.55,-3.55,-3.55,-3.55,-3.55,-3.55,-3.55,-3.55,-3.55,-3.55,-3.5346,-3.5132,-3.4945,-3.474,-3.4517,-3.4257,-3.4197,-3.4197,-3.4197,-3.4086,-3.3998,-3.3998,-3.3881,-3.3807,-3.3807,-3.3807,-3.3807,-3.3807,-3.3807,-3.3807,-3.3807,-3.3807,-3.3807,-3.3807,-3.3807,-3.3508,-3.2827,-3.2487,-3.2318,-3.2301,-3.1966,-3.18,-3.18,-3.18,-3.18,-3.18,-3.1671,-3.1671,-2.4779,-2.6722,0.0,-2.8396,0.0,0.0,0.0,-3.15,0.0,0.0,-3.3994,-3.3898,-3.4148,-3.4487,-3.4622,-3.4263,-3.493,-3.55,-3.55,-3.55,-3.5424,-3.5226,-3.5209,-3.5063,-3.472,-3.4645,-3.4506,-3.4269,-3.4221,-3.4185,-3.4136,-3.4173,-3.4197,-3.4197,-3.4197,-3.4197,-3.4197,-3.4197,-3.4197,-3.4197,-3.4197,-3.4197,-3.4197,-3.4197,-3.4197,-3.4284,-3.5783,-3.6566,-3.6901,-3.8358,-3.8221,-3.7069,-3.689,-3.651,-3.5976,-3.5487,-3.5369,-3.55,-3.55,-3.55,-3.55,-3.55,-3.55,-3.55,-3.55,-3.55,-3.55,-3.55,-3.55,-3.55,-3.55,-3.55,-3.5453,-3.5324,-3.5151,-3.4926,-3.473,-3.4636,-3.4517,-3.4257,-3.4197,-3.4173,-3.4074,-3.4023,-3.3972,-3.3868,-3.3834,-3.3807,-3.3807,-3.3807,-3.3807,-3.3807,-3.3807,-3.3807,-3.3807,-3.3807,-3.3807,-3.3807,-3.3807,-3.3611,-3.3169,-3.3047,-3.2781,-3.2318,-3.2197,-3.2037,-3.18,-3.18,-3.1746,-3.1671,-3.1617,-3.1596,-2.6183,-2.7818,0.0,-2.9448,-3.0179,-3.0923,-3.0923,0.0,0.0,0.0,-3.3449,-3.3801,-3.4148,-3.4622,-3.493,-3.4757,-3.5154,-3.55,-3.55,-3.5432,-3.5316,-3.5107,-3.5001,-3.4773,-3.445,-3.4393,-3.4281,-3.4074,-3.4124,-3.4148,-3.4099,-3.4161,-3.4197,-3.4197,-3.4197,-3.4197,-3.4197,-3.4197,-3.4197,-3.4197,-3.4197,-3.4197,-3.4197,-3.4197,-3.4197,-3.4271,-3.564,-3.6216,-3.6309,-3.7262,-3.7167,-3.6383,-3.6152,-3.5899,-3.5647,-3.5217,-3.5209,-3.5376,-3.5376,-3.5432,-3.55,-3.55,-3.55,-3.55,-3.55,-3.55,-3.55,-3.55,-3.55,-3.55,-3.55,-3.5439,-3.5346,-3.5234,-3.5046,-3.4831,-3.4636,-3.4517,-3.4386,-3.4233,-3.4197,-3.4173,-3.4061,-3.4023,-3.3959,-3.3873,-3.382,-3.3807,-3.3807,-3.3807,-3.3807,-3.3807,-3.3807,-3.3807,-3.3807,-3.3807,-3.3807,-3.3807,-3.3807,-3.3707,-3.3508,-3.3243,-3.2844,-3.2318,-3.2179,-3.1984,-3.18,-3.18,-3.1727,-3.1598,-3.1578,-3.1538,-2.8588,-2.9621,0.0,-3.1275,-3.1525,0.0,-3.1583,-3.1583,-3.1602,-3.1679,-3.2275,-3.3083,-3.4032,-3.4205,-3.4487,-3.5365,-3.55,-3.5493,-3.5479,-3.5324,-3.5115,-3.4879,-3.4658,-3.4386,-3.4124,-3.4036,-3.3998,-3.3985,-3.4049,-3.4086,-3.4086,-3.4161,-3.4197,-3.4197,-3.4197,-3.4197,-3.4197,-3.4197,-3.4197,-3.4197,-3.4197,-3.4197,-3.4197,-3.4197,-3.4234,-3.4364,-3.5157,-3.551,-3.551,-3.5584,-3.5566,-3.5461,-3.4903,-3.4685,-3.4728,-3.483,-3.501,-3.5166,-3.5166,-3.5281,-3.5446,-3.5479,-3.546,-3.5479,-3.5493,-3.55,-3.55,-3.55,-3.55,-3.55,-3.55,-3.5361,-3.5226,-3.5209,-3.5037,-3.4831,-3.4636,-3.4386,-3.4197,-3.4197,-3.4197,-3.4185,-3.4111,-3.4049,-3.3972,-3.3895,-3.3829,-3.3807,-3.3807,-3.3807,-3.3807,-3.3807,-3.3807,-3.3807,-3.3807,-3.3807,-3.3807,-3.3807,-3.3762,-3.3734,-3.3707,-3.3151,-3.2684,-3.2352,-3.202,-3.1819,-3.18,-3.18,-3.1727,-3.1598,-3.1519,-3.1498,-2.8068,-2.8761,0.0,0.0,-3.0179,-3.0673,-3.0673,-3.0673,-3.0865,-3.1564,-3.1833,-3.2429,-3.3917,-3.4205,-3.4487,-3.5365,-3.55,-3.5439,-3.53,-3.5226,-3.5054,-3.4628,-3.4539,-3.4363,-3.4049,-3.4011,-3.3972,-3.3921,-3.3985,-3.4023,-3.4023,-3.4086,-3.4148,-3.4197,-3.4197,-3.4197,-3.4197,-3.4197,-3.4197,-3.4197,-3.4197,-3.4197,-3.4197,-3.4197,-3.4581,-3.5231,-3.5417,-3.551,-3.5547,-3.6179,-3.6067,-3.5491,-3.5367,-3.5406,-3.5465,-3.4881,-3.4801,-3.4954,-3.4954,-3.5001,-3.5054,-3.5218,-3.5258,-3.5281,-3.5446,-3.55,-3.55,-3.55,-3.55,-3.55,-3.55,-3.5479,-3.5403,-3.5234,-3.4936,-3.4647,-3.4623,-3.4386,-3.4197,-3.4197,-3.4197,-3.4185,-3.4111,-3.4049,-3.3959,-3.3829,-3.382,-3.3807,-3.3807,-3.3807,-3.3807,-3.3807,-3.3807,-3.3807,-3.3807,-3.3807,-3.3807,-3.3807,-3.355,-3.3288,-3.3029,-3.3139,-3.3032,-3.27,-3.2369,-3.2055,-3.18,-3.18,-3.1727,-3.1598,-3.1519,-3.1443,-2.8472,0.0,0.0,-2.9717,0.0,-3.0404,-3.0404,-3.0404,-3.0538,-3.0981,-3.141,-3.1968,-3.2833,-3.3314,-3.3737,-3.418,-3.4603,-3.4798,-3.4603,-3.4831,-3.4889,-3.455,-3.4328,-3.4148,-3.3972,-3.3921,-3.3881,-3.3842,-3.3908,-3.3972,-3.3998,-3.4061,-3.4136,-3.4197,-3.4197,-3.4197,-3.4197,-3.4197,-3.4197,-3.4197,-3.4197,-3.4197,-3.4197,-3.4197,-3.4439,-3.4878,-3.4878,-3.4878,-3.4915,-3.533,-3.5268,-3.4878,-3.4878,-3.4933,-3.4976,-3.4565,-3.4572,-3.4761,-3.4761,-3.4831,-3.4927,-3.5028,-3.5054,-3.5089,-3.5308,-3.5354,-3.5354,-3.5354,-3.5354,-3.5354,-3.5354,-3.5354,-3.5331,-3.5226,-3.4973,-3.472,-3.4615,-3.4386,-3.4197,-3.4197,-3.4197,-3.4173,-3.4074,-3.3972,-3.3868,-3.382,-3.3807,-3.3807,-3.3807,-3.3807,-3.3807,-3.3807,-3.3807,-3.3807,-3.3807,-3.3652,-3.355,-3.355,-3.3243,-3.2968,-3.2811,-3.2813,-3.2651,-3.2335,-3.2144,-3.1966,-3.18,-3.18,-3.1709,-3.1557,-3.1517,-3.1404,-2.9107,0.0,-3.0212,-3.0365,-3.0404,0.0,-3.0404,-3.0404,-3.0404,-3.0404,-3.0962,-3.1525,-3.1679,-3.2237,-3.2737,-3.2872,-3.3506,-3.3953,-3.3856,-3.4281,-3.4542,-3.4443,-3.4111,-3.3895,-3.3881,-3.3829,-3.3807,-3.3807,-3.3842,-3.3908,-3.3998,-3.4049,-3.4124,-3.4197,-3.4197,-3.4197,-3.4197,-3.4197,-3.4197,-3.4197,-3.4197,-3.4197,-3.4197,-3.4197,-3.4197,-3.4197,-3.4197,-3.4197,-3.4197,-3.4197,-3.4197,-3.4197,-3.4197,-3.4197,-3.4197,-3.4197,-3.434,-3.4528,-3.4528,-3.4628,-3.4792,-3.4821,-3.486,-3.4898,-3.5089,-3.5141,-3.5141,-3.5141,-3.5141,-3.5141,-3.5141,-3.5141,-3.5141,-3.5141,-3.4982,-3.4811,-3.4645,-3.4386,-3.4197,-3.4197,-3.4185,-3.4148,-3.4023,-3.3895,-3.3802,-3.3788,-3.3807,-3.3807,-3.3807,-3.3807,-3.3807,-3.3807,-3.3807,-3.3807,-3.3807,-3.3494,-3.3306,-3.3306,-3.2939,-3.2699,-3.2699,-3.2386,-3.2073,-3.1818,-3.18,-3.18,-3.18,-3.18,-3.1707,-3.1555,-3.1517,-3.1421,0.0,0.0,-2.9448,0.0,-3.0404,-3.0404,0.0,0.0,-3.0404,-3.0404,-3.05,-3.0808,-3.1564,-3.1795,-3.2083,-3.2795,-3.3006,-3.3214,-3.3587,-3.3658,-3.3771,-3.4031,-3.3972,-3.3868,-3.3815,-3.382,-3.3807,-3.3807,-3.382,-3.3855,-3.3998,-3.4011,-3.4074,-3.4197,-3.4197,-3.4197,-3.4197,-3.4197,-3.4197,-3.4197,-3.4197,-3.4197,-3.4197,-3.4197,-3.4197,-3.4197,-3.4197,-3.4197,-3.4197,-3.4197,-3.4197,-3.4197,-3.4197,-3.4197,-3.4197,-3.4197,-3.4221,-3.4257,-3.4257,-3.4269,-3.4321,-3.4572,-3.4636,-3.4678,-3.4889,-3.4945,-3.4945,-3.4945,-3.4945,-3.4945,-3.4945,-3.4945,-3.4945,-3.4945,-3.4791,-3.4626,-3.4612,-3.4386,-3.4197,-3.4197,-3.4161,-3.4086,-3.4011,-3.3934,-3.3855,-3.382,-3.3807,-3.3807,-3.3807,-3.3807,-3.3807,-3.3807,-3.3807,-3.3807,-3.3807,-3.3494,-3.3306,-3.3306,-3.27,-3.2369,-3.2369,-3.2037,-3.1855,-3.18,-3.18,-3.18,-3.18,-3.18,-3.1781,-3.1763,-3.1593,-3.1498,-2.9704,-2.9833,-2.9929,0.0,-3.0404,-3.0404,-3.0404,-3.0404,-3.0404,-3.0404,-3.0404,-3.0519,-3.0904,-3.0962,-3.1096,-3.1442,-3.191,-3.221,-3.2195,-3.2921,-3.3419,-3.334,-3.3618,-3.3829,-3.3788,-3.3807,-3.3807,-3.3807,-3.3807,-3.3855,-3.3998,-3.3998,-3.4061,-3.4197,-3.4197,-3.4197,-3.4197,-3.4197,-3.4197,-3.4197,-3.4197,-3.4197,-3.4197,-3.4197,-3.4197,-3.4197,-3.4197,-3.4197,-3.4197,-3.4197,-3.4197,-3.4197,-3.4197,-3.4197,-3.4197,-3.4197,-3.4197,-3.4197,-3.4197,-3.4197,-3.4221,-3.4328,-3.4393,-3.442,-3.4668,-3.473,-3.473,-3.473,-3.473,-3.473,-3.473,-3.473,-3.473,-3.473,-3.4658,-3.455,-3.4416,-3.4281,-3.4197,-3.4197,-3.4124,-3.4036,-3.4011,-3.3908,-3.3829,-3.3788,-3.3807,-3.3807,-3.3807,-3.3807,-3.3807,-3.3807,-3.3807,-3.3807,-3.3807,-3.3494,-3.3214,-3.3032,-3.257,-3.2232,-3.202,-3.1874,-3.18,-3.18,-3.18,-3.18,-3.18,-3.18,-3.1746,-3.169,-3.1557,-3.1462,0.0,0.0,-2.9923,-3.0577,-3.0731,-3.0731,0.0,-3.0731,-3.0673,-3.0442,-3.0404,-3.0404,-3.0404,-3.0404,-3.0404,-3.0404,-3.0942,-3.1385,-3.1398,-3.2364,-3.3087,-3.3099,-3.3532,-3.3807,-3.3807,-3.3807,-3.3807,-3.3807,-3.3807,-3.3855,-3.3998,-3.3998,-3.4061,-3.4197,-3.4197,-3.4197,-3.4197,-3.4197,-3.4197,-3.4197,-3.4197,-3.4197,-3.4197,-3.4197,-3.4197,-3.4197,-3.4197,-3.4197,-3.4197,-3.4197,-3.4197,-3.4197,-3.4197,-3.4197,-3.4197,-3.4197,-3.4197,-3.4197,-3.4197,-3.4197,-3.4197,-3.4197,-3.4197,-3.4233,-3.4439,-3.4495,-3.4495,-3.4495,-3.4495,-3.4495,-3.4495,-3.4495,-3.4495,-3.4495,-3.4495,-3.445,-3.4245,-3.4197,-3.4197,-3.4197,-3.4099,-3.3998,-3.3998,-3.3881,-3.3807,-3.3807,-3.3807,-3.3807,-3.3807,-3.3807,-3.3807,-3.3807,-3.3807,-3.3807,-3.3807,-3.3494,-3.3184,-3.2937,-3.2519,-3.2197,-3.1947,-3.1855,-3.18,-3.18,-3.18,-3.18,-3.18,-3.18,-3.1746,-3.1653,-3.1538,-3.1443,0.0,-2.9236,0.0,-3.1025,-3.1641,-3.1641,-3.1641,-3.1641,-3.141,-3.0577,-3.0404,-3.0404,-3.0404,-3.0404,-3.0404,-3.0404,-3.0442,-3.0874,-3.2064,-3.2204,-3.2597,-3.3802,-3.3863,-3.3807,-3.3807,-3.3807,-3.3807,-3.3807,-3.3807,-3.3855,-3.3998,-3.3998,-3.4061,-3.4197,-3.4197,-3.4197,-3.4197,-3.4197,-3.4197,-3.4197,-3.4197,-3.4197,-3.4197,-3.4197,-3.4197,-3.4197,-3.4197,-3.4197,-3.4197,-3.4197,-3.4197,-3.4197,-3.4197,-3.4197,-3.4197,-3.4197,-3.4197,-3.4197,-3.4197,-3.4197,-3.4197,-3.4197,-3.4197,-3.4209,-3.4221,-3.4221,-3.4221,-3.4221,-3.4221,-3.4221,-3.4221,-3.4221,-3.4221,-3.4221,-3.4221,-3.4221,-3.4209,-3.4197,-3.4197,-3.4197,-3.4099,-3.3998,-3.3998,-3.3881,-3.3807,-3.3807,-3.3807,-3.3807,-3.3807,-3.3807,-3.3807,-3.3807,-3.3807,-3.3807,-3.3807,-3.3494,-3.3291,-3.3291,-3.2651,-3.2283,-3.2266,-3.1983,-3.18,-3.18,-3.18,-3.18,-3.18,-3.18,-3.18,-3.1781,-3.1593,-3.1498,0.0,0.0,0.0,-2.966,-3.0448,-3.0865,-3.0865,-3.1288,-3.1448,-3.0577,-3.0404,-3.0404,-3.0404,-3.0404,-3.0404,-3.0404,-3.0404,-3.0484,-3.0723,-3.1569,-3.2236,-3.2433,-3.3281,-3.386,-3.3788,-3.3807,-3.3807,-3.3807,-3.3807,-3.3829,-3.3934,-3.3972,-3.4049,-3.4136,-3.4173,-3.4197,-3.4197,-3.4197,-3.4197,-3.4197,-3.4197,-3.4197,-3.4197,-3.4197,-3.4197,-3.4197,-3.4197,-3.4197,-3.4197,-3.4197,-3.4197,-3.4197,-3.4197,-3.4197,-3.4197,-3.4197,-3.4197,-3.4197,-3.4197,-3.4197,-3.4197,-3.4197,-3.4197,-3.4197,-3.4197,-3.4197,-3.4197,-3.4197,-3.4197,-3.4197,-3.4197,-3.4197,-3.4197,-3.4197,-3.4197,-3.4197,-3.4197,-3.4197,-3.4197,-3.4197,-3.4124,-3.4049,-3.4011,-3.3921,-3.3842,-3.382,-3.3807,-3.3807,-3.3807,-3.3807,-3.3807,-3.3807,-3.3807,-3.3807,-3.3807,-3.3694,-3.3522,-3.3321,-3.2876,-3.2519,-3.2318,-3.1983,-3.18,-3.18,-3.18,-3.18,-3.18,-3.18,-3.18,-3.18,-3.1634,-3.1538,-2.7753,0.0,0.0,0.0,-2.9967,-3.0558,-3.1115,-3.1698,-3.1852,-3.1,-3.0846,-3.075,-3.0442,-3.0404,-3.0404,-3.0404,-3.0404,-3.0388,-3.0314,-3.1171,-3.1853,-3.1989,-3.2883,-3.3574,-3.3784,-3.3807,-3.3807,-3.3807,-3.3807,-3.3815,-3.3895,-3.3701,-3.3629,-3.3728,-3.4036,-3.4197,-3.4197,-3.4197,-3.4197,-3.4197,-3.4197,-3.4197,-3.4197,-3.4197,-3.4197,-3.4197,-3.4197,-3.4197,-3.4197,-3.4197,-3.4197,-3.4197,-3.4197,-3.4197,-3.4197,-3.4197,-3.4197,-3.4197,-3.4197,-3.4197,-3.4197,-3.4197,-3.4197,-3.4197,-3.4197,-3.4197,-3.4197,-3.4197,-3.4197,-3.4197,-3.4197,-3.4197,-3.4197,-3.4197,-3.4197,-3.4197,-3.4197,-3.4197,-3.4197,-3.4197,-3.4148,-3.4086,-3.4036,-3.3972,-3.3908,-3.3842,-3.3829,-3.3834,-3.3788,-3.3807,-3.3807,-3.3807,-3.3807,-3.3807,-3.3807,-3.3807,-3.3707,-3.348,-3.3063,-3.27,-3.2487,-3.2037,-3.18,-3.18,-3.18,-3.18,-3.18,-3.18,-3.18,-3.18,-3.1671,-3.154,0.0,0.0,0.0,0.0,-3.0308,-3.075,-3.241,-3.2795,-3.2583,-3.1852,-3.1679,-3.141,-3.0596,-3.0442,-3.0423,-3.0404,-3.0404,-3.0561,-3.1008,-3.1028,-3.1449,-3.2649,-3.2717,-3.3004,-3.3728,-3.3807,-3.3788,-3.377,-3.3788,-3.3797,-3.3839,-3.3166,-3.2859,-3.299,-3.377,-3.4197,-3.4197,-3.4197,-3.4197,-3.4197,-3.4197,-3.4197,-3.4197,-3.4197,-3.4197,-3.4197,-3.4197,-3.4197,-3.4197,-3.4197,-3.4197,-3.4197,-3.4197,-3.4197,-3.4197,-3.4197,-3.4197,-3.4197,-3.4197,-3.4197,-3.4197,-3.4197,-3.4197,-3.4197,-3.4197,-3.4197,-3.4197,-3.4197,-3.4197,-3.4197,-3.4197,-3.4197,-3.4197,-3.4197,-3.4197,-3.4197,-3.4197,-3.4197,-3.4197,-3.4197,-3.4148,-3.4099,-3.4099,-3.4049,-3.3985,-3.3908,-3.3895,-3.3868,-3.382,-3.3807,-3.3807,-3.3807,-3.3807,-3.3807,-3.3807,-3.3807,-3.3807,-3.3807,-3.3184,-3.2811,-3.2795,-3.2179,-3.1818,-3.18,-3.18,-3.18,-3.18,-3.18,-3.18,-3.18,-3.1671,-3.1504,-2.6145,0.0,0.0,0.0,0.0,0.0,-2.9915,-3.0146,-3.0454,-3.1487,-3.1192,-3.0885,-3.1269,-3.1346,-3.1135,-3.05,-3.0404,-3.0382,-3.0371,-3.0777,-3.1364,-3.2123,-3.2555,-3.3049,-3.3795,-3.3815,-3.3568,-3.2968,-3.3476,-3.3306,-3.2156,-3.2533,-3.2834,-3.2919,-3.3764,-3.4197,-3.4197,-3.4197,-3.4197,-3.4197,-3.4197,-3.4197,-3.4197,-3.4197,-3.4197,-3.4197,-3.4197,-3.4197,-3.4197,-3.4197,-3.4197,-3.4197,-3.4197,-3.4197,-3.4197,-3.4197,-3.4197,-3.4197,-3.4197,-3.4197,-3.4197,-3.4197,-3.4197,-3.4197,-3.4197,-3.4197,-3.4197,-3.4197,-3.4197,-3.4197,-3.4197,-3.4197,-3.4197,-3.4197,-3.4197,-3.4197,-3.4197,-3.4197,-3.4197,-3.4197,-3.4185,-3.4161,-3.4111,-3.4086,-3.4036,-3.3908,-3.3895,-3.3868,-3.382,-3.3807,-3.3807,-3.3807,-3.3807,-3.3807,-3.3807,-3.3807,-3.3807,-3.3807,-3.3408,-3.3063,-3.2811,-3.2386,-3.2037,-3.18,-3.18,-3.18,-3.18,-3.18,-3.18,-3.18,-3.1671,-3.1579,-2.6579,-2.679,0.0,-2.7563,0.0,0.0,-2.9833,-2.989,-3.0025,-3.1429,-3.1288,-3.1096,-3.1621,-3.1698,-3.1641,-3.1462,-3.1442,-3.1226,-3.059,-3.0853,-3.1421,-3.228,-3.2622,-3.3087,-3.3834,-3.3829,-3.3605,-3.3146,-3.322,-3.2755,-3.1513,-3.198,-3.2471,-3.2895,-3.3418,-3.3863,-3.4197,-3.4197,-3.4197,-3.4197,-3.4197,-3.4197,-3.4197,-3.4197,-3.4197,-3.4197,-3.4197,-3.4197,-3.4197,-3.4197,-3.4197,-3.4197,-3.4197,-3.4197,-3.4197,-3.4197,-3.4197,-3.4197,-3.4197,-3.4197,-3.4197,-3.4197,-3.4197,-3.4197,-3.4197,-3.4197,-3.4197,-3.4197,-3.4197,-3.4197,-3.4197,-3.4197,-3.4197,-3.4197,-3.4197,-3.4197,-3.4197,-3.4197,-3.4197,-3.4197,-3.4197,-3.4185,-3.4148,-3.4148,-3.4111,-3.3998,-3.3959,-3.3908,-3.3842,-3.382,-3.3807,-3.3807,-3.3807,-3.3807,-3.3807,-3.3807,-3.3807,-3.3807,-3.348,-3.3214,-3.3032,-3.2554,-3.2197,-3.2002,-3.1874,-3.18,-3.18,-3.18,-3.18,-3.18,-3.1727,-3.1635,-2.7939,-2.8049,0.0,-2.8703,-2.8492,0.0,-3.0679,-3.0602,-3.0371,-3.1237,-3.1333,-3.1333,-3.1525,-3.1641,-3.1872,-3.2391,-3.2718,-3.2537,-3.1445,-3.1267,-3.1676,-3.2843,-3.2883,-3.3099,-3.3847,-3.3842,-3.3765,-3.3678,-3.2926,-3.2223,-3.1661,-3.1697,-3.2083,-3.2864,-3.3047,-3.3473,-3.4179,-3.4197,-3.4197,-3.4197,-3.4197,-3.4197,-3.4197,-3.4197,-3.4197,-3.4197,-3.4197,-3.4197,-3.4197,-3.4197,-3.4197,-3.4197,-3.4197,-3.4197,-3.4197,-3.4197,-3.4197,-3.4197,-3.4197,-3.4197,-3.4197,-3.4197,-3.4197,-3.4197,-3.4197,-3.4197,-3.4197,-3.4197,-3.4197,-3.4197,-3.4197,-3.4197,-3.4197,-3.4197,-3.4197,-3.4197,-3.4197,-3.4197,-3.4197,-3.4197,-3.4197,-3.4197,-3.4197,-3.4197,-3.4173,-3.4111,-3.4049,-3.3985,-3.3908,-3.386,-3.382,-3.3807,-3.3807,-3.3807,-3.3807,-3.3807,-3.3807,-3.3807,-3.3522,-3.3335,-3.3306,-3.2684,-3.2335,-3.2301,-3.1966,-3.18,-3.18,-3.18,-3.18,-3.18,-3.18,-3.1744,-2.8093,-2.889,-2.9462,-2.7563,-2.8513,0.0,-2.7953,-2.8007,-2.8615,-2.944,-2.9088,-2.9044,-3.0404,-3.1231,-3.1295,-3.005,-3.1564,-3.2814,-3.2589,-3.2316,-3.2475,-3.3364,-3.3112,-3.3161,-3.3911,-3.3921,-3.3584,-3.2889,-3.2082,-3.1843,-3.237,-3.2502,-3.2631,-3.281,-3.3561,-3.403,-3.4197,-3.4197,-3.4197,-3.4197,-3.4197,-3.4197,-3.4197,-3.4197,-3.4197,-3.4197,-3.4197,-3.4197,-3.4197,-3.4197,-3.4197,-3.4197,-3.4197,-3.4197,-3.4197,-3.4197,-3.4197,-3.4197,-3.4197,-3.4197,-3.4197,-3.4197,-3.4197,-3.4197,-3.4197,-3.4197,-3.4197,-3.4197,-3.4197,-3.4197,-3.4197,-3.4197,-3.4197,-3.4197,-3.4197,-3.4197,-3.4197,-3.4197,-3.4197,-3.4197,-3.4197,-3.4197,-3.4197,-3.4197,-3.4173,-3.4111,-3.4086,-3.4036,-3.3908,-3.3881,-3.3855,-3.382,-3.3807,-3.3807,-3.3807,-3.3807,-3.3807,-3.3807,-3.3734,-3.3578,-3.3321,-3.2923,-3.2569,-3.2301,-3.1966,-3.18,-3.18,-3.18,-3.18,-3.18,-3.18,-3.18,-2.9275,-2.975,-3.0192,-2.9352,-2.9476,0.0,0.0,-2.8823,-2.8786,-2.9638,-2.9131,-2.8934,-3.0219,-3.0444,-3.0444,-3.0394,-3.1832,-3.2942,-3.2891,-3.3425,-3.4166,-3.5186,-3.5049,-3.4834,-3.4703,-3.4618,-3.4015,-3.2706,-3.2228,-3.2173,-3.2583,-3.2317,-3.2539,-3.337,-3.3506,-3.3764,-3.4197,-3.4197,-3.4197,-3.4197,-3.4197,-3.4197,-3.4197,-3.4197,-3.4197,-3.4197,-3.4197,-3.4197,-3.4197,-3.4197,-3.4197,-3.4197,-3.4197,-3.4197,-3.4197,-3.4197,-3.4197,-3.4197,-3.4197,-3.4197,-3.4197,-3.4197,-3.4197,-3.4197,-3.4197,-3.4197,-3.4197,-3.4197,-3.4197,-3.4197,-3.4197,-3.4197,-3.4197,-3.4197,-3.4197,-3.4197,-3.4197,-3.4197,-3.4197,-3.4197,-3.4197,-3.4197,-3.4197,-3.4197,-3.4185,-3.4161,-3.4124,-3.4074,-3.4011,-3.3934,-3.3881,-3.3842,-3.3815,-3.3807,-3.3807,-3.3807,-3.3807,-3.3807,-3.3807,-3.3721,-3.355,-3.3229,-3.2813,-3.2318,-3.1966,-3.18,-3.18,-3.18,-3.18,-3.18,-3.18,-3.18,-3.0404,-3.0519,-3.0731,-3.1102,-3.0568,-3.0109,0.0,0.0,0.0,-2.9713,-2.9206,-2.8912,-2.9645,-2.9312,-2.934,-3.0521,-3.1869,-3.2723,-3.2686,-3.4165,-3.5535,-3.6319,-3.6569,-3.6358,-3.5547,-3.5312,-3.4686,-3.3416,-3.3031,-3.2908,-3.3041,-3.2353,-3.2581,-3.3935,-3.3432,-3.3456,-3.4166,-3.4197,-3.4197,-3.4197,-3.4197,-3.4197,-3.4197,-3.4197,-3.4197,-3.4197,-3.4197,-3.4197,-3.4197,-3.4197,-3.4197,-3.4197,-3.4197,-3.4197,-3.4197,-3.4197,-3.4197,-3.4197,-3.4197,-3.4197,-3.4197,-3.4197,-3.4197,-3.4197,-3.4197,-3.4197,-3.4197,-3.4197,-3.4197,-3.4197,-3.4197,-3.4197,-3.4197,-3.4197,-3.4197,-3.4197,-3.4197,-3.4197,-3.4197,-3.4197,-3.4197,-3.4197,-3.4197,-3.4197,-3.4197,-3.4197,-3.4161,-3.4111,-3.4099,-3.4011,-3.3934,-3.3921,-3.3855,-3.3815,-3.3815,-3.382,-3.3807,-3.3807,-3.3807,-3.3807,-3.3807,-3.3422,-3.2923,-3.2318,-3.1966,-3.18,-3.18,-3.18,-3.18,-3.18,-3.18,-3.18,-3.0404,-3.0962,-3.1218,-2.9761,-3.0997,-3.1829,-2.8983,0.0,-2.9668,-2.7566,0.0,-2.6935,-2.7099,0.0,0.0,-2.7272,-2.9809,-3.1857,-3.1833,-3.3929,-3.5165,-3.4348,-3.5235,-3.5871,-3.5677,-3.5435,-3.5486,-3.5924,-3.4581,-3.4039,-3.4692,-3.4026,-3.371,-3.3908,-3.3944,-3.4006,-3.4111,-3.4173,-3.4197,-3.4197,-3.4197,-3.4197,-3.4197,-3.4197,-3.4197,-3.4197,-3.4197,-3.4197,-3.4197,-3.4197,-3.4197,-3.4197,-3.4197,-3.4197,-3.4197,-3.4197,-3.4197,-3.4197,-3.4197,-3.4197,-3.4197,-3.4197,-3.4197,-3.4197,-3.4197,-3.4197,-3.4197,-3.4197,-3.4197,-3.4197,-3.4197,-3.4197,-3.4197,-3.4197,-3.4197,-3.4197,-3.4197,-3.4197,-3.4197,-3.4197,-3.4197,-3.4197,-3.4197,-3.4197,-3.4197,-3.4197,-3.4197,-3.4173,-3.4111,-3.4086,-3.4049,-3.3998,-3.3934,-3.3881,-3.3881,-3.3829,-3.3807,-3.3807,-3.3807,-3.3807,-3.3807,-3.3181,-3.2684,-3.2318,-3.1966,-3.18,-3.18,-3.18,-3.18,-3.18,-3.18,-3.18,-3.0404,-3.0673,-3.0885,-3.0679,-3.1049,-3.1251,-3.0323,-2.9934,-2.9472,-2.8419,0.0,0.0,0.0,0.0,0.0,0.0,-2.8241,-2.9492,-2.949,-3.1685,-3.3984,-3.5829,-3.6549,-3.6759,-3.6429,-3.5312,-3.5127,-3.6371,-3.5361,-3.485,-3.5174,-3.4887,-3.4502,-3.4029,-3.4074,-3.4124,-3.4161,-3.4185,-3.4197,-3.4197,-3.4197,-3.4197,-3.4197,-3.4197,-3.4197,-3.4197,-3.4197,-3.4197,-3.4197,-3.4197,-3.4197,-3.4197,-3.4197,-3.4197,-3.4197,-3.4197,-3.4197,-3.4197,-3.4197,-3.4197,-3.4197,-3.4197,-3.4197,-3.4197,-3.4197,-3.4197,-3.4197,-3.4197,-3.4197,-3.4197,-3.4197,-3.4197,-3.4197,-3.4197,-3.4197,-3.4197,-3.4197,-3.4197,-3.4197,-3.4197,-3.4197,-3.4197,-3.4197,-3.4197,-3.4197,-3.4197,-3.4197,-3.4185,-3.4161,-3.4124,-3.4086,-3.4061,-3.3998,-3.3947,-3.3895,-3.3868,-3.3829,-3.3788,-3.3807,-3.3807,-3.3807,-3.3332,-3.2939,-3.2602,-3.2266,-3.1984,-3.18,-3.18,-3.18,-3.18,-3.18,-3.18,-3.0404,-3.0404,-3.0558,-3.1192,-3.0864,-3.0508,-3.0926,-3.0272,-2.9487,-2.9027,-2.8133,0.0,0.0,0.0,-2.6296,-2.6642,0.0,-2.7976,-2.8221,-2.983,-3.2231,-3.558,-3.6784,-3.7253,-3.7043,-3.5532,-3.5231,-3.6819,-3.5938,-3.5515,-3.5932,-3.5544,-3.5034,-3.4444,-3.4197,-3.4124,-3.4173,-3.4185,-3.4197,-3.4197,-3.4197,-3.4197,-3.4197,-3.4197,-3.4197,-3.4197,-3.4197,-3.4197,-3.4197,-3.4197,-3.4197,-3.4197,-3.4197,-3.4197,-3.4197,-3.4197,-3.4197,-3.4197,-3.4197,-3.4197,-3.4197,-3.4197,-3.4197,-3.4197,-3.4197,-3.4197,-3.4197,-3.4197,-3.4197,-3.4197,-3.4197,-3.4197,-3.4197,-3.4197,-3.4197,-3.4197,-3.4197,-3.4197,-3.4197,-3.4197,-3.4197,-3.4197,-3.4197,-3.4197,-3.4197,-3.4197,-3.4197,-3.4197,-3.4197,-3.4161,-3.4124,-3.4124,-3.4074,-3.3998,-3.3934,-3.3908,-3.3868,-3.3788,-3.3807,-3.3748,-3.3666,-3.3332,-3.3016,-3.2684,-3.2335,-3.2037,-3.18,-3.18,-3.18,-3.18,-3.18,-3.18,-3.0404,-3.0404,-3.0404,-3.0423,-3.0423,-3.019,-2.9447,-2.9841,-2.9924,-2.836,-2.8665,-2.896,-2.8103,-2.7933,-2.7654,-2.6835,-2.7373,0.0,0.0,-2.9162,-2.9852,-3.1673,-3.4573,-3.6661,-3.7236,-3.6354,-3.6384,-3.7941,-3.6403,-3.6054,-3.7544,-3.6154,-3.5285,-3.5248,-3.4518,-3.4099,-3.4099,-3.4173,-3.4197,-3.4197,-3.4197,-3.4197,-3.4197,-3.4197,-3.4197,-3.4197,-3.4197,-3.4197,-3.4197,-3.4197,-3.4197,-3.4197,-3.4197,-3.4197,-3.4197,-3.4197,-3.4197,-3.4197,-3.4197,-3.4197,-3.4197,-3.4197,-3.4197,-3.4197,-3.4197,-3.4197,-3.4197,-3.4197,-3.4197,-3.4197,-3.4197,-3.4197,-3.4197,-3.4197,-3.4197,-3.4197,-3.4197,-3.4197,-3.4197,-3.4197,-3.4197,-3.4197,-3.4197,-3.4197,-3.4197,-3.4197,-3.4197,-3.4197,-3.4197,-3.4197,-3.4197,-3.4197,-3.4136,-3.4074,-3.3998,-3.3934,-3.3868,-3.3788,-3.3807,-3.3652,-3.3335,-3.2983,-3.2668,-3.2318,-3.2001,-3.1818,-3.18,-3.18,-3.18,-3.18,-3.18,-3.18,-3.0404,-3.0404,-3.0404,-3.0404,-2.9967,-2.9484,-2.9254,-2.895,-2.8608,-2.8091,-2.822,-2.8336,-2.7995,-2.7965,-2.7905,-2.7608,-2.7788,-2.787,0.0,-2.7979,-2.8723,-2.9858,-3.229,-3.4397,-3.5719,-3.481,-3.5266,-3.7959,-3.6485,-3.6165,-3.7752,-3.6806,-3.5972,-3.5465,-3.4606,-3.4173,-3.4173,-3.4185,-3.4197,-3.4197,-3.4197,-3.4197,-3.4197,-3.4197,-3.4197,-3.4197,-3.4197,-3.4197,-3.4197,-3.4197,-3.4197,-3.4197,-3.4197,-3.4197,-3.4197,-3.4197,-3.4197,-3.4197,-3.4197,-3.4197,-3.4197,-3.4197,-3.4197,-3.4197,-3.4197,-3.4197,-3.4197,-3.4197,-3.4197,-3.4197,-3.4197,-3.4197,-3.4197,-3.4197,-3.4197,-3.4197,-3.4197,-3.4197,-3.4197,-3.4197,-3.4197,-3.4197,-3.4197,-3.4197,-3.4197,-3.4197,-3.4197,-3.4197,-3.4197,-3.4197,-3.4197,-3.4197,-3.4185,-3.4136,-3.4074,-3.3959,-3.3881,-3.3855,-3.3815,-3.3748,-3.3638,-3.3302,-3.297,-3.2635,-3.23,-3.202,-3.18,-3.18,-3.18,-3.18,-3.18,-3.18,-3.0404,-3.0404,-3.0404,-3.0404,-2.9987,-2.9498,-2.9258,-2.8979,-2.8719,-2.8473,-2.8666,-2.8883,-2.882,-2.8854,-2.88,-2.8511,-2.8453,-2.8039,0.0,-2.7113,-2.7755,-2.8569,-3.081,-3.279,-3.4085,-3.3787,-3.4713,-3.7563,-3.6689,-3.6696,-3.8241,-3.7281,-3.6458,-3.5937,-3.4791,-3.4197,-3.4197,-3.4197,-3.4197,-3.4197,-3.4197,-3.4197,-3.4197,-3.4197,-3.4197,-3.4197,-3.4197,-3.4197,-3.4197,-3.4197,-3.4197,-3.4197,-3.4197,-3.4197,-3.4197,-3.4197,-3.4197,-3.4197,-3.4197,-3.4197,-3.4197,-3.4197,-3.4197,-3.4197,-3.4197,-3.4197,-3.4197,-3.4197,-3.4197,-3.4197,-3.4197,-3.4197,-3.4197,-3.4197,-3.4197,-3.4197,-3.4197,-3.4197,-3.4197,-3.4197,-3.4197,-3.4197,-3.4197,-3.4197,-3.4197,-3.4197,-3.4197,-3.4197,-3.4197,-3.4197,-3.4197,-3.4197,-3.4197,-3.4173,-3.4111,-3.3972,-3.3895,-3.3895,-3.3847,-3.3748,-3.3638,-3.3422,-3.3093,-3.2635,-3.2403,-3.2144,-3.18,-3.18,-3.18,-3.18,-3.18,-3.18]},{"header":{"parameterUnit":"m.s-1","parameterCategory":1,"la1":30.6,"la2":29.2853,"lo1":-89.7004,"lo2":-87.6739,"dy":0.0162,"dx":0.0183,"nx":112,"ny":82,"refTime":"2024-07-19T06:00:00:Z","depth":0,"parameterNumber":3,"parameterNumberName":"V-component_of_WINDS"},"data":[0.0,0.0,0.0,0.0,0.0,0.0,0.0,0.0,0.0,0.0,0.0,0.0,0.0,0.0,0.0,0.0,0.0,0.0,0.0,0.0,0.0,0.0,0.0,0.0,0.0,0.0,0.0,0.0,0.0,0.0,0.0,0.0,0.0,0.0,0.0,0.0,0.0,0.0,0.0,0.0,0.0,0.0,0.0,0.0,0.0,0.0,0.0,0.0,0.0,0.0,0.0,0.0,0.0,0.0,0.0,0.0,0.0,0.0,0.0,0.0,0.0,0.0,0.0,0.0,0.0,0.0,0.0,0.0,0.0,0.0,0.0,0.0,0.0,0.0,0.0,0.0,0.0,0.0,0.0,0.0,0.0,0.0,0.0,0.0,0.0,0.0,0.0,0.0,0.0,0.0,0.2725,0.197,0.0861,-0.0101,-0.0742,-0.0976,-0.1083,-0.0992,0.0,0.0,0.0,0.0,0.0,0.0,0.0,0.0,0.0,0.0,0.0,0.0,0.0,0.0,0.0,0.0,0.0,0.0,0.0,0.0,0.0,0.0,0.0,0.0,0.0,0.0,0.0,0.0,0.0,0.0,0.0,0.0,0.0,0.0,0.0,0.0,0.0,0.0,0.0,0.0,0.0,0.0,0.0,0.0,0.0,0.0,0.0,0.0,0.0,0.0,0.0,0.0,0.0,0.0,0.0,0.0,0.0,0.0,0.0,0.0,0.0,0.0,0.0,0.0,0.0,0.0,0.0,0.0,0.0,0.0,0.0,0.0,0.0,0.0,0.0,0.0,0.0,0.0,0.0,0.0,0.0,0.0,0.0,0.0,0.0,0.0,0.0,0.0,0.0,0.0,0.0,0.0,0.0,0.0,0.0,0.0,0.0,0.0,0.0,0.0,0.0,0.0,0.0,0.0,0.2177,0.1923,0.0537,-0.0506,-0.0776,-0.0976,-0.1083,-0.0992,0.0,0.0,0.0,0.0,0.0,0.0,0.0,0.0,0.0,0.0,0.0,0.0,0.0,0.0,0.0,0.0,0.0,0.0,0.0,0.0,0.0,0.0,0.0,0.0,0.0,0.0,0.0,0.0,0.0,0.0,0.0,0.0,0.0,0.0,0.0,0.0,0.0,0.0,0.0,0.0,0.0,0.0,0.0,0.0,0.0,0.0,0.0,0.0,0.0,0.0,0.0,0.0,0.0,0.0,0.0,0.0,0.0,0.0,0.0,0.0,0.0,0.0,0.0,0.0,0.0,0.0,0.0,0.0,0.0,0.0,0.0,0.0,0.0,0.0,0.0,0.0,0.0,0.0,0.0,0.0,0.0,0.0,0.0,0.0,0.0,0.0,0.0,0.0,0.0,0.0,0.0,0.0,0.0,0.0,0.0,0.0,0.0,0.0,0.0,0.0,0.0,0.0,0.0,0.1919,0.1921,0.1504,0.0605,-0.0135,-0.0607,-0.0909,-0.1083,-0.0992,-0.0931,0.0,0.0,0.0,0.0,0.0,0.0,0.0,0.0,0.0,0.0,0.0,0.0,0.0,0.0,0.0,0.0,0.0,0.0,0.0,0.0,0.0,0.0,0.0,0.0,0.0,0.0,0.0,0.0,0.0,0.0,0.0,0.0,0.0,0.0,0.0,0.0,0.0,0.0,0.0,0.0,0.0,0.0,0.0,0.0,0.0,0.0,0.0,0.0,0.0,0.0,0.0,0.0,0.0,0.0,0.0,0.0,0.0,0.0,0.0,0.0,0.0,0.0,0.0,0.0,0.0,0.0,0.0,0.0,0.0,0.0,0.0,0.0,0.0,0.0,0.0,0.0,0.0,0.0,0.0,0.0,0.0,0.0,0.0,0.0,0.0,0.0,0.0,0.0,0.0,0.0,0.0,0.0,0.0,0.0,0.0,0.0,0.0,0.0,0.0,0.0,0.0,0.0,0.2092,0.1834,0.1173,0.0639,0.0101,-0.0404,-0.0803,-0.1011,-0.0929,-0.0924,0.0,0.0,0.0,0.0,0.0,0.0,0.0,0.0,0.0,0.0,0.0,0.0,0.0,0.0,0.0,0.0,0.0,0.0,0.0,0.0,0.0,0.0,0.0,0.0,0.0,0.0,0.0,0.0,0.0,0.0,0.0,0.0,0.0,0.0,0.0,0.0,0.0,0.0,0.0,0.0,0.0,0.0,0.0,0.0,0.0,0.0,0.0,0.0,0.0,0.0,0.0,0.0,0.0,0.0,0.0,0.0,0.0,0.0,0.0,0.0,0.0,0.0,0.0,0.0,0.0,0.0,0.0,0.0,0.0,0.0,0.0,0.0,0.0,0.0,0.0,0.0,0.0,0.0,0.0,0.0,0.0,0.0,0.0,0.0,0.0,0.0,0.0,0.0,0.0,0.0,0.0,0.0,0.0,0.0,0.0,0.0,0.0,0.0,0.0,0.0,0.0,0.0,0.2072,0.1842,0.1176,0.0303,-0.027,-0.0303,-0.0625,-0.0799,-0.0712,-0.082,0.0,0.0,0.0,0.0,0.0,0.0,0.0,0.0,0.0,0.0,0.0,0.0,0.0,0.0,0.0,0.0,0.0,0.0,0.0,0.0,0.0,0.0,0.0,0.0,0.0,0.0,0.0,0.0,0.0,0.0,0.0,0.0,0.0,0.0,0.0,0.0,0.0,0.0,0.0,0.0,0.0,0.0,0.0,0.0,0.0,0.0,0.0,0.0,0.0,0.0,0.0,0.0,0.0,0.0,0.0,0.0,0.0,0.0,0.0,0.0,0.0,0.0,0.0,0.0,0.0,0.0,0.0,0.0,0.0,0.0,0.0,0.0,0.0,0.0,0.0,0.0,0.0,0.0,0.0,0.0,0.0,0.0,0.0,0.0,0.0,0.0,0.0,0.0,0.0,0.0,0.0,0.0,0.0,0.0,0.0,0.0,0.0,0.0,0.0,0.0,0.0,0.0,0.1404,0.1219,0.0504,0.0,-0.0301,-0.0296,-0.0487,-0.0633,-0.0692,0.0,0.0,0.0,0.0,0.0,0.0,0.0,0.0,0.0,0.0,0.0,0.0,0.0,0.0,0.0,0.0,0.0,0.0,0.0,0.0,0.0,0.0,0.0,0.0,0.0,0.0,0.0,0.0,0.0,0.0,0.0,0.0,0.0,0.0,0.0,0.0,0.0,0.0,0.0,0.0,0.0,0.0,0.0,0.0,0.0,0.0,0.0,0.0,0.0,0.0,0.0,0.0,0.0,0.0,0.0,0.0,0.0,0.0,0.0,0.0,0.0,0.0,0.0,0.0,0.0,0.0,0.0,0.0,0.0,0.0,0.0,0.0,0.0,0.0,0.0,0.0,0.0,0.0,0.0,0.0,0.0,0.0,0.0,0.0,0.0,0.0,0.0,0.0,0.0,0.0,0.0,0.0,0.0,0.0,0.0,0.0,0.0,0.0,0.0,0.0,0.0,0.0,0.1589,0.1465,0.1147,0.0431,0.0033,-0.0197,-0.0191,-0.0316,-0.046,-0.0582,0.0,0.0,0.0,0.0,0.0,0.0,0.0,0.0,0.0,0.0,0.0,0.0,0.0,0.0,0.0,0.0,0.0,0.0,0.0,0.0,0.0,0.0,0.0,0.0,0.0,0.0,0.0,0.0,0.0,0.0,0.0,0.0,0.0,0.0,0.0,0.0,0.0,0.0,0.0,0.0,0.0,0.0,0.0,0.0,0.0,0.0,0.0,0.0,0.0,0.0,0.0,0.0,0.0,0.0,0.0,0.0,0.0,0.0,0.0,0.0,0.0,0.0,0.0,0.0,0.0,0.0,0.0,0.0,0.0,0.0,0.0,0.0,0.0,0.0,0.0,0.0,0.0,0.0,0.0,0.0,0.0,0.0,0.0,0.0,0.0,0.0,0.0,0.0,0.0,0.0,0.0,0.0,0.0,0.0,0.0,0.0,0.0,0.0,0.0,0.0,0.0,0.0,0.2911,0.2429,0.1859,0.1162,0.0452,0.0,0.0,-0.012,-0.0261,0.0,0.0,0.0,0.0,0.0,0.0,0.0,0.0,0.0,0.0,0.0,0.0,0.0,0.0,0.0,0.0,0.0,0.0,0.0,0.0,0.0,0.0,0.0,0.0,0.0,0.0,0.0,0.0,0.0,0.0,0.0,0.0,0.0,0.0,0.0,0.0,0.0,0.0,0.0,0.0,0.0,0.0,0.0,0.0,0.0,0.0,0.0,0.0,0.0,0.0,0.0,0.0,0.0,0.0,0.0,0.0,0.0,0.0,0.0,0.0,0.0,0.0,0.0,0.0,0.0,0.0,0.0,0.0,0.0,0.0,0.0,0.0,0.0,0.0,0.0,0.0,0.0,0.0,0.0,0.0,0.0,0.0,0.0,0.0,0.0,0.0,0.0,0.0,0.0,0.0,0.0,0.0,0.0,0.0,0.0,0.0,0.0,0.0,0.0,0.0,0.0,0.0,0.0,0.2942,0.2881,0.2421,0.1227,0.0902,0.0569,0.003,-0.003,-0.0144,-0.038,0.0,0.0,0.0,0.0,0.0,0.0,0.0,0.0,0.0,0.0,0.0,0.0,0.0,0.0,0.0,0.0,0.0,0.0,0.0,0.0,0.0,0.0,0.0,0.0,0.0,0.0,0.0,0.0,0.0,0.0,0.0,0.0,0.0,0.0,0.0,0.0,0.0,0.0,0.0,0.0,0.0,0.0,0.0,0.0,0.0,0.0,0.0,0.0,0.0,0.0,0.0,0.0,0.0,0.0,0.0,0.0,0.0,0.0,0.0,0.0,0.0,0.0,0.0,0.0,0.0,0.0,0.0,0.0,0.0,0.0,0.0,0.0,0.0,0.0,0.0,0.0,0.0,0.0,0.0,0.0,0.0,0.0,0.0,0.0,0.0,0.0,0.0,0.0,0.0,0.0,0.0,0.0,0.0,0.0,0.0,0.0,0.0,0.0,0.0,0.0,0.0,0.0,0.2999,0.2819,0.2445,0.1585,0.1001,0.0488,0.0029,0.0,-0.0085,-0.0294,0.0,0.0,0.0,0.0,0.0,0.0,0.0,0.0,0.0,0.0,0.0,0.0,0.0,0.0,0.0,0.0,0.0,0.0,0.0,0.0,0.0,0.0,0.0,0.0,0.0,0.0,0.0,0.0,0.0,0.0,0.0,0.0,0.0,0.0,0.0,0.0,0.0,0.0,0.0,0.0,0.0,0.0,0.0,0.0,0.0,0.0,0.0,0.0,0.0,0.0,0.0,0.0,0.0,0.0,0.0,0.0,0.0,0.0,0.0,0.0,0.0,0.0,0.0,0.0,0.0,0.0,0.0,0.0,0.0,0.0,0.0,0.0,0.0,0.0,0.0,0.0,0.0,0.0,0.0,0.0,0.0,0.0,0.0,0.0,0.0,0.0,0.0,0.0,0.0,0.0,0.0,0.0,0.0,0.0,0.0,0.0,0.0,0.0,0.0,0.0,0.0,0.0,0.3053,0.2589,0.2255,0.2188,0.0988,0.0145,0.0084,0.0028,-0.0055,-0.0187,0.0,0.0,0.0,0.0,0.0,0.0,0.0,0.0,0.0,0.0,0.0,0.0,0.0,0.0,0.0,0.0,0.0,0.0,0.0,0.0,0.0,0.0,0.0,0.0,0.0,0.0,0.0,0.0,0.0,0.0,0.0,0.0,0.0,0.0,0.0,0.0,0.0,0.0,0.0,0.0,0.0,0.0,0.0,0.0,0.0,0.0,0.0,0.0,0.0,0.0,0.0,0.0,0.0,0.0,0.0,0.0,0.0,0.0,0.0,0.0,0.2684,0.2,0.0,0.0,0.0,0.0,0.0,0.0,0.0,0.0,0.0,0.0,0.0,0.0,0.0,0.0,0.0,0.0,0.0,0.0,0.0,0.0,0.0,0.0,0.0,0.0,0.0,0.0,0.0,0.0,0.0,0.0,0.0,0.0,0.0,0.0,0.0,0.0,0.0,0.0,0.0,0.0,0.3001,0.3409,0.3466,0.287,0.2065,0.1335,0.0759,0.028,-0.0055,-0.0187,-0.0206,0.0,0.0,0.0,0.0,0.0,0.0,0.0,0.0,0.0,0.0,0.0,0.0,0.0,0.0,0.0,0.0,0.0,0.0,0.0,0.0,0.0,0.0,0.0,0.0,0.0,0.0,0.0,0.0,0.0,0.0,0.0,0.0,0.0,0.0,0.0,0.0,0.0,0.0,0.0,0.0,0.0,0.0,0.0,0.0,0.0,0.0,0.0,0.0,0.0,0.0,0.0,0.0,0.0,0.0,0.0,0.0,0.0,0.0,0.0,0.355,0.3009,0.0,0.0,0.0,0.0,0.0,0.0,0.0,0.0,0.0,0.0,0.0,0.0,0.0,0.0,0.0,0.0,0.0,0.0,0.0,0.0,0.0,0.0,0.0,0.0,0.0,0.0,0.0,0.0,0.0,0.0,0.0,0.0,0.0,0.0,0.0,0.0,0.0,0.0,0.0,0.0,0.2943,0.3307,0.3425,0.2987,0.2311,0.1626,0.0955,0.0617,0.0278,-0.0082,-0.0106,0.0,0.0,0.0,0.0,0.0,0.0,0.0,0.0,0.0,0.0,0.0,0.0,0.0,0.0,0.0,0.0,0.0,0.0,0.0,0.0,0.0,0.0,0.0,0.0,0.0,0.0,0.0,0.0,0.0,0.0,0.0,0.0,0.0,0.0,0.0,0.0,0.0,0.0,0.0,0.0,0.0,0.0,0.0,0.0,0.0,0.0,0.0,0.0,0.0,0.0,0.0,0.0,0.0,0.4526,0.4542,0.4643,0.4535,0.4669,0.4942,0.4427,0.4117,0.3942,0.3326,0.0,0.0,0.0,0.0,0.0,0.0,0.0,0.0,0.0,0.0,0.0,0.0,0.0,0.0,0.0,0.0,0.0,0.0,0.0,0.0,0.0,0.0,0.3967,0.3967,0.4043,0.4069,0.3773,0.0,0.0,0.0,0.0,0.0,0.0,0.0,0.0,0.0,0.0,0.0,0.2932,0.3058,0.3131,0.3062,0.2395,0.1762,0.126,0.1121,0.0838,0.0306,0.0189,0.0159,0.0,0.0,0.0,0.0,0.0,0.0,0.0,0.0,0.0,0.0,0.0,0.0,0.0,0.0,0.0,0.0,0.0,0.0,0.0,0.0,0.0,0.0,0.0,0.0,0.0,0.0,0.0,0.0,0.0,0.0,0.0,0.0,0.3616,0.3968,0.0,0.0,0.0,0.0,0.0,0.0,0.0,0.0,0.0,0.0,0.0,0.0,0.0,0.4482,0.4512,0.4731,0.4858,0.4858,0.5126,0.5251,0.5268,0.5248,0.5294,0.5332,0.5055,0.0,0.4593,0.3781,0.0,0.0,0.0,0.0,0.0,0.0,0.0,0.0,0.0,0.0,0.0,0.0,0.0,0.0,0.0,0.0,0.0,0.0,0.0,0.0,0.0,0.0,0.4251,0.4251,0.4265,0.4265,0.4216,0.405,0.3901,0.3912,0.3912,0.3906,0.0,0.0,0.0,0.0,0.0,0.0,0.3007,0.3465,0.3766,0.368,0.3019,0.2541,0.2458,0.1986,0.1602,0.1393,0.1013,0.0735,0.061,0.073,0.0,0.0,0.0,0.0,0.0,0.0,0.0,0.0,0.0,0.0,0.0,0.0,0.0,0.0,0.0,0.0,0.0,0.0,0.0,0.0,0.0,0.0,0.0,0.0,0.0,0.0,0.0,0.0,0.0,0.3661,0.4029,0.4287,0.4347,0.4362,0.0,0.0,0.0,0.0,0.0,0.0,0.0,0.0,0.0,0.4725,0.4801,0.4903,0.5002,0.5133,0.5166,0.5169,0.5332,0.5395,0.5395,0.5395,0.5395,0.5395,0.5292,0.516,0.4921,0.4364,0.3617,0.2855,0.0,0.0,0.0,0.0,0.2455,0.2779,0.3494,0.3915,0.4121,0.3996,0.0,0.0,0.0,0.0,0.0,0.0,0.0,0.4132,0.4202,0.4259,0.43,0.43,0.43,0.43,0.43,0.4216,0.4136,0.4201,0.424,0.4186,0.4114,0.3705,0.0,0.0,0.0,0.3414,0.3558,0.3772,0.3833,0.3706,0.3386,0.3074,0.2736,0.2458,0.2138,0.1752,0.1532,0.1387,0.1312,0.1444,0.1392,0.0,0.0,0.0,0.0,0.0,0.0,0.0,0.0,0.0,0.0,0.0,0.0,0.0,0.0,0.0,0.0,0.0,0.0,0.0,0.0,0.0,0.0,0.0,0.0,0.0,0.0,0.0,0.0,0.4078,0.4402,0.4641,0.4743,0.4815,0.0,0.0,0.0,0.0,0.0,0.0,0.4766,0.4867,0.4979,0.5114,0.5212,0.5335,0.5508,0.5508,0.5474,0.544,0.5399,0.5362,0.5259,0.5248,0.5247,0.5182,0.5214,0.5137,0.497,0.4809,0.4235,0.3475,0.335,0.2796,0.2176,0.2927,0.3195,0.3318,0.4028,0.43,0.4284,0.4194,0.4143,0.4075,0.4013,0.0,0.0,0.0,0.0,0.4186,0.4276,0.43,0.43,0.43,0.43,0.43,0.43,0.43,0.4339,0.4478,0.449,0.4493,0.4452,0.4179,0.0,0.4313,0.407,0.3911,0.4071,0.4059,0.3933,0.3719,0.3694,0.3522,0.3072,0.3014,0.2783,0.2292,0.2115,0.2006,0.1989,0.2147,0.2172,0.1992,0.0,0.0,0.0,0.0,0.0,0.0,0.0,0.0,0.0,0.0,0.0,0.0,0.0,0.0,0.0,0.0,0.0,0.0,0.0,0.0,0.0,0.0,0.0,0.0,0.0,0.0,0.0,0.0,0.0,0.5029,0.5079,0.0,0.0,0.0,0.0,0.5044,0.5257,0.5403,0.5549,0.5656,0.573,0.5766,0.5776,0.5779,0.5779,0.5779,0.5675,0.5496,0.543,0.5196,0.4821,0.4882,0.4785,0.4565,0.469,0.4706,0.4644,0.4934,0.445,0.3511,0.348,0.2911,0.2175,0.2943,0.3213,0.3318,0.4028,0.43,0.43,0.4295,0.4211,0.414,0.4249,0.42,0.0,0.0,0.4289,0.4292,0.43,0.43,0.43,0.43,0.43,0.43,0.43,0.43,0.4398,0.4722,0.4788,0.4851,0.5038,0.0,0.4968,0.4809,0.4749,0.4655,0.4412,0.4385,0.4287,0.3996,0.3968,0.3968,0.3941,0.3827,0.3665,0.3526,0.2966,0.2589,0.2458,0.2718,0.2581,0.202,0.3145,0.0,0.0,0.0,0.0,0.0,0.0,0.0,0.0,0.0,0.0,0.0,0.0,0.0,0.0,0.0,0.0,0.0,0.0,0.0,0.0,0.0,0.0,0.0,0.0,0.0,0.0,0.0,0.0,0.5076,0.522,0.0,0.5281,0.5321,0.5372,0.5423,0.5562,0.5667,0.5725,0.5772,0.58,0.58,0.58,0.58,0.58,0.58,0.572,0.5562,0.5524,0.5423,0.519,0.5218,0.517,0.5071,0.5003,0.4935,0.4921,0.4905,0.4625,0.4189,0.4059,0.3825,0.3549,0.3715,0.3786,0.3818,0.4083,0.4183,0.4197,0.4276,0.427,0.4243,0.4287,0.427,0.4243,0.4287,0.43,0.43,0.43,0.43,0.43,0.43,0.43,0.43,0.43,0.43,0.44,0.4731,0.4797,0.4861,0.5054,0.5223,0.5226,0.5024,0.499,0.4924,0.4734,0.4538,0.4321,0.4145,0.4048,0.3996,0.3996,0.3965,0.392,0.3848,0.3663,0.3528,0.346,0.3638,0.3641,0.343,0.3838,0.3885,0.0,0.0,0.0,0.0,0.0,0.0,0.0,0.0,0.0,0.0,0.0,0.0,0.0,0.0,0.0,0.0,0.0,0.0,0.0,0.0,0.0,0.0,0.0,0.0,0.0,0.4833,0.5012,0.5192,0.5345,0.5474,0.5474,0.5576,0.5661,0.5661,0.5796,0.5878,0.5878,0.5928,0.5956,0.5956,0.5956,0.5956,0.5956,0.5956,0.5845,0.5629,0.5602,0.5443,0.5193,0.5224,0.5181,0.508,0.4945,0.4874,0.4918,0.4662,0.459,0.4592,0.4464,0.4367,0.4289,0.4208,0.4181,0.4181,0.4181,0.4181,0.4191,0.4273,0.43,0.43,0.43,0.43,0.43,0.43,0.43,0.43,0.43,0.43,0.43,0.43,0.43,0.43,0.43,0.43,0.44,0.4731,0.4797,0.4894,0.5156,0.5326,0.5359,0.5223,0.519,0.5137,0.4996,0.4727,0.4523,0.4387,0.4245,0.4159,0.4159,0.4107,0.4079,0.4079,0.4024,0.3996,0.3996,0.4138,0.4193,0.4193,0.4263,0.4271,0.4246,0.0,0.0,0.0,0.0,0.0,0.0,0.0,0.0,0.0,0.0,0.0,0.0,0.0,0.0,0.0,0.0,0.0,0.0,0.0,0.0,0.0,0.0,0.0,0.4894,0.5015,0.5196,0.5385,0.5535,0.5593,0.5596,0.5725,0.581,0.581,0.5912,0.6,0.6,0.6179,0.63,0.63,0.63,0.63,0.63,0.6293,0.6096,0.5712,0.5619,0.5341,0.4821,0.4876,0.4775,0.4525,0.4464,0.4507,0.4597,0.4249,0.4322,0.4592,0.4592,0.4461,0.43,0.4298,0.4295,0.4295,0.4295,0.4298,0.43,0.43,0.43,0.43,0.43,0.43,0.43,0.43,0.43,0.43,0.43,0.43,0.43,0.43,0.43,0.43,0.43,0.43,0.44,0.4731,0.4797,0.493,0.5329,0.5395,0.5395,0.5395,0.5395,0.0,0.5123,0.4982,0.4867,0.4714,0.459,0.4494,0.4491,0.4328,0.4221,0.4221,0.4079,0.4024,0.403,0.4144,0.4231,0.4234,0.4418,0.4573,0.4691,0.0,0.0,0.0,0.0,0.0,0.0,0.0,0.0,0.0,0.0,0.0,0.0,0.0,0.0,0.0,0.0,0.0,0.0,0.0,0.0,0.0,0.4921,0.5042,0.5042,0.5203,0.5388,0.5542,0.5562,0.563,0.5732,0.5878,0.5929,0.5929,0.6108,0.6235,0.6235,0.6276,0.63,0.63,0.63,0.63,0.63,0.6149,0.5979,0.5785,0.5642,0.5474,0.5226,0.5245,0.5237,0.5139,0.4971,0.4928,0.4934,0.4707,0.4596,0.4592,0.4431,0.4364,0.4289,0.42,0.4167,0.4167,0.4167,0.4227,0.43,0.43,0.43,0.43,0.43,0.43,0.43,0.43,0.43,0.43,0.43,0.43,0.43,0.43,0.43,0.4334,0.4495,0.4528,0.4628,0.4957,0.5024,0.509,0.5359,0.5395,0.5395,0.5395,0.5395,0.5378,0.5337,0.5165,0.4985,0.487,0.4718,0.461,0.4498,0.4436,0.4408,0.4408,0.438,0.4399,0.4508,0.4544,0.4597,0.4703,0.4655,0.4679,0.0,0.0,0.0,0.0,0.0,0.0,0.0,0.0,0.0,0.0,0.0,0.0,0.0,0.0,0.0,0.0,0.0,0.0,0.0,0.0,0.0,0.0,0.5131,0.5226,0.5226,0.5337,0.545,0.5572,0.5644,0.5735,0.5881,0.6037,0.6098,0.5996,0.6173,0.6272,0.6166,0.6265,0.63,0.63,0.6238,0.6166,0.6166,0.601,0.5861,0.5711,0.563,0.5542,0.5395,0.5395,0.5395,0.5395,0.519,0.5156,0.5193,0.4927,0.4794,0.4791,0.0,0.0,0.0,0.0,0.4194,0.4194,0.4194,0.424,0.43,0.43,0.43,0.43,0.43,0.43,0.43,0.43,0.43,0.43,0.43,0.43,0.43,0.43,0.43,0.4364,0.4558,0.4592,0.4691,0.502,0.5087,0.0,0.5362,0.5395,0.5395,0.5395,0.5395,0.5395,0.5395,0.5226,0.5066,0.4985,0.4816,0.468,0.4657,0.4624,0.0,0.0,0.0,0.4694,0.4782,0.4785,0.0,0.0,0.0,0.0,0.0,0.4911,0.0,0.0,0.487,0.4843,0.0,0.0,0.0,0.0,0.0,0.0,0.0,0.0,0.0,0.0,0.0,0.0,0.0,0.0,0.0,0.0,0.5257,0.5368,0.5368,0.5354,0.5412,0.5566,0.5684,0.582,0.5949,0.6129,0.6152,0.5976,0.6132,0.6149,0.5973,0.6135,0.0,0.0,0.0,0.5966,0.5966,0.5854,0.5715,0.5589,0.5572,0.5528,0.5395,0.5395,0.5395,0.5395,0.5223,0.5223,0.5362,0.503,0.496,0.5054,0.4725,0.4461,0.43,0.43,0.43,0.43,0.43,0.0,0.0,0.43,0.43,0.43,0.43,0.43,0.43,0.43,0.43,0.43,0.43,0.43,0.43,0.43,0.4289,0.4345,0.4571,0.4604,0.4737,0.5031,0.511,0.519,0.5362,0.5395,0.5395,0.5395,0.5395,0.5395,0.5395,0.524,0.5117,0.51,0.4884,0.0,0.4884,0.4752,0.4731,0.4884,0.4894,0.4914,0.4914,0.4928,0.4999,0.512,0.5123,0.5223,0.5395,0.5395,0.5395,0.5385,0.4982,0.4908,0.0,0.0,0.0,0.0,0.0,0.0,0.0,0.0,0.0,0.0,0.0,0.0,0.0,0.0,0.0,0.5324,0.5237,0.5143,0.5143,0.5077,0.5152,0.5545,0.5539,0.5586,0.582,0.5871,0.5878,0.5847,0.5874,0.5878,0.5847,0.5874,0.5891,0.5891,0.5861,0.5844,0.5844,0.5701,0.5616,0.5589,0.5498,0.0,0.5395,0.5395,0.5395,0.5395,0.5359,0.5362,0.5395,0.5329,0.5226,0.5054,0.4725,0.4461,0.43,0.43,0.43,0.43,0.43,0.43,0.43,0.43,0.43,0.43,0.43,0.43,0.0,0.43,0.43,0.43,0.43,0.43,0.43,0.43,0.4292,0.4347,0.4569,0.473,0.489,0.5076,0.5241,0.5359,0.5395,0.5395,0.5395,0.5395,0.5395,0.5395,0.5395,0.5368,0.527,0.5113,0.4945,0.4836,0.4745,0.4624,0.46,0.4724,0.4928,0.5059,0.5059,0.5209,0.532,0.5351,0.5351,0.5365,0.5395,0.5395,0.5395,0.5392,0.5303,0.5296,0.0,0.0,0.0,0.0,0.0,0.0,0.0,0.0,0.0,0.0,0.0,0.4955,0.5073,0.0,0.5247,0.5247,0.5179,0.5073,0.5005,0.4897,0.4972,0.5457,0.5443,0.5511,0.5772,0.58,0.5772,0.5701,0.5762,0.5769,0.5698,0.5762,0.58,0.58,0.5732,0.5694,0.5694,0.5583,0.5511,0.5508,0.5433,0.5395,0.5395,0.5395,0.5395,0.5395,0.5395,0.5395,0.5395,0.5395,0.5292,0.5087,0.4924,0.4691,0.4431,0.4334,0.43,0.43,0.43,0.43,0.43,0.43,0.43,0.43,0.43,0.43,0.43,0.43,0.43,0.43,0.43,0.43,0.4334,0.4431,0.4449,0.4531,0.4789,0.4919,0.5052,0.5214,0.5341,0.5395,0.5395,0.5395,0.5395,0.5395,0.5395,0.5395,0.5395,0.5395,0.5337,0.5113,0.5036,0.4935,0.4816,0.4735,0.4724,0.4799,0.4978,0.51,0.51,0.5281,0.5395,0.5395,0.5395,0.5557,0.5914,0.6009,0.6207,0.6568,0.6666,0.6465,0.0,0.0,0.0,0.0,0.0,0.0,0.0,0.0,0.4785,0.4813,0.5009,0.5133,0.5103,0.5233,0.5267,0.5083,0.5032,0.4975,0.4891,0.4769,0.4836,0.5262,0.5306,0.5426,0.5688,0.5715,0.5671,0.5555,0.565,0.5667,0.5552,0.5654,0.5715,0.5715,0.5633,0.5589,0.5589,0.5528,0.5481,0.5481,0.5453,0.544,0.544,0.5409,0.5395,0.5395,0.5426,0.5423,0.5395,0.5426,0.5319,0.5156,0.512,0.4921,0.4658,0.4431,0.4334,0.43,0.43,0.43,0.43,0.43,0.43,0.43,0.43,0.43,0.43,0.43,0.43,0.43,0.43,0.43,0.4364,0.4561,0.4607,0.4686,0.4982,0.5081,0.5147,0.5315,0.5375,0.5395,0.5395,0.5395,0.5395,0.5395,0.5395,0.5395,0.5395,0.5395,0.5347,0.5189,0.5117,0.5042,0.4901,0.4914,0.4918,0.4891,0.5049,0.5194,0.5322,0.5506,0.5657,0.5785,0.5785,0.6079,0.6658,0.6822,0.7181,0.7772,0.8059,0.7762,0.4447,0.444,0.4511,0.4772,0.4755,0.4798,0.0,0.0,0.5121,0.5293,0.5344,0.5327,0.5123,0.5113,0.5076,0.4935,0.4826,0.4735,0.4718,0.4701,0.4758,0.4945,0.4969,0.5084,0.5416,0.5443,0.5436,0.5423,0.5436,0.5436,0.5423,0.5436,0.5443,0.5443,0.5562,0.5589,0.5589,0.5698,0.5752,0.5749,0.5627,0.5562,0.5559,0.5457,0.5395,0.5402,0.5539,0.5521,0.5405,0.5542,0.5484,0.5359,0.5156,0.5087,0.4987,0.4691,0.4464,0.43,0.43,0.43,0.43,0.43,0.43,0.43,0.43,0.43,0.43,0.43,0.43,0.43,0.43,0.43,0.4364,0.4561,0.4602,0.4647,0.4878,0.4999,0.5091,0.5123,0.5267,0.5395,0.5395,0.5395,0.5395,0.5395,0.5395,0.5395,0.5395,0.5395,0.5388,0.5371,0.5213,0.5042,0.4901,0.5002,0.5022,0.4897,0.5182,0.5567,0.6057,0.6213,0.6564,0.7158,0.719,0.7288,0.7544,0.7577,0.7702,0.7994,0.8603,0.8506,0.4467,0.4621,0.4738,0.4775,0.4935,0.5139,0.5206,0.5247,0.5284,0.5382,0.5395,0.5375,0.5277,0.5189,0.5052,0.4911,0.4863,0.4792,0.4704,0.4691,0.4748,0.487,0.4887,0.5036,0.5365,0.5395,0.5395,0.5395,0.5395,0.5395,0.5395,0.5481,0.5528,0.5528,0.5637,0.5711,0.5711,0.5772,0.58,0.58,0.5742,0.5711,0.5711,0.5647,0.5616,0.5623,0.5684,0.5677,0.5623,0.5688,0.5674,0.561,0.5456,0.5318,0.5169,0.4755,0.4561,0.4464,0.4334,0.43,0.43,0.43,0.43,0.43,0.43,0.43,0.4334,0.4431,0.4461,0.4461,0.4461,0.4531,0.4597,0.4697,0.4815,0.4938,0.5137,0.5235,0.5267,0.5267,0.5351,0.5395,0.5395,0.5395,0.5395,0.5395,0.5395,0.5395,0.5395,0.5395,0.5395,0.5395,0.5148,0.4985,0.5009,0.4988,0.4951,0.4891,0.5522,0.5969,0.618,0.6698,0.7153,0.7577,0.7577,0.7869,0.8447,0.8581,0.8877,0.9358,0.9741,0.9773,0.446,0.4651,0.4775,0.4707,0.4965,0.519,0.5056,0.5189,0.533,0.533,0.5365,0.5382,0.5341,0.5206,0.5052,0.4911,0.4887,0.488,0.4769,0.4789,0.4853,0.4935,0.5013,0.5125,0.5375,0.5395,0.5395,0.5395,0.5433,0.5457,0.5457,0.5566,0.5647,0.5647,0.5789,0.5864,0.5864,0.5908,0.5928,0.5925,0.5884,0.5864,0.5864,0.582,0.58,0.5803,0.5844,0.584,0.5803,0.5847,0.584,0.5789,0.5688,0.5577,0.5383,0.5008,0.4757,0.4561,0.4367,0.43,0.43,0.4367,0.4398,0.4398,0.4434,0.4434,0.4464,0.4628,0.4661,0.4661,0.4661,0.4728,0.4831,0.4861,0.499,0.5156,0.5359,0.5395,0.5395,0.5395,0.5395,0.5395,0.5395,0.5395,0.5395,0.5395,0.5395,0.5395,0.5395,0.5395,0.5458,0.5653,0.5449,0.5422,0.5723,0.5629,0.5574,0.5528,0.6147,0.6605,0.6769,0.7402,0.7934,0.8264,0.8323,0.8678,0.9352,0.9492,0.9849,1.0403,1.053,1.0593,0.4487,0.4498,0.4539,0.4657,0.4701,0.4748,0.4894,0.5005,0.5106,0.5106,0.5257,0.5347,0.5133,0.5103,0.5052,0.4911,0.4887,0.4887,0.4881,0.4999,0.5086,0.5093,0.5257,0.5385,0.5395,0.5395,0.5395,0.5395,0.5532,0.5583,0.5583,0.5718,0.5793,0.5793,0.5905,0.5986,0.5986,0.6173,0.6286,0.6282,0.6095,0.5986,0.5979,0.5871,0.58,0.581,0.5922,0.5939,0.5813,0.5925,0.5935,0.58,0.5796,0.5793,0.576,0.5545,0.5088,0.4561,0.4367,0.43,0.4334,0.4528,0.4592,0.4625,0.4728,0.4797,0.4797,0.4797,0.4797,0.4797,0.4797,0.4797,0.4861,0.5057,0.5087,0.5156,0.5359,0.5395,0.5395,0.5395,0.5395,0.5395,0.5395,0.5395,0.5395,0.5395,0.5395,0.5395,0.5395,0.5395,0.5657,0.6301,0.6355,0.6613,0.7279,0.734,0.7283,0.714,0.7292,0.7636,0.8202,0.8514,0.9005,0.974,0.9856,1.0047,1.0269,1.0269,1.0364,1.0593,1.0593,1.0593,0.4464,0.4563,0.4631,0.458,0.4694,0.483,0.4779,0.488,0.4958,0.4958,0.5104,0.5192,0.5106,0.51,0.5083,0.5036,0.5029,0.5029,0.5029,0.5069,0.51,0.51,0.5143,0.5247,0.5385,0.5395,0.5436,0.5539,0.5559,0.563,0.5725,0.5871,0.5915,0.5915,0.6101,0.6183,0.6183,0.6272,0.63,0.63,0.6245,0.6183,0.6179,0.6166,0.6146,0.6146,0.6162,0.6156,0.6149,0.6162,0.619,0.6132,0.5993,0.5915,0.5905,0.559,0.528,0.4985,0.4988,0.4795,0.462,0.4856,0.483,0.4728,0.4797,0.4797,0.4831,0.496,0.499,0.499,0.499,0.5093,0.5193,0.5123,0.519,0.5326,0.5395,0.5395,0.5395,0.5395,0.5395,0.5395,0.5395,0.5395,0.5395,0.5395,0.5395,0.5395,0.5395,0.5395,0.5653,0.6334,0.64,0.6662,0.7354,0.7386,0.7386,0.7347,0.7829,0.8254,0.8551,0.9125,0.9658,1.0117,1.018,1.0301,1.0498,1.0498,1.053,1.0593,1.0593,1.0593,0.4464,0.4563,0.4614,0.4515,0.4638,0.4728,0.4658,0.4728,0.4853,0.4877,0.4961,0.5056,0.5192,0.5137,0.5117,0.5203,0.5213,0.5213,0.5213,0.5213,0.5233,0.5287,0.5294,0.5352,0.5539,0.5552,0.5593,0.5657,0.5718,0.5786,0.5878,0.6027,0.6112,0.6112,0.6248,0.63,0.63,0.63,0.63,0.63,0.63,0.63,0.63,0.63,0.63,0.63,0.63,0.63,0.63,0.63,0.63,0.6289,0.6149,0.6112,0.6064,0.5858,0.5633,0.543,0.5334,0.5066,0.4856,0.5135,0.5111,0.5002,0.5073,0.5035,0.503,0.5156,0.5223,0.5223,0.5223,0.5292,0.5362,0.5223,0.5292,0.5395,0.5395,0.5395,0.5395,0.5395,0.5395,0.5395,0.5395,0.5395,0.5395,0.5395,0.5395,0.5395,0.5395,0.5624,0.6013,0.6695,0.6985,0.7414,0.8107,0.8139,0.8172,0.8269,0.8689,0.9043,0.9166,0.9696,1.0085,1.0301,1.0371,1.0466,1.0593,1.0593,1.0593,1.0593,1.0593,1.0593,0.4491,0.4491,0.4491,0.4491,0.4491,0.4491,0.4491,0.4607,0.4731,0.4877,0.4884,0.5006,0.533,0.5237,0.5192,0.5382,0.5412,0.5416,0.5405,0.5405,0.5457,0.5562,0.5586,0.5647,0.5786,0.581,0.5817,0.5823,0.5952,0.5996,0.6003,0.6179,0.63,0.63,0.63,0.63,0.63,0.63,0.63,0.63,0.63,0.63,0.63,0.63,0.63,0.63,0.63,0.63,0.63,0.63,0.63,0.63,0.63,0.63,0.63,0.63,0.6138,0.5861,0.5485,0.5213,0.5101,0.5423,0.5435,0.535,0.5565,0.5528,0.5405,0.5405,0.5399,0.5395,0.5395,0.5395,0.5395,0.5395,0.5395,0.5395,0.5395,0.5395,0.5395,0.5395,0.5395,0.5395,0.5395,0.5395,0.5395,0.5395,0.5428,0.5458,0.5458,0.6013,0.6662,0.7386,0.8064,0.8786,0.9452,0.9516,0.958,0.9804,0.9804,0.9862,1.0015,1.0206,1.0301,1.0333,1.0498,1.0593,1.0593,1.0593,1.0593,1.0593,1.0593,1.0593,0.4491,0.4491,0.4491,0.4491,0.4491,0.4491,0.4491,0.4607,0.4701,0.4741,0.484,0.4941,0.5155,0.525,0.5385,0.5508,0.562,0.565,0.5545,0.5532,0.0,0.5463,0.0,0.5647,0.5786,0.5905,0.602,0.6173,0.6071,0.6078,0.6235,0.6279,0.63,0.63,0.63,0.63,0.63,0.63,0.63,0.63,0.63,0.63,0.63,0.63,0.63,0.63,0.63,0.63,0.63,0.63,0.63,0.63,0.63,0.63,0.63,0.63,0.6138,0.5931,0.6017,0.5805,0.5563,0.5788,0.5795,0.5674,0.5745,0.5647,0.5532,0.5532,0.5484,0.5395,0.5395,0.5395,0.5395,0.5395,0.5395,0.5395,0.5395,0.5395,0.5395,0.5395,0.5395,0.5395,0.5395,0.5395,0.5395,0.5395,0.5815,0.6141,0.6141,0.6301,0.6854,0.8102,0.8393,0.8786,0.9452,0.9516,0.958,0.9804,0.9804,0.9926,1.0206,1.0269,1.0371,1.053,1.0561,1.0593,1.0593,1.0593,1.0593,1.0593,1.0593,1.0593,0.4491,0.4491,0.4491,0.4491,0.4491,0.4491,0.4491,0.4607,0.4711,0.4775,0.486,0.4982,0.5192,0.5337,0.5446,0.0,0.0,0.0,0.561,0.5589,0.5583,0.0,0.563,0.0,0.5983,0.6081,0.6166,0.6293,0.6179,0.6169,0.6293,0.63,0.63,0.63,0.63,0.63,0.63,0.63,0.63,0.63,0.63,0.63,0.63,0.63,0.63,0.63,0.63,0.63,0.63,0.63,0.63,0.63,0.63,0.63,0.63,0.63,0.6219,0.6099,0.6261,0.6165,0.5974,0.6091,0.6027,0.5901,0.5901,0.58,0.5684,0.5684,0.562,0.5576,0.5511,0.5494,0.5477,0.5412,0.5395,0.5395,0.5395,0.5395,0.5395,0.5395,0.5395,0.5395,0.5395,0.5395,0.5491,0.5782,0.6174,0.6625,0.7246,0.7312,0.7637,0.8425,0.8753,0.9119,0.958,0.9644,0.9734,0.9989,1.0021,1.0149,1.0434,1.0434,1.0466,1.0593,1.0593,1.0593,1.0593,1.0593,1.0593,1.0593,1.0593,1.0593,0.4491,0.4491,0.4491,0.4491,0.4491,0.4491,0.4491,0.4607,0.4735,0.4857,0.4887,0.5009,0.5341,0.5395,0.545,0.5589,0.0,0.5789,0.5664,0.5647,0.5688,0.5789,0.582,0.5939,0.6242,0.6286,0.63,0.63,0.63,0.63,0.63,0.63,0.63,0.63,0.63,0.63,0.63,0.63,0.63,0.63,0.63,0.63,0.63,0.63,0.63,0.63,0.63,0.63,0.63,0.63,0.63,0.63,0.63,0.63,0.63,0.63,0.63,0.63,0.63,0.63,0.63,0.63,0.6169,0.6023,0.6023,0.5952,0.583,0.583,0.5817,0.5772,0.565,0.5616,0.5579,0.5463,0.544,0.5443,0.5402,0.5395,0.5395,0.5395,0.5395,0.5395,0.5395,0.5462,0.5719,0.6301,0.656,0.7116,0.8361,0.849,0.8522,0.8624,0.9151,0.958,0.9772,0.9804,0.9926,1.0276,1.0301,1.0403,1.0593,1.0593,1.0593,1.0593,1.0593,1.0593,1.0593,1.0593,1.0593,1.0593,1.0593,1.0593,0.4491,0.4491,0.4491,0.4491,0.4491,0.4491,0.4491,0.4607,0.0,0.0,0.4887,0.5009,0.5341,0.5395,0.5484,0.5722,0.5891,0.5946,0.5922,0.5915,0.5915,0.0,0.5915,0.5973,0.6027,0.6186,0.63,0.63,0.63,0.63,0.63,0.63,0.63,0.63,0.63,0.63,0.63,0.63,0.63,0.63,0.63,0.63,0.63,0.63,0.63,0.63,0.63,0.63,0.63,0.63,0.63,0.63,0.63,0.63,0.63,0.63,0.63,0.63,0.63,0.63,0.63,0.63,0.6282,0.6259,0.6259,0.6115,0.5952,0.5952,0.5898,0.5796,0.5772,0.5766,0.5728,0.5586,0.564,0.5657,0.5446,0.5395,0.5395,0.5395,0.5395,0.5395,0.5395,0.5848,0.6268,0.6367,0.7377,0.8226,0.8458,0.849,0.8721,0.9253,0.9414,0.958,0.9772,0.9804,0.9926,1.0276,1.0301,1.0403,1.0593,1.0593,1.0593,1.0593,1.0593,1.0593,1.0593,1.0593,1.0593,1.0593,1.0593,1.0593,0.4491,0.4491,0.4491,0.4491,0.4491,0.4491,0.4491,0.0,0.0,0.0,0.4887,0.5009,0.5341,0.5395,0.0,0.5654,0.5817,0.5911,0.5911,0.5911,0.5915,0.5918,0.5949,0.6023,0.6142,0.6255,0.63,0.63,0.63,0.63,0.63,0.63,0.63,0.63,0.63,0.63,0.63,0.63,0.63,0.63,0.63,0.63,0.63,0.63,0.63,0.63,0.63,0.63,0.63,0.63,0.63,0.63,0.63,0.63,0.63,0.63,0.63,0.63,0.63,0.63,0.63,0.63,0.63,0.63,0.63,0.6248,0.6149,0.6149,0.6098,0.6023,0.5939,0.5922,0.5881,0.5735,0.5752,0.5742,0.5562,0.5515,0.5491,0.5412,0.5395,0.5524,0.5848,0.617,0.6658,0.7377,0.8064,0.8619,0.8985,0.9017,0.9151,0.9452,0.958,0.974,0.9894,0.9989,1.018,1.0428,1.0466,1.0498,1.0593,1.0593,1.0593,1.0593,1.0593,1.0593,1.0593,1.0593,1.0593,1.0593,1.0593,1.0593,0.4491,0.4491,0.4491,0.4491,0.4491,0.4491,0.4491,0.4583,0.0,0.488,0.4887,0.5009,0.5341,0.5395,0.5446,0.0,0.5708,0.5823,0.5891,0.5901,0.5956,0.6105,0.6098,0.0,0.6286,0.63,0.63,0.63,0.63,0.63,0.63,0.6327,0.6344,0.6344,0.6378,0.6395,0.6395,0.6361,0.6344,0.6344,0.6344,0.633,0.6303,0.633,0.6327,0.63,0.63,0.63,0.63,0.63,0.63,0.63,0.63,0.63,0.63,0.63,0.63,0.63,0.63,0.63,0.63,0.63,0.63,0.63,0.63,0.63,0.63,0.63,0.63,0.6272,0.6112,0.6078,0.6051,0.5928,0.585,0.5779,0.5701,0.5633,0.5555,0.5467,0.5549,0.5785,0.6301,0.6658,0.7214,0.8323,0.8624,0.892,0.9446,0.9516,0.9516,0.9548,0.9708,0.9862,0.9989,1.0174,1.0403,1.0593,1.0593,1.0593,1.0593,1.0593,1.0593,1.0593,1.0593,1.0593,1.0593,1.0593,1.0593,1.0593,1.0593,1.0593,0.4491,0.4491,0.4491,0.4491,0.4491,0.4491,0.4491,0.0,0.4593,0.486,0.4887,0.5009,0.5341,0.5395,0.5446,0.5566,0.0,0.5898,0.6218,0.6255,0.631,0.6453,0.0,0.0,0.6296,0.63,0.63,0.63,0.63,0.63,0.63,0.6422,0.6494,0.6494,0.6586,0.6661,0.6661,0.6522,0.6494,0.6494,0.6494,0.6426,0.6303,0.6433,0.6422,0.63,0.63,0.63,0.63,0.63,0.63,0.63,0.63,0.63,0.63,0.63,0.63,0.63,0.63,0.63,0.63,0.63,0.63,0.63,0.63,0.63,0.63,0.63,0.63,0.6296,0.6282,0.6279,0.6276,0.6262,0.6003,0.5837,0.5925,0.5779,0.5586,0.5572,0.5985,0.6334,0.6396,0.7474,0.8361,0.849,0.9017,0.9414,0.9484,0.9516,0.958,0.974,0.9804,0.9862,0.9989,1.0174,1.0403,1.0593,1.0593,1.0593,1.0593,1.0593,1.0593,1.0593,1.0593,1.0593,1.0593,1.0593,1.0593,1.0593,1.0593,1.0593,0.4491,0.4491,0.4491,0.4491,0.4491,0.4491,0.4491,0.0,0.4576,0.4857,0.4847,0.4901,0.532,0.5284,0.5274,0.546,0.5535,0.5675,0.5942,0.6064,0.6176,0.6368,0.6409,0.6395,0.631,0.63,0.63,0.63,0.6378,0.6426,0.6426,0.648,0.6511,0.6511,0.662,0.6702,0.6702,0.6549,0.6559,0.6607,0.647,0.645,0.6525,0.6528,0.648,0.6426,0.6426,0.6378,0.63,0.63,0.63,0.63,0.63,0.63,0.63,0.63,0.63,0.63,0.63,0.63,0.63,0.63,0.63,0.63,0.63,0.63,0.63,0.63,0.63,0.63,0.63,0.63,0.63,0.63,0.6204,0.6071,0.6,0.5902,0.5907,0.6168,0.6377,0.676,0.7531,0.8129,0.8651,0.9049,0.9318,0.9516,0.9516,0.9612,0.9708,0.9804,0.9862,0.9989,1.018,1.0371,1.0498,1.0593,1.0593,1.0593,1.0593,1.0593,1.0593,1.0593,1.0593,1.0593,1.0593,1.0593,1.0593,1.0593,1.0593,1.0593,0.4491,0.4491,0.4491,0.4491,0.4491,0.4501,0.0,0.4556,0.4644,0.4918,0.4897,0.4931,0.5327,0.5274,0.5237,0.5378,0.547,0.5631,0.5895,0.6064,0.6234,0.6434,0.6508,0.6474,0.6371,0.6323,0.63,0.63,0.6392,0.6467,0.6511,0.6555,0.6559,0.6607,0.6753,0.6831,0.6831,0.6681,0.6661,0.6766,0.6559,0.6542,0.6698,0.6634,0.6559,0.6511,0.6511,0.6429,0.63,0.63,0.63,0.63,0.63,0.63,0.63,0.63,0.63,0.63,0.63,0.63,0.63,0.63,0.63,0.63,0.63,0.63,0.63,0.63,0.63,0.63,0.63,0.63,0.63,0.63,0.63,0.6269,0.6122,0.6023,0.615,0.6667,0.6925,0.7395,0.8533,0.8898,0.9201,0.9679,0.9678,0.963,0.9695,0.9757,0.983,0.9932,1.0021,1.0142,1.0301,1.0466,1.0593,1.0593,1.0593,1.0593,1.0593,1.0593,1.0593,1.0593,1.0593,1.0593,1.0593,1.0593,1.0593,1.0593,1.068,1.0767,0.4491,0.4491,0.4491,0.4491,0.4491,0.4532,0.4653,0.4687,0.4772,0.5036,0.5096,0.5143,0.5365,0.5392,0.5392,0.5395,0.5606,0.5905,0.6252,0.6419,0.658,0.6842,0.6658,0.6511,0.6511,0.6381,0.63,0.63,0.6303,0.6364,0.6504,0.6617,0.6766,0.6876,0.7018,0.7092,0.7092,0.6953,0.6883,0.6883,0.6879,0.6844,0.6705,0.6854,0.6759,0.6511,0.6511,0.6429,0.63,0.63,0.63,0.63,0.63,0.63,0.63,0.63,0.63,0.63,0.63,0.63,0.63,0.63,0.63,0.63,0.63,0.63,0.63,0.63,0.63,0.63,0.63,0.63,0.63,0.63,0.63,0.63,0.6296,0.6139,0.625,0.7056,0.7672,0.8357,0.9171,0.9834,1.0286,1.0286,1.0069,0.9968,1.0168,0.9965,0.9926,1.0276,1.0301,1.0301,1.0301,1.0466,1.0593,1.0593,1.0593,1.0593,1.0593,1.0593,1.0593,1.0593,1.0593,1.0593,1.0593,1.0593,1.0593,1.06,1.0855,1.1142,0.4491,0.4491,0.4491,0.4491,0.4569,0.4658,0.468,0.4691,0.4775,0.5036,0.5022,0.5064,0.5347,0.5395,0.5463,0.563,0.5739,0.0,0.6388,0.6532,0.0,0.6617,0.6484,0.6368,0.6368,0.6327,0.63,0.63,0.6388,0.6511,0.662,0.6675,0.6722,0.677,0.6876,0.6953,0.6953,0.6848,0.6875,0.7028,0.6868,0.6854,0.6957,0.6906,0.6832,0.6776,0.6675,0.6542,0.6436,0.634,0.63,0.63,0.63,0.63,0.63,0.63,0.63,0.63,0.63,0.63,0.63,0.63,0.63,0.63,0.63,0.63,0.63,0.63,0.63,0.63,0.63,0.63,0.63,0.63,0.63,0.63,0.63,0.6678,0.7207,0.7816,0.8544,0.9246,0.9869,1.0153,1.0292,1.0292,1.0226,1.0174,1.0192,1.0225,1.023,1.0295,1.0434,1.0498,1.0498,1.0561,1.0593,1.0593,1.0593,1.0593,1.0593,1.0593,1.0593,1.0593,1.0593,1.0593,1.0593,1.0593,1.0942,1.165,1.246,1.2894,0.4491,0.4491,0.4491,0.4491,0.4563,0.4648,0.4677,0.4691,0.4775,0.5036,0.5029,0.5074,0.5351,0.5395,0.5453,0.5606,0.5728,0.5939,0.6375,0.6569,0.6664,0.6569,0.647,0.6358,0.6306,0.63,0.63,0.63,0.6381,0.6497,0.6607,0.6668,0.6702,0.6702,0.6851,0.6913,0.6964,0.6912,0.6916,0.7095,0.691,0.692,0.7092,0.7004,0.6937,0.6879,0.6827,0.6668,0.0,0.6416,0.6347,0.63,0.63,0.63,0.63,0.63,0.63,0.63,0.63,0.63,0.63,0.63,0.63,0.63,0.63,0.63,0.63,0.63,0.63,0.63,0.63,0.63,0.63,0.63,0.63,0.63,0.63,0.6949,0.7677,0.8337,0.9094,0.9862,1.0509,1.0587,1.0587,1.0587,1.0509,1.0487,1.0598,1.0493,1.0468,1.0699,1.0663,1.0633,1.0747,1.0653,1.0593,1.0593,1.0593,1.0593,1.0593,1.0593,1.0593,1.0593,1.07,1.07,1.0593,1.0593,1.1148,1.223,1.2676,1.3118,0.0,0.4491,0.4491,0.4491,0.4498,0.4542,0.466,0.4701,0.0,0.5042,0.51,0.515,0.5382,0.5412,0.5423,0.5453,0.5689,0.5942,0.6286,0.6519,0.6685,0.6685,0.6549,0.6446,0.6313,0.63,0.63,0.63,0.63,0.6361,0.6504,0.6597,0.6685,0.6715,0.6844,0.694,0.7082,0.7082,0.7085,0.7095,0.7095,0.7095,0.7095,0.7095,0.7024,0.69,0.6879,0.6753,0.6525,0.6504,0.6419,0.63,0.63,0.63,0.63,0.63,0.63,0.63,0.63,0.63,0.63,0.63,0.63,0.63,0.63,0.63,0.63,0.63,0.63,0.63,0.63,0.63,0.63,0.63,0.63,0.63,0.63,0.6949,0.7748,0.8551,0.9349,1.0143,1.0962,1.1111,1.1111,1.1111,1.0906,1.0887,1.1257,1.0807,1.0714,1.1328,1.0942,1.076,1.1002,1.0787,1.0613,1.0593,1.0613,1.0613,1.0593,1.0593,1.06,1.062,1.0875,1.0914,1.0626,1.071,1.1319,1.2395,1.1929,1.2383,0.4491,0.0,0.4491,0.4491,0.458,0.4646,0.0,0.4782,0.4884,0.5063,0.0,0.5181,0.5488,0.5569,0.5682,0.603,0.6146,0.6296,0.6556,0.6556,0.6566,0.6566,0.6436,0.6337,0.6303,0.63,0.63,0.63,0.63,0.6361,0.6504,0.6443,0.6522,0.6865,0.6797,0.6827,0.6933,0.6933,0.6991,0.7095,0.7095,0.7095,0.7095,0.7095,0.7078,0.7034,0.6851,0.6712,0.663,0.6443,0.633,0.63,0.63,0.63,0.63,0.63,0.63,0.63,0.63,0.63,0.63,0.63,0.63,0.63,0.63,0.63,0.63,0.63,0.63,0.63,0.63,0.63,0.63,0.63,0.63,0.63,0.63,0.6949,0.7748,0.8551,0.9349,1.0143,1.0962,1.1111,1.1111,1.1111,1.1168,1.1242,1.1283,1.132,1.1353,1.1409,1.1303,1.1249,1.1282,1.1056,1.0827,1.0606,1.0801,1.0821,1.06,1.0593,1.07,1.0889,1.1176,1.1182,1.0928,1.1739,1.2291,1.2564,1.35,1.4263,0.4559,0.4597,0.4597,0.4597,0.4658,0.4707,0.4779,0.0,0.0,0.0,0.0,0.517,0.5443,0.5542,0.5671,0.5948,0.6067,0.6257,0.6556,0.6566,0.6511,0.6511,0.6385,0.63,0.63,0.63,0.63,0.63,0.63,0.6334,0.6412,0.6405,0.6502,0.6814,0.681,0.6875,0.698,0.698,0.7021,0.7095,0.7095,0.7095,0.7095,0.7095,0.7095,0.7085,0.6859,0.6807,0.678,0.6521,0.6399,0.6388,0.6323,0.63,0.63,0.63,0.63,0.63,0.63,0.63,0.63,0.63,0.63,0.63,0.63,0.63,0.63,0.63,0.63,0.63,0.63,0.63,0.63,0.63,0.63,0.63,0.63,0.6949,0.7748,0.8551,0.9349,1.0143,1.0962,1.1111,1.1111,1.1111,1.126,1.1428,1.1467,1.1556,1.1644,1.1795,1.159,1.1449,1.1617,1.1483,1.1303,1.0975,1.0982,1.0922,1.0801,1.0787,1.0988,1.139,1.1785,1.2025,1.2137,1.2282,1.2724,1.3527,1.3794,1.4357,0.4616,0.4724,0.4748,0.4701,0.4707,0.4758,0.4891,0.0,0.0,0.0,0.0,0.0,0.5402,0.5552,0.0,0.5684,0.5918,0.6176,0.6446,0.648,0.648,0.648,0.6375,0.63,0.63,0.63,0.63,0.63,0.6416,0.649,0.649,0.6724,0.6918,0.7102,0.72,0.7354,0.7529,0.7224,0.7095,0.7095,0.7095,0.7095,0.7095,0.7095,0.7095,0.7088,0.6923,0.6852,0.6829,0.6566,0.648,0.647,0.6371,0.632,0.6303,0.6323,0.632,0.63,0.63,0.63,0.63,0.63,0.63,0.63,0.63,0.63,0.63,0.63,0.63,0.63,0.63,0.63,0.63,0.63,0.63,0.63,0.63,0.6949,0.7748,0.8551,0.9349,1.0143,1.0962,1.1111,1.1111,1.1149,1.1335,1.1521,1.1706,1.1721,1.185,1.2278,1.1857,1.1663,1.1953,1.1973,1.183,1.1577,1.1384,1.1314,1.1317,1.1359,1.1627,1.2136,1.2635,1.3135,1.3598,1.2739,1.3099,1.4503,1.3672,1.3924,0.4643,0.4874,0.4972,0.4752,0.4789,0.486,0.4884,0.0,0.0,0.0,0.0,0.0,0.0,0.5674,0.5854,0.6153,0.6334,0.6419,0.634,0.633,0.633,0.633,0.6313,0.63,0.63,0.63,0.63,0.63,0.6949,0.733,0.733,0.7966,0.8526,0.8882,0.8928,0.9117,0.9483,0.7881,0.7095,0.7095,0.7095,0.7095,0.7095,0.7095,0.7095,0.7082,0.6854,0.6736,0.6712,0.6457,0.633,0.634,0.6443,0.6405,0.6313,0.6433,0.6402,0.63,0.63,0.63,0.63,0.63,0.63,0.63,0.63,0.63,0.63,0.63,0.63,0.63,0.63,0.63,0.63,0.63,0.63,0.63,0.63,0.6949,0.7748,0.8551,0.9349,1.0143,1.0962,1.1111,1.1149,1.1335,1.1521,1.1744,1.1929,1.2081,1.2215,1.2298,1.2225,1.2184,1.2231,1.2238,1.2218,1.2171,1.2487,1.272,1.2787,1.3043,1.3253,1.332,1.3964,1.4249,1.4103,1.3945,1.3992,1.4271,1.4396,1.4694,0.4556,0.4843,0.5049,0.4867,0.4894,0.5046,0.5243,0.0,0.0,0.0,0.0,0.0,0.0,0.0,0.5901,0.6248,0.6354,0.6375,0.631,0.63,0.63,0.63,0.63,0.63,0.63,0.63,0.63,0.63,0.7065,0.7484,0.7484,0.8246,0.8836,0.9084,0.9242,0.9409,0.9667,0.8961,0.8619,0.8619,0.7577,0.736,0.7841,0.7316,0.7095,0.7082,0.6827,0.679,0.6909,0.6529,0.6511,0.6614,0.6552,0.647,0.6412,0.6402,0.6358,0.63,0.63,0.63,0.63,0.63,0.63,0.63,0.63,0.63,0.63,0.63,0.63,0.63,0.63,0.63,0.63,0.63,0.63,0.63,0.63,0.6949,0.7748,0.8551,0.9349,1.0143,1.0962,1.1111,1.1186,1.1372,1.1558,1.1781,1.1966,1.2187,1.2305,1.2305,1.2305,1.2305,1.2305,1.2305,1.2414,1.2677,1.2883,1.3111,1.3362,1.4106,1.4302,1.3828,1.4776,1.5176,1.5045,1.4854,1.4967,1.5342,1.5093,1.5287,0.446,0.4789,0.5066,0.4924,0.0,0.5181,0.5518,0.5504,0.0,0.0,0.0,0.0,0.0,0.5735,0.5932,0.6207,0.6303,0.6337,0.6306,0.63,0.63,0.63,0.63,0.63,0.63,0.6454,0.6567,0.6567,0.7484,0.8055,0.8055,0.8813,0.9326,0.9502,0.9712,0.9902,1.0045,1.004,0.9971,0.9809,0.834,0.8024,0.863,0.7895,0.7552,0.7541,0.7171,0.7077,0.7267,0.6747,0.6664,0.6851,0.6617,0.6545,0.6494,0.6354,0.63,0.63,0.63,0.63,0.63,0.63,0.63,0.63,0.63,0.63,0.63,0.63,0.63,0.63,0.63,0.63,0.63,0.63,0.63,0.6338,0.6528,0.7215,0.8016,0.8818,0.9647,1.0368,1.0999,1.1149,1.1223,1.1446,1.1632,1.1855,1.204,1.2187,1.2305,1.2305,1.2305,1.2305,1.2305,1.2305,1.2526,1.3068,1.3192,1.3527,1.4188,1.5077,1.5231,1.4548,1.5539,1.6044,1.6044,1.5765,1.5898,1.6425,1.5864,1.5898,0.4487,0.4789,0.5066,0.4924,0.4992,0.0,0.5518,0.5504,0.0,0.5728,0.0,0.0,0.0,0.5823,0.5983,0.6003,0.6278,0.645,0.632,0.63,0.63,0.63,0.63,0.63,0.63,0.6988,0.7407,0.7407,0.8851,0.9728,0.9728,1.0475,1.1049,1.1283,1.1313,1.1482,1.1703,1.0897,1.0146,0.9512,0.9386,0.9247,0.9069,0.8987,0.8946,0.8905,0.8139,0.7818,0.7797,0.7026,0.6698,0.6715,0.6695,0.6597,0.6494,0.6354,0.63,0.63,0.63,0.63,0.63,0.63,0.63,0.63,0.63,0.63,0.63,0.63,0.63,0.63,0.63,0.63,0.63,0.63,0.63,0.649,0.7253,0.8055,0.8851,0.9652,1.0475,1.1037,1.1074,1.126,1.1446,1.1632,1.1855,1.204,1.2268,1.2298,1.2305,1.2305,1.2305,1.2305,1.2305,1.2305,1.2615,1.3426,1.3749,1.4566,1.6032,1.6194,1.6212,1.6145,1.6595,1.6839,1.6839,1.6802,1.6793,1.6862,1.6793,1.6828,0.4236,0.4718,0.5216,0.4979,0.4992,0.0,0.0,0.5613,0.5694,0.5901,0.5905,0.0,0.0,0.5969,0.6142,0.6006,0.6207,0.6361,0.6306,0.63,0.63,0.63,0.63,0.649,0.6988,0.733,0.771,0.8208,0.9273,0.9884,0.9884,1.0663,1.116,1.1268,1.1405,1.1543,1.1639,1.1472,1.1152,1.0736,0.9738,0.9507,0.9958,0.9349,0.9109,0.9109,0.886,0.8804,0.8877,0.8673,0.8615,0.8607,0.7881,0.7068,0.6375,0.632,0.63,0.63,0.63,0.63,0.63,0.63,0.63,0.63,0.63,0.63,0.63,0.63,0.63,0.63,0.63,0.63,0.63,0.63,0.63,0.6528,0.733,0.8131,0.8932,0.9728,1.055,1.1149,1.126,1.1335,1.1521,1.1855,1.1966,1.2077,1.2268,1.2305,1.2305,1.2305,1.2305,1.2305,1.2305,1.2305,1.2629,1.3462,1.3633,1.4288,1.5571,1.585,1.6082,1.6288,1.6707,1.6908,1.6908,1.6908,1.6908,1.6908,1.6908,1.6908,0.4216,0.4711,0.524,0.5005,0.0,0.0,0.5532,0.5627,0.5732,0.5942,0.5952,0.5939,0.5884,0.6006,0.6095,0.6,0.6159,0.63,0.63,0.63,0.6377,0.6644,0.6683,0.6988,0.7787,0.8093,0.847,0.9046,0.9841,1.0293,1.0293,1.0812,1.1111,1.1111,1.1298,1.1363,1.1363,1.1576,1.1576,1.1363,1.027,1.0063,1.0656,1.0029,0.9751,0.9717,0.9617,0.9648,0.9812,0.968,0.9663,0.9606,0.844,0.7462,0.6644,0.6377,0.63,0.63,0.63,0.63,0.63,0.63,0.63,0.63,0.63,0.63,0.63,0.63,0.63,0.63,0.63,0.63,0.63,0.63,0.649,0.6911,0.771,0.8513,0.9311,1.0105,1.07,1.1149,1.1298,1.1409,1.1595,1.1855,1.2003,1.215,1.2268,1.2305,1.2305,1.2305,1.2305,1.2305,1.2305,1.2305,1.2519,1.3098,1.3135,1.3684,1.4972,1.5521,1.5922,1.6122,1.6633,1.6908,1.6908,1.6908,1.6908,1.6908,1.6978,1.6968,0.4487,0.4789,0.51,0.0,0.0,0.0,0.5552,0.5504,0.5525,0.5902,0.5908,0.585,0.5966,0.5908,0.5854,0.5969,0.6159,0.63,0.63,0.63,0.6606,0.7407,0.7484,0.7825,0.8627,0.9425,0.9922,0.9922,1.0663,1.1111,1.1111,1.1111,1.1111,1.1111,1.1111,1.1111,1.1111,1.1111,1.1111,1.1111,1.1111,1.1111,1.1111,1.1111,1.1111,1.1049,1.0385,1.0272,1.046,0.978,0.9451,0.9199,0.8165,0.7634,0.7407,0.6606,0.63,0.63,0.63,0.63,0.63,0.63,0.63,0.63,0.63,0.63,0.63,0.63,0.63,0.63,0.63,0.63,0.63,0.63,0.6911,0.7748,0.8551,0.9349,1.0143,1.0925,1.1111,1.1111,1.1111,1.1446,1.1706,1.1706,1.204,1.2305,1.2305,1.2305,1.2305,1.2305,1.2305,1.2305,1.2305,1.2305,1.2305,1.2305,1.2305,1.2989,1.453,1.5365,1.5762,1.5798,1.6508,1.6908,1.6908,1.6908,1.6908,1.6908,1.7107,1.7107,0.4341,0.4682,0.0,0.4975,0.0,0.0,0.0,0.559,0.0,0.0,0.5956,0.5939,0.5983,0.6081,0.6105,0.6003,0.6159,0.63,0.63,0.63,0.6606,0.7407,0.7484,0.8055,0.9425,0.9771,1.018,1.0887,1.1037,1.1149,1.1298,1.1186,1.1111,1.1111,1.1111,1.1111,1.1111,1.1111,1.1111,1.1111,1.1111,1.1111,1.1111,1.1111,1.1111,1.1098,1.1282,1.1398,1.1502,1.1682,1.1186,1.0237,0.9928,0.8976,0.7729,0.7301,0.6795,0.63,0.63,0.63,0.63,0.63,0.63,0.63,0.63,0.63,0.63,0.63,0.63,0.63,0.63,0.63,0.6451,0.7026,0.7753,0.8546,0.9387,0.9728,1.0143,1.0925,1.1111,1.1186,1.1484,1.1632,1.1781,1.2077,1.2231,1.2305,1.2305,1.2305,1.2305,1.2305,1.2305,1.2305,1.2305,1.2305,1.2305,1.2305,1.2305,1.2776,1.3781,1.407,1.4681,1.5762,1.6009,1.6368,1.6908,1.6908,1.6968,1.7107,1.7166,1.7245,0.4587,0.4874,0.0,0.5192,0.5321,0.5487,0.5487,0.0,0.0,0.0,0.5898,0.5922,0.5983,0.6105,0.6159,0.6129,0.6238,0.63,0.63,0.6567,0.7065,0.7863,0.8322,0.9074,1.0368,1.0556,1.085,1.1484,1.1335,1.126,1.1409,1.1223,1.1111,1.1111,1.1111,1.1111,1.1111,1.1111,1.1111,1.1111,1.1111,1.1111,1.1111,1.1111,1.1111,1.1135,1.1537,1.1724,1.1754,1.2107,1.1763,1.0993,1.0537,0.9703,0.864,0.8171,0.7484,0.6756,0.6756,0.6567,0.63,0.63,0.63,0.63,0.63,0.63,0.63,0.63,0.63,0.63,0.63,0.6528,0.6911,0.7369,0.8131,0.8927,0.9728,1.0143,1.0513,1.0999,1.1111,1.1186,1.1521,1.1632,1.1818,1.212,1.2268,1.2305,1.2305,1.2305,1.2305,1.2305,1.2305,1.2305,1.2305,1.2305,1.2305,1.2305,1.2305,1.2519,1.2989,1.36,1.4537,1.5762,1.6088,1.6473,1.6908,1.6908,1.7003,1.7201,1.7279,1.7392,0.5009,0.5223,0.0,0.5515,0.5559,0.0,0.5569,0.5569,0.5572,0.5586,0.5691,0.5833,0.5963,0.5993,0.6081,0.6276,0.63,0.6338,0.6416,0.7026,0.7825,0.8737,0.9652,1.0513,1.1335,1.1595,1.1706,1.1744,1.1558,1.1446,1.1446,1.1223,1.1111,1.1111,1.1111,1.1111,1.1111,1.1111,1.1111,1.1111,1.1111,1.1111,1.1111,1.1111,1.1123,1.1166,1.1381,1.1495,1.1495,1.1519,1.1513,1.1394,1.0422,0.9987,0.9835,0.9089,0.8284,0.7595,0.7595,0.7138,0.649,0.6416,0.6412,0.6416,0.6338,0.63,0.63,0.63,0.63,0.63,0.63,0.6834,0.7407,0.7484,0.8169,0.9008,0.9728,1.0513,1.1111,1.1111,1.1111,1.1149,1.1372,1.1558,1.1781,1.2003,1.2187,1.2305,1.2305,1.2305,1.2305,1.2305,1.2305,1.2305,1.2305,1.2305,1.2305,1.2305,1.2372,1.2445,1.2519,1.3774,1.4895,1.5692,1.6403,1.683,1.6908,1.6908,1.7003,1.7201,1.7426,1.7505,0.4918,0.5039,0.0,0.0,0.5321,0.5443,0.5443,0.5443,0.5477,0.5566,0.5613,0.5718,0.5942,0.5993,0.6081,0.6276,0.63,0.6528,0.7142,0.7407,0.8093,0.9685,1.0067,1.0588,1.1558,1.1669,1.1781,1.1929,1.1744,1.1632,1.1632,1.1446,1.126,1.1111,1.1111,1.1111,1.1111,1.1111,1.1111,1.1111,1.1111,1.1111,1.1111,1.1111,1.1194,1.1405,1.1465,1.1495,1.1507,1.1712,1.1676,1.1489,1.1236,1.0783,1.0169,0.9796,0.9122,0.8432,0.8432,0.8322,0.8093,0.7446,0.7253,0.7138,0.649,0.63,0.63,0.63,0.63,0.63,0.63,0.6416,0.6721,0.7369,0.8589,0.969,0.9846,1.0513,1.1111,1.1111,1.1111,1.1149,1.1372,1.1558,1.1818,1.2187,1.2268,1.2305,1.2305,1.2305,1.2305,1.2305,1.2305,1.2305,1.2305,1.2305,1.2305,1.2305,1.2879,1.3491,1.4063,1.3854,1.4106,1.4859,1.5613,1.6333,1.6908,1.6908,1.7003,1.7201,1.7426,1.7564,0.4988,0.0,0.0,0.524,0.0,0.5395,0.5395,0.5395,0.5419,0.5498,0.5538,0.5637,0.5789,0.5874,0.5949,0.6027,0.6101,0.6449,0.7237,0.7842,0.8699,1.003,1.07,1.126,1.1781,1.1929,1.204,1.215,1.1966,1.1781,1.1706,1.1521,1.1298,1.1111,1.1111,1.1111,1.1111,1.1111,1.1111,1.1111,1.1111,1.1111,1.1111,1.1111,1.119,1.1291,1.1291,1.1291,1.1303,1.1479,1.1417,1.1291,1.1291,1.1056,1.0652,1.0526,0.9954,0.9273,0.9273,0.9008,0.8627,0.8208,0.8093,0.794,0.7103,0.6872,0.6872,0.6872,0.6872,0.6872,0.6872,0.6872,0.6988,0.7407,0.8437,0.9425,0.9803,1.0513,1.1111,1.1111,1.1111,1.1186,1.1484,1.1781,1.2077,1.2268,1.2305,1.2305,1.2305,1.2305,1.2305,1.2305,1.2305,1.2305,1.2305,1.2666,1.2879,1.2879,1.36,1.4207,1.4565,1.4609,1.4966,1.5683,1.6114,1.6508,1.6908,1.6908,1.7038,1.7358,1.747,1.7632,0.51,0.0,0.5361,0.5388,0.5395,0.0,0.5395,0.5395,0.5395,0.5395,0.5494,0.5559,0.5586,0.5684,0.5772,0.5796,0.5908,0.6293,0.7274,0.8309,0.9336,1.0325,1.1372,1.2003,1.204,1.2187,1.2305,1.2305,1.215,1.1966,1.1706,1.1558,1.1335,1.1111,1.1111,1.1111,1.1111,1.1111,1.1111,1.1111,1.1111,1.1111,1.1111,1.1111,1.1111,1.1111,1.1111,1.1111,1.1111,1.1111,1.1111,1.1111,1.1111,1.1111,1.1111,1.1111,1.0663,1.0105,1.0105,0.9685,0.9079,0.8965,0.8894,0.8742,0.794,0.771,0.771,0.771,0.771,0.771,0.771,0.771,0.771,0.771,0.8318,0.9084,0.9771,1.0513,1.1111,1.1111,1.1149,1.126,1.1632,1.2003,1.2261,1.2298,1.2305,1.2305,1.2305,1.2305,1.2305,1.2305,1.2305,1.2305,1.2305,1.3025,1.3499,1.3499,1.4322,1.4816,1.4816,1.5578,1.6298,1.6874,1.6908,1.6908,1.6908,1.6908,1.7081,1.7401,1.747,1.7642,0.0,0.0,0.5192,0.0,0.5395,0.5395,0.0,0.0,0.5395,0.5395,0.5412,0.5467,0.5566,0.5606,0.5657,0.5783,0.582,0.6418,0.8102,0.8626,0.9485,1.1304,1.1781,1.2077,1.2224,1.2268,1.2305,1.2305,1.2268,1.2114,1.1706,1.1669,1.1484,1.1111,1.1111,1.1111,1.1111,1.1111,1.1111,1.1111,1.1111,1.1111,1.1111,1.1111,1.1111,1.1111,1.1111,1.1111,1.1111,1.1111,1.1111,1.1111,1.1111,1.1111,1.1111,1.1111,1.1037,1.0925,1.0925,1.0887,1.0657,0.9954,0.9728,0.9576,0.878,0.8551,0.8551,0.8551,0.8551,0.8551,0.8551,0.8551,0.8551,0.8551,0.916,0.9765,0.9884,1.0513,1.1111,1.1111,1.1223,1.1446,1.1669,1.1892,1.2114,1.2268,1.2305,1.2305,1.2305,1.2305,1.2305,1.2305,1.2305,1.2305,1.2305,1.3025,1.3499,1.3499,1.4859,1.5657,1.5657,1.6368,1.6804,1.6908,1.6908,1.6908,1.6908,1.6908,1.6943,1.6978,1.7332,1.7505,0.5204,0.526,0.5277,0.0,0.5395,0.5395,0.5395,0.5395,0.5395,0.5395,0.5395,0.5416,0.5484,0.5494,0.5518,0.5579,0.5627,0.6261,0.7878,0.8591,0.9583,1.1277,1.1905,1.2187,1.2298,1.2305,1.2305,1.2305,1.2305,1.2114,1.1706,1.1706,1.1521,1.1111,1.1111,1.1111,1.1111,1.1111,1.1111,1.1111,1.1111,1.1111,1.1111,1.1111,1.1111,1.1111,1.1111,1.1111,1.1111,1.1111,1.1111,1.1111,1.1111,1.1111,1.1111,1.1111,1.1111,1.1111,1.1111,1.1111,1.1037,1.07,1.0556,1.04,0.9614,0.9387,0.9387,0.9387,0.9387,0.9387,0.9387,0.9387,0.9387,0.9387,0.9652,1.003,1.0481,1.085,1.1111,1.1111,1.1335,1.1595,1.1669,1.1966,1.2187,1.2298,1.2305,1.2305,1.2305,1.2305,1.2305,1.2305,1.2305,1.2305,1.2305,1.3025,1.3673,1.4106,1.5188,1.5982,1.6403,1.6726,1.6908,1.6908,1.6908,1.6908,1.6908,1.6908,1.6968,1.7072,1.7358,1.7529,0.0,0.0,0.531,0.5426,0.5453,0.5453,0.0,0.5453,0.5443,0.5402,0.5395,0.5395,0.5395,0.5395,0.5395,0.5395,0.5491,0.6101,0.7683,0.8558,0.9605,1.1195,1.1915,1.2305,1.2305,1.2305,1.2305,1.2305,1.2305,1.2114,1.1706,1.1706,1.1521,1.1111,1.1111,1.1111,1.1111,1.1111,1.1111,1.1111,1.1111,1.1111,1.1111,1.1111,1.1111,1.1111,1.1111,1.1111,1.1111,1.1111,1.1111,1.1111,1.1111,1.1111,1.1111,1.1111,1.1111,1.1111,1.1111,1.1111,1.1111,1.1111,1.1111,1.0999,1.0406,1.0218,1.0218,1.0218,1.0218,1.0218,1.0218,1.0218,1.0218,1.0218,1.0218,1.0368,1.0962,1.1111,1.1111,1.1111,1.1409,1.1706,1.1706,1.204,1.2305,1.2305,1.2305,1.2305,1.2305,1.2305,1.2305,1.2305,1.2305,1.2305,1.2305,1.3025,1.3745,1.4279,1.5251,1.6053,1.6586,1.6804,1.6908,1.6908,1.6908,1.6908,1.6908,1.6908,1.6968,1.7141,1.7392,1.7564,0.0,0.5155,0.0,0.5471,0.5579,0.5579,0.5579,0.5579,0.5538,0.5426,0.5395,0.5395,0.5395,0.5395,0.5395,0.5395,0.5402,0.6071,0.792,0.8554,0.954,1.1433,1.2033,1.2305,1.2305,1.2305,1.2305,1.2305,1.2305,1.2114,1.1706,1.1706,1.1521,1.1111,1.1111,1.1111,1.1111,1.1111,1.1111,1.1111,1.1111,1.1111,1.1111,1.1111,1.1111,1.1111,1.1111,1.1111,1.1111,1.1111,1.1111,1.1111,1.1111,1.1111,1.1111,1.1111,1.1111,1.1111,1.1111,1.1111,1.1111,1.1111,1.1111,1.1074,1.1037,1.1037,1.1037,1.1037,1.1037,1.1037,1.1037,1.1037,1.1037,1.1037,1.1037,1.1037,1.1074,1.1111,1.1111,1.1111,1.1409,1.1706,1.1706,1.204,1.2305,1.2305,1.2305,1.2305,1.2305,1.2305,1.2305,1.2305,1.2305,1.2305,1.2305,1.3025,1.3535,1.3535,1.4966,1.5833,1.5868,1.6517,1.6908,1.6908,1.6908,1.6908,1.6908,1.6908,1.6908,1.6943,1.7332,1.7505,0.0,0.0,0.0,0.523,0.5369,0.5477,0.5477,0.5552,0.5545,0.5426,0.5395,0.5395,0.5395,0.5395,0.5395,0.5395,0.5395,0.5926,0.7482,0.8201,0.9244,1.097,1.1745,1.2157,1.2298,1.2305,1.2305,1.2305,1.2305,1.2187,1.1892,1.1781,1.1558,1.1298,1.1186,1.1111,1.1111,1.1111,1.1111,1.1111,1.1111,1.1111,1.1111,1.1111,1.1111,1.1111,1.1111,1.1111,1.1111,1.1111,1.1111,1.1111,1.1111,1.1111,1.1111,1.1111,1.1111,1.1111,1.1111,1.1111,1.1111,1.1111,1.1111,1.1111,1.1111,1.1111,1.1111,1.1111,1.1111,1.1111,1.1111,1.1111,1.1111,1.1111,1.1111,1.1111,1.1111,1.1111,1.1111,1.1111,1.1335,1.1558,1.1669,1.1929,1.215,1.2268,1.2305,1.2305,1.2305,1.2305,1.2305,1.2305,1.2305,1.2305,1.2305,1.2556,1.2952,1.3462,1.4466,1.5251,1.5762,1.6517,1.6908,1.6908,1.6908,1.6908,1.6908,1.6908,1.6908,1.6908,1.7176,1.7392,0.4675,0.0,0.0,0.0,0.5284,0.5423,0.5521,0.5589,0.5616,0.5501,0.5474,0.5457,0.5402,0.5395,0.5395,0.5395,0.5395,0.5907,0.7348,0.8025,0.9021,1.082,1.1524,1.1972,1.2254,1.2305,1.2305,1.2305,1.2305,1.2224,1.2003,1.1728,1.1457,1.1163,1.11,1.1111,1.1111,1.1111,1.1111,1.1111,1.1111,1.1111,1.1111,1.1111,1.1111,1.1111,1.1111,1.1111,1.1111,1.1111,1.1111,1.1111,1.1111,1.1111,1.1111,1.1111,1.1111,1.1111,1.1111,1.1111,1.1111,1.1111,1.1111,1.1111,1.1111,1.1111,1.1111,1.1111,1.1111,1.1111,1.1111,1.1111,1.1111,1.1111,1.1111,1.1111,1.1111,1.1111,1.1111,1.1111,1.126,1.1446,1.1595,1.1781,1.1966,1.215,1.2187,1.2231,1.2298,1.2305,1.2305,1.2305,1.2305,1.2305,1.2305,1.2305,1.2519,1.3062,1.4034,1.4859,1.5365,1.6368,1.6908,1.6908,1.6908,1.6908,1.6908,1.6908,1.6908,1.6908,1.7107,1.7348,0.0,0.0,0.0,0.0,0.5378,0.5457,0.5715,0.5783,0.5745,0.5616,0.5586,0.5538,0.5429,0.5402,0.5399,0.5395,0.5395,0.594,0.7552,0.7952,0.887,1.1003,1.1465,1.1768,1.2234,1.2305,1.2298,1.2291,1.2298,1.2218,1.1983,1.1542,1.1114,1.0719,1.0972,1.1111,1.1111,1.1111,1.1111,1.1111,1.1111,1.1111,1.1111,1.1111,1.1111,1.1111,1.1111,1.1111,1.1111,1.1111,1.1111,1.1111,1.1111,1.1111,1.1111,1.1111,1.1111,1.1111,1.1111,1.1111,1.1111,1.1111,1.1111,1.1111,1.1111,1.1111,1.1111,1.1111,1.1111,1.1111,1.1111,1.1111,1.1111,1.1111,1.1111,1.1111,1.1111,1.1111,1.1111,1.1111,1.126,1.1409,1.1409,1.1558,1.1744,1.1966,1.2003,1.2077,1.2268,1.2305,1.2305,1.2305,1.2305,1.2305,1.2305,1.2305,1.2305,1.2305,1.3745,1.4565,1.4601,1.6044,1.6874,1.6908,1.6908,1.6908,1.6908,1.6908,1.6908,1.6908,1.7107,1.7373,0.4346,0.0,0.0,0.0,0.0,0.0,0.5241,0.5282,0.5336,0.5552,0.5535,0.5481,0.5549,0.5562,0.5525,0.5412,0.5395,0.5734,0.6664,0.7424,0.8441,0.9898,1.0853,1.1582,1.205,1.2224,1.2218,1.204,1.2184,1.2081,1.1585,1.1401,1.1186,1.0935,1.1052,1.1111,1.1111,1.1111,1.1111,1.1111,1.1111,1.1111,1.1111,1.1111,1.1111,1.1111,1.1111,1.1111,1.1111,1.1111,1.1111,1.1111,1.1111,1.1111,1.1111,1.1111,1.1111,1.1111,1.1111,1.1111,1.1111,1.1111,1.1111,1.1111,1.1111,1.1111,1.1111,1.1111,1.1111,1.1111,1.1111,1.1111,1.1111,1.1111,1.1111,1.1111,1.1111,1.1111,1.1111,1.1111,1.1149,1.1223,1.1372,1.1446,1.1595,1.1966,1.2003,1.2077,1.2268,1.2305,1.2305,1.2305,1.2305,1.2305,1.2305,1.2305,1.2305,1.2305,1.3244,1.4034,1.4565,1.5578,1.6368,1.6908,1.6908,1.6908,1.6908,1.6908,1.6908,1.6908,1.7107,1.7235,0.4478,0.4633,0.0,0.486,0.0,0.0,0.526,0.527,0.5294,0.5542,0.5552,0.5518,0.5576,0.5589,0.5579,0.5583,0.5579,0.5893,0.6852,0.7443,0.8382,0.9985,1.0836,1.1473,1.194,1.2187,1.2231,1.2064,1.2091,1.1882,1.1353,1.1207,1.1101,1.1006,1.0979,1.1003,1.1111,1.1111,1.1111,1.1111,1.1111,1.1111,1.1111,1.1111,1.1111,1.1111,1.1111,1.1111,1.1111,1.1111,1.1111,1.1111,1.1111,1.1111,1.1111,1.1111,1.1111,1.1111,1.1111,1.1111,1.1111,1.1111,1.1111,1.1111,1.1111,1.1111,1.1111,1.1111,1.1111,1.1111,1.1111,1.1111,1.1111,1.1111,1.1111,1.1111,1.1111,1.1111,1.1111,1.1111,1.1111,1.1149,1.126,1.126,1.1372,1.1706,1.1818,1.1966,1.215,1.2268,1.2305,1.2305,1.2305,1.2305,1.2305,1.2305,1.2305,1.2305,1.3062,1.3673,1.4106,1.5223,1.6009,1.6438,1.6726,1.6908,1.6908,1.6908,1.6908,1.6908,1.7003,1.7132,0.4864,0.4914,0.0,0.5029,0.4992,0.0,0.541,0.5396,0.5355,0.5508,0.5525,0.5525,0.5559,0.5579,0.562,0.5711,0.5769,0.6214,0.7404,0.7723,0.8562,1.0474,1.1042,1.1437,1.1903,1.215,1.2248,1.2258,1.1984,1.1688,1.1289,1.1069,1.0969,1.1036,1.0857,1.0876,1.1105,1.1111,1.1111,1.1111,1.1111,1.1111,1.1111,1.1111,1.1111,1.1111,1.1111,1.1111,1.1111,1.1111,1.1111,1.1111,1.1111,1.1111,1.1111,1.1111,1.1111,1.1111,1.1111,1.1111,1.1111,1.1111,1.1111,1.1111,1.1111,1.1111,1.1111,1.1111,1.1111,1.1111,1.1111,1.1111,1.1111,1.1111,1.1111,1.1111,1.1111,1.1111,1.1111,1.1111,1.1111,1.1111,1.1111,1.1111,1.1186,1.1372,1.1558,1.1744,1.1966,1.2157,1.2268,1.2305,1.2305,1.2305,1.2305,1.2305,1.2305,1.2305,1.2952,1.3426,1.3499,1.4895,1.5727,1.5798,1.6508,1.6908,1.6908,1.6908,1.6908,1.6908,1.6908,1.7012,0.489,0.5094,0.5228,0.486,0.4867,0.0,0.4897,0.4813,0.4853,0.5125,0.5096,0.5121,0.5395,0.5542,0.5518,0.5265,0.5566,0.5897,0.615,0.7275,0.8285,0.8901,1.0202,1.1257,1.1718,1.1929,1.2058,1.1971,1.1677,1.159,1.1742,1.143,1.1236,1.1257,1.1107,1.1057,1.1111,1.1111,1.1111,1.1111,1.1111,1.1111,1.1111,1.1111,1.1111,1.1111,1.1111,1.1111,1.1111,1.1111,1.1111,1.1111,1.1111,1.1111,1.1111,1.1111,1.1111,1.1111,1.1111,1.1111,1.1111,1.1111,1.1111,1.1111,1.1111,1.1111,1.1111,1.1111,1.1111,1.1111,1.1111,1.1111,1.1111,1.1111,1.1111,1.1111,1.1111,1.1111,1.1111,1.1111,1.1111,1.1111,1.1111,1.1111,1.1186,1.1372,1.1446,1.1595,1.1966,1.204,1.2114,1.2268,1.2305,1.2305,1.2305,1.2305,1.2305,1.2305,1.2445,1.2806,1.3462,1.4358,1.5144,1.5798,1.6508,1.6908,1.6908,1.6908,1.6908,1.6908,1.6908,1.6908,0.5162,0.5279,0.5358,0.5176,0.5032,0.0,0.0,0.4791,0.4656,0.4893,0.4842,0.4842,0.5091,0.5163,0.5163,0.5223,0.5505,0.5734,0.58,0.6952,0.8202,0.9346,1.0341,1.1109,1.1696,1.2005,1.2129,1.1904,1.173,1.171,1.1899,1.1484,1.1323,1.149,1.1211,1.1052,1.1111,1.1111,1.1111,1.1111,1.1111,1.1111,1.1111,1.1111,1.1111,1.1111,1.1111,1.1111,1.1111,1.1111,1.1111,1.1111,1.1111,1.1111,1.1111,1.1111,1.1111,1.1111,1.1111,1.1111,1.1111,1.1111,1.1111,1.1111,1.1111,1.1111,1.1111,1.1111,1.1111,1.1111,1.1111,1.1111,1.1111,1.1111,1.1111,1.1111,1.1111,1.1111,1.1111,1.1111,1.1111,1.1111,1.1111,1.1111,1.1149,1.1223,1.1335,1.1484,1.1669,1.1892,1.204,1.215,1.2224,1.2305,1.2305,1.2305,1.2305,1.2305,1.2305,1.2482,1.2879,1.3637,1.4609,1.5762,1.6508,1.6908,1.6908,1.6908,1.6908,1.6908,1.6908,1.6908,0.5395,0.5416,0.5453,0.5484,0.5252,0.5038,0.0,0.0,0.0,0.4673,0.4626,0.4612,0.4728,0.4708,0.4778,0.5176,0.5405,0.5623,0.5727,0.6641,0.7919,0.9647,1.0357,1.0942,1.1507,1.203,1.2283,1.2121,1.1981,1.1977,1.2067,1.1616,1.1498,1.1768,1.1308,1.1113,1.1143,1.1111,1.1111,1.1111,1.1111,1.1111,1.1111,1.1111,1.1111,1.1111,1.1111,1.1111,1.1111,1.1111,1.1111,1.1111,1.1111,1.1111,1.1111,1.1111,1.1111,1.1111,1.1111,1.1111,1.1111,1.1111,1.1111,1.1111,1.1111,1.1111,1.1111,1.1111,1.1111,1.1111,1.1111,1.1111,1.1111,1.1111,1.1111,1.1111,1.1111,1.1111,1.1111,1.1111,1.1111,1.1111,1.1111,1.1111,1.1111,1.1111,1.1223,1.1372,1.1409,1.1669,1.1892,1.1929,1.2114,1.2224,1.2224,1.2268,1.2305,1.2305,1.2305,1.2305,1.2305,1.3208,1.4358,1.5762,1.6508,1.6908,1.6908,1.6908,1.6908,1.6908,1.6908,1.6908,0.5395,0.5494,0.5504,0.5214,0.5291,0.5291,0.4785,0.0,0.4832,0.4366,0.0,0.4477,0.4322,0.0,0.0,0.4594,0.5055,0.5474,0.5613,0.6097,0.6716,0.7497,0.9236,1.0455,1.0695,1.1599,1.2305,1.2766,1.2288,1.2179,1.267,1.2216,1.1937,1.1966,1.1564,1.1378,1.1372,1.1186,1.1111,1.1111,1.1111,1.1111,1.1111,1.1111,1.1111,1.1111,1.1111,1.1111,1.1111,1.1111,1.1111,1.1111,1.1111,1.1111,1.1111,1.1111,1.1111,1.1111,1.1111,1.1111,1.1111,1.1111,1.1111,1.1111,1.1111,1.1111,1.1111,1.1111,1.1111,1.1111,1.1111,1.1111,1.1111,1.1111,1.1111,1.1111,1.1111,1.1111,1.1111,1.1111,1.1111,1.1111,1.1111,1.1111,1.1111,1.1111,1.1111,1.1186,1.1372,1.1446,1.1558,1.1706,1.1892,1.204,1.204,1.2187,1.2305,1.2305,1.2305,1.2305,1.2305,1.3702,1.4895,1.5762,1.6508,1.6908,1.6908,1.6908,1.6908,1.6908,1.6908,1.6908,0.5395,0.5443,0.5481,0.541,0.5335,0.5195,0.4938,0.4775,0.4569,0.4216,0.0,0.0,0.0,0.0,0.0,0.0,0.4599,0.4935,0.5067,0.5551,0.6337,0.7575,0.848,0.9507,1.0704,1.1346,1.1967,1.2612,1.2305,1.217,1.2369,1.2183,1.1922,1.1676,1.1484,1.1335,1.1223,1.1149,1.1111,1.1111,1.1111,1.1111,1.1111,1.1111,1.1111,1.1111,1.1111,1.1111,1.1111,1.1111,1.1111,1.1111,1.1111,1.1111,1.1111,1.1111,1.1111,1.1111,1.1111,1.1111,1.1111,1.1111,1.1111,1.1111,1.1111,1.1111,1.1111,1.1111,1.1111,1.1111,1.1111,1.1111,1.1111,1.1111,1.1111,1.1111,1.1111,1.1111,1.1111,1.1111,1.1111,1.1111,1.1111,1.1111,1.1111,1.1111,1.1111,1.1149,1.1223,1.1335,1.1446,1.1521,1.1706,1.1855,1.2003,1.2077,1.2187,1.2298,1.2305,1.2305,1.2305,1.3382,1.4322,1.5073,1.5868,1.6473,1.6908,1.6908,1.6908,1.6908,1.6908,1.6908,0.5395,0.5395,0.5423,0.5535,0.5373,0.5139,0.5002,0.4761,0.4473,0.4112,0.4016,0.0,0.0,0.0,0.3754,0.3952,0.0,0.4525,0.4723,0.5159,0.5937,0.7239,0.7777,0.8729,1.0404,1.0906,1.1405,1.2141,1.2068,1.2099,1.2329,1.2195,1.1935,1.1608,1.1484,1.1335,1.1186,1.1149,1.1111,1.1111,1.1111,1.1111,1.1111,1.1111,1.1111,1.1111,1.1111,1.1111,1.1111,1.1111,1.1111,1.1111,1.1111,1.1111,1.1111,1.1111,1.1111,1.1111,1.1111,1.1111,1.1111,1.1111,1.1111,1.1111,1.1111,1.1111,1.1111,1.1111,1.1111,1.1111,1.1111,1.1111,1.1111,1.1111,1.1111,1.1111,1.1111,1.1111,1.1111,1.1111,1.1111,1.1111,1.1111,1.1111,1.1111,1.1111,1.1111,1.1111,1.1111,1.1223,1.1335,1.1335,1.1484,1.1706,1.1892,1.1966,1.2077,1.2298,1.2305,1.2409,1.2629,1.3382,1.4142,1.4895,1.5683,1.6368,1.6908,1.6908,1.6908,1.6908,1.6908,1.6908,0.5395,0.5395,0.5395,0.5399,0.5399,0.5256,0.473,0.486,0.484,0.408,0.4156,0.4296,0.395,0.3895,0.3917,0.3981,0.4213,0.0,0.0,0.5011,0.5264,0.562,0.6995,0.8338,0.9457,1.0039,1.0648,1.1374,1.1653,1.2151,1.2927,1.2405,1.2107,1.2094,1.1633,1.1409,1.1409,1.1186,1.1111,1.1111,1.1111,1.1111,1.1111,1.1111,1.1111,1.1111,1.1111,1.1111,1.1111,1.1111,1.1111,1.1111,1.1111,1.1111,1.1111,1.1111,1.1111,1.1111,1.1111,1.1111,1.1111,1.1111,1.1111,1.1111,1.1111,1.1111,1.1111,1.1111,1.1111,1.1111,1.1111,1.1111,1.1111,1.1111,1.1111,1.1111,1.1111,1.1111,1.1111,1.1111,1.1111,1.1111,1.1111,1.1111,1.1111,1.1111,1.1111,1.1111,1.1111,1.1111,1.1111,1.1111,1.1298,1.1484,1.1706,1.1892,1.2077,1.2298,1.2305,1.2666,1.3426,1.4171,1.4931,1.5762,1.6482,1.6874,1.6908,1.6908,1.6908,1.6908,1.6908,1.6908,0.5395,0.5395,0.5395,0.5395,0.5284,0.5099,0.4699,0.4618,0.4531,0.4167,0.4092,0.4109,0.4278,0.4086,0.3953,0.4095,0.4215,0.4321,0.0,0.4745,0.5032,0.5231,0.6459,0.7547,0.8164,0.9165,1.0154,1.1109,1.146,1.1882,1.2494,1.2181,1.1905,1.1695,1.1369,1.1186,1.1186,1.1149,1.1111,1.1111,1.1111,1.1111,1.1111,1.1111,1.1111,1.1111,1.1111,1.1111,1.1111,1.1111,1.1111,1.1111,1.1111,1.1111,1.1111,1.1111,1.1111,1.1111,1.1111,1.1111,1.1111,1.1111,1.1111,1.1111,1.1111,1.1111,1.1111,1.1111,1.1111,1.1111,1.1111,1.1111,1.1111,1.1111,1.1111,1.1111,1.1111,1.1111,1.1111,1.1111,1.1111,1.1111,1.1111,1.1111,1.1111,1.1111,1.1111,1.1111,1.1111,1.1111,1.1111,1.1111,1.1149,1.1298,1.1484,1.1818,1.204,1.2114,1.2224,1.2409,1.2703,1.3455,1.425,1.5002,1.5754,1.6403,1.6908,1.6908,1.6908,1.6908,1.6908,1.6908,0.5395,0.5395,0.5395,0.5395,0.5287,0.5135,0.4798,0.4687,0.4581,0.4382,0.4284,0.4284,0.4565,0.4345,0.4176,0.4261,0.4252,0.4253,0.0,0.4598,0.4894,0.5005,0.5884,0.6746,0.7323,0.819,0.9301,1.086,1.1129,1.157,1.2379,1.2113,1.1802,1.1633,1.1304,1.1111,1.1111,1.1111,1.1111,1.1111,1.1111,1.1111,1.1111,1.1111,1.1111,1.1111,1.1111,1.1111,1.1111,1.1111,1.1111,1.1111,1.1111,1.1111,1.1111,1.1111,1.1111,1.1111,1.1111,1.1111,1.1111,1.1111,1.1111,1.1111,1.1111,1.1111,1.1111,1.1111,1.1111,1.1111,1.1111,1.1111,1.1111,1.1111,1.1111,1.1111,1.1111,1.1111,1.1111,1.1111,1.1111,1.1111,1.1111,1.1111,1.1111,1.1111,1.1111,1.1111,1.1111,1.1111,1.1111,1.1111,1.1111,1.1186,1.1372,1.1781,1.2003,1.2003,1.2194,1.2409,1.2703,1.3208,1.3962,1.5002,1.5542,1.6158,1.6908,1.6908,1.6908,1.6908,1.6908,1.6908]}]]